[[{"header":{"parameterUnit":"m.s-1","parameterCategory":1,"la1":31.0,"la2":29.5877,"lo1":-88.7671,"lo2":-86.6584,"dy":0.0162,"dx":0.0185,"nx":115,"ny":88,"refTime":"2023-03-22T12:00:00:Z","depth":0,"parameterNumber":2,"parameterNumberName":"U-component_of_WINDS"},"data":[0.0,0.0,0.0,0.0,0.0,0.0,0.0,0.0,0.0,0.0,0.0,0.0,0.0,0.0,0.0,0.0,0.0,0.0,0.0,0.0,0.0,0.0,0.0,0.0,0.0,0.0,0.0,0.0,0.0,0.0,0.0,0.0,0.0,0.0,0.0,0.0,0.0,0.0,0.0,0.0,0.0,0.0,0.0,0.0,0.0,0.0,0.0,0.0,0.0,0.0,0.0,0.0,0.0,0.0,0.0,0.0,0.0,0.0,0.0,0.0,0.0,0.0,0.0,0.0,0.0,0.0,0.0,0.0,0.0,0.0,0.0,0.0,0.0,0.0,0.0,0.0,0.0,0.0,0.0,0.0,0.0,0.0,0.0,0.0,0.0,0.0,0.0,0.0,0.0,0.0,0.0,0.0,0.0,0.0,0.0,0.0,0.0,0.0,0.0,0.0,0.0,0.0,0.0,0.0,0.0,0.0,0.0,0.0,0.0,0.0,0.0,0.0,0.0,0.0,0.0,0.0,0.0,0.0,0.0,0.0,0.0,0.0,0.0,0.0,0.0,0.0,0.0,0.0,0.0,0.0,0.0,0.0,0.0,0.0,0.0,0.0,0.0,0.0,0.0,0.0,0.0,0.0,0.0,0.0,0.0,0.0,0.0,0.0,0.0,0.0,0.0,0.0,0.0,0.0,0.0,0.0,0.0,0.0,0.0,0.0,0.0,0.0,0.0,0.0,0.0,0.0,0.0,0.0,0.0,0.0,0.0,0.0,0.0,0.0,0.0,0.0,0.0,0.0,0.0,0.0,0.0,0.0,0.0,0.0,0.0,0.0,0.0,0.0,0.0,0.0,0.0,0.0,0.0,0.0,0.0,0.0,0.0,0.0,0.0,0.0,0.0,0.0,0.0,0.0,0.0,0.0,0.0,0.0,0.0,0.0,0.0,0.0,0.0,0.0,0.0,0.0,0.0,0.0,0.0,0.0,0.0,0.0,0.0,0.0,0.0,0.0,0.0,0.0,0.0,0.0,0.0,0.0,0.0,0.0,0.0,0.0,0.0,0.0,0.0,0.0,0.0,0.0,0.0,0.0,0.0,0.0,0.0,0.0,0.0,0.0,0.0,0.0,0.0,0.0,0.0,0.0,0.0,0.0,0.0,0.0,0.0,0.0,0.0,0.0,0.0,0.0,0.0,0.0,0.0,0.0,0.0,0.0,0.0,0.0,0.0,0.0,0.0,0.0,0.0,0.0,0.0,0.0,0.0,0.0,0.0,0.0,0.0,0.0,0.0,0.0,0.0,0.0,0.0,0.0,0.0,0.0,0.0,0.0,0.0,0.0,0.0,0.0,0.0,0.0,0.0,0.0,0.0,0.0,0.0,0.0,0.0,0.0,0.0,0.0,0.0,0.0,0.0,0.0,0.0,0.0,0.0,0.0,0.0,0.0,0.0,0.0,0.0,0.0,0.0,0.0,0.0,0.0,0.0,0.0,0.0,0.0,0.0,0.0,0.0,0.0,0.0,0.0,0.0,0.0,0.0,0.0,0.0,0.0,0.0,0.0,0.0,0.0,0.0,0.0,0.0,0.0,0.0,0.0,0.0,0.0,0.0,0.0,0.0,0.0,0.0,0.0,0.0,0.0,0.0,0.0,0.0,0.0,0.0,0.0,0.0,0.0,0.0,0.0,0.0,0.0,0.0,0.0,0.0,0.0,0.0,0.0,0.0,0.0,0.0,0.0,0.0,0.0,0.0,0.0,0.0,0.0,0.0,0.0,0.0,0.0,0.0,0.0,0.0,0.0,0.0,0.0,0.0,0.0,0.0,0.0,0.0,0.0,0.0,0.0,0.0,0.0,0.0,0.0,0.0,0.0,0.0,0.0,0.0,0.0,0.0,0.0,0.0,0.0,0.0,0.0,0.0,0.0,0.0,0.0,0.0,0.0,0.0,0.0,0.0,0.0,0.0,0.0,0.0,0.0,0.0,0.0,0.0,0.0,0.0,0.0,0.0,0.0,0.0,0.0,0.0,0.0,0.0,0.0,0.0,0.0,0.0,0.0,0.0,0.0,0.0,0.0,0.0,0.0,0.0,0.0,0.0,0.0,0.0,0.0,0.0,0.0,0.0,0.0,0.0,0.0,0.0,0.0,0.0,0.0,0.0,0.0,0.0,0.0,0.0,0.0,0.0,0.0,0.0,0.0,0.0,0.0,0.0,0.0,0.0,0.0,0.0,0.0,0.0,0.0,0.0,0.0,0.0,0.0,0.0,0.0,0.0,0.0,0.0,0.0,0.0,0.0,0.0,0.0,0.0,0.0,0.0,0.0,0.0,0.0,0.0,0.0,0.0,0.0,0.0,0.0,0.0,0.0,0.0,0.0,0.0,0.0,0.0,0.0,0.0,0.0,0.0,0.0,0.0,0.0,0.0,0.0,0.0,0.0,0.0,0.0,0.0,0.0,0.0,0.0,0.0,0.0,0.0,0.0,0.0,0.0,0.0,0.0,0.0,0.0,0.0,0.0,0.0,0.0,0.0,0.0,0.0,0.0,0.0,0.0,0.0,0.0,0.0,0.0,0.0,0.0,0.0,0.0,0.0,0.0,0.0,0.0,0.0,0.0,0.0,0.0,0.0,0.0,0.0,0.0,0.0,0.0,0.0,0.0,0.0,0.0,0.0,0.0,0.0,0.0,0.0,0.0,0.0,0.0,0.0,0.0,0.0,0.0,0.0,0.0,0.0,0.0,0.0,0.0,0.0,0.0,0.0,0.0,0.0,0.0,0.0,0.0,0.0,0.0,0.0,0.0,0.0,0.0,0.0,0.0,0.0,0.0,0.0,0.0,0.0,0.0,0.0,0.0,0.0,0.0,0.0,0.0,0.0,0.0,0.0,0.0,0.0,0.0,0.0,0.0,0.0,0.0,0.0,0.0,0.0,0.0,0.0,0.0,0.0,0.0,0.0,0.0,0.0,0.0,0.0,0.0,0.0,0.0,0.0,0.0,0.0,0.0,0.0,0.0,0.0,0.0,0.0,0.0,0.0,0.0,0.0,0.0,0.0,0.0,0.0,0.0,0.0,0.0,0.0,0.0,0.0,0.0,0.0,0.0,0.0,0.0,0.0,0.0,0.0,0.0,0.0,0.0,0.0,0.0,0.0,0.0,0.0,0.0,0.0,0.0,0.0,0.0,0.0,0.0,0.0,0.0,0.0,0.0,0.0,0.0,0.0,0.0,0.0,0.0,0.0,0.0,0.0,0.0,0.0,0.0,0.0,0.0,0.0,0.0,0.0,0.0,0.0,0.0,0.0,0.0,0.0,0.0,0.0,0.0,0.0,0.0,0.0,0.0,0.0,0.0,0.0,0.0,0.0,0.0,0.0,0.0,0.0,0.0,0.0,0.0,0.0,0.0,0.0,0.0,0.0,0.0,0.0,0.0,0.0,0.0,0.0,0.0,0.0,0.0,0.0,0.0,0.0,0.0,0.0,0.0,0.0,0.0,0.0,0.0,0.0,0.0,0.0,0.0,0.0,0.0,0.0,0.0,0.0,0.0,0.0,0.0,0.0,0.0,0.0,0.0,0.0,0.0,0.0,0.0,0.0,0.0,0.0,0.0,0.0,0.0,0.0,0.0,0.0,0.0,0.0,0.0,0.0,0.0,0.0,0.0,0.0,0.0,0.0,0.0,0.0,0.0,0.0,0.0,0.0,0.0,0.0,0.0,0.0,0.0,0.0,0.0,0.0,0.0,0.0,0.0,0.0,0.0,0.0,0.0,0.0,0.0,0.0,0.0,0.0,0.0,0.0,0.0,0.0,0.0,0.0,0.0,0.0,0.0,0.0,0.0,0.0,0.0,0.0,0.0,0.0,0.0,0.0,0.0,0.0,0.0,0.0,0.0,0.0,0.0,0.0,0.0,0.0,0.0,0.0,0.0,0.0,0.0,0.0,0.0,0.0,0.0,0.0,0.0,0.0,0.0,0.0,0.0,0.0,0.0,0.0,0.0,0.0,0.0,0.0,0.0,0.0,0.0,0.0,0.0,0.0,0.0,0.0,0.0,0.0,0.0,0.0,0.0,0.0,0.0,0.0,0.0,0.0,0.0,0.0,0.0,0.0,0.0,0.0,0.0,0.0,0.0,0.0,0.0,0.0,0.0,0.0,0.0,0.0,0.0,0.0,0.0,0.0,0.0,0.0,0.0,0.0,0.0,0.0,0.0,0.0,0.0,0.0,0.0,0.0,0.0,0.0,0.0,0.0,0.0,0.0,0.0,0.0,0.0,0.0,0.0,0.0,0.0,-6.3994,0.0,0.0,0.0,0.0,0.0,0.0,0.0,0.0,0.0,0.0,0.0,0.0,0.0,0.0,0.0,0.0,0.0,0.0,0.0,0.0,0.0,0.0,0.0,0.0,0.0,0.0,0.0,0.0,0.0,0.0,0.0,0.0,0.0,0.0,0.0,0.0,0.0,0.0,0.0,0.0,0.0,0.0,0.0,0.0,0.0,0.0,0.0,0.0,0.0,0.0,0.0,0.0,0.0,0.0,0.0,0.0,0.0,0.0,0.0,0.0,0.0,0.0,0.0,0.0,0.0,0.0,0.0,0.0,0.0,0.0,0.0,0.0,0.0,0.0,0.0,0.0,0.0,0.0,0.0,0.0,0.0,0.0,0.0,0.0,0.0,0.0,0.0,0.0,0.0,0.0,0.0,0.0,0.0,0.0,0.0,0.0,0.0,0.0,0.0,0.0,0.0,0.0,0.0,0.0,0.0,0.0,0.0,0.0,0.0,0.0,-6.6641,-6.5802,-6.4644,-6.3758,-6.3267,0.0,0.0,0.0,0.0,0.0,0.0,0.0,0.0,0.0,0.0,0.0,0.0,0.0,0.0,0.0,0.0,0.0,0.0,0.0,0.0,0.0,0.0,0.0,0.0,0.0,0.0,0.0,0.0,0.0,0.0,0.0,0.0,0.0,0.0,0.0,0.0,0.0,0.0,0.0,0.0,0.0,0.0,0.0,0.0,0.0,0.0,0.0,0.0,0.0,0.0,0.0,0.0,0.0,0.0,0.0,0.0,0.0,0.0,0.0,0.0,0.0,0.0,0.0,0.0,0.0,0.0,0.0,0.0,0.0,0.0,0.0,0.0,0.0,0.0,0.0,0.0,0.0,0.0,0.0,0.0,0.0,0.0,0.0,0.0,0.0,0.0,0.0,0.0,0.0,0.0,0.0,0.0,0.0,0.0,0.0,0.0,0.0,0.0,0.0,0.0,0.0,0.0,0.0,0.0,0.0,0.0,0.0,0.0,0.0,0.0,0.0,0.0,-6.4411,-6.3408,-6.2133,0.0,0.0,0.0,0.0,0.0,0.0,0.0,0.0,0.0,0.0,0.0,0.0,0.0,0.0,0.0,0.0,0.0,0.0,0.0,0.0,0.0,0.0,0.0,0.0,0.0,0.0,0.0,0.0,0.0,0.0,0.0,0.0,0.0,0.0,0.0,0.0,0.0,0.0,0.0,0.0,0.0,0.0,0.0,0.0,0.0,0.0,0.0,0.0,0.0,0.0,0.0,0.0,0.0,0.0,0.0,0.0,0.0,0.0,0.0,0.0,0.0,0.0,0.0,0.0,0.0,0.0,0.0,0.0,0.0,0.0,0.0,0.0,0.0,0.0,0.0,0.0,0.0,0.0,0.0,0.0,0.0,0.0,0.0,0.0,0.0,0.0,0.0,0.0,0.0,0.0,0.0,0.0,0.0,0.0,0.0,0.0,0.0,0.0,0.0,0.0,0.0,0.0,0.0,0.0,0.0,0.0,0.0,0.0,0.0,0.0,-6.5995,-6.5219,-6.4411,0.0,-6.0573,0.0,0.0,0.0,0.0,0.0,0.0,0.0,0.0,0.0,0.0,0.0,0.0,0.0,0.0,0.0,0.0,0.0,0.0,0.0,0.0,0.0,0.0,0.0,0.0,0.0,0.0,0.0,0.0,0.0,0.0,0.0,0.0,0.0,0.0,0.0,0.0,0.0,0.0,0.0,0.0,0.0,0.0,0.0,0.0,0.0,0.0,0.0,0.0,0.0,0.0,0.0,0.0,0.0,0.0,0.0,0.0,0.0,0.0,0.0,0.0,0.0,0.0,0.0,0.0,0.0,0.0,0.0,0.0,0.0,0.0,0.0,0.0,0.0,0.0,0.0,0.0,0.0,0.0,0.0,0.0,0.0,0.0,0.0,0.0,0.0,0.0,0.0,0.0,0.0,0.0,0.0,0.0,0.0,0.0,0.0,0.0,0.0,0.0,0.0,0.0,0.0,0.0,0.0,0.0,0.0,0.0,0.0,0.0,0.0,0.0,-6.5256,-6.445,-6.3153,-6.1737,0.0,0.0,0.0,0.0,0.0,0.0,0.0,0.0,0.0,0.0,0.0,0.0,0.0,0.0,0.0,0.0,0.0,0.0,0.0,0.0,0.0,0.0,0.0,0.0,0.0,0.0,0.0,0.0,0.0,0.0,0.0,0.0,0.0,0.0,0.0,0.0,0.0,0.0,0.0,0.0,0.0,0.0,0.0,0.0,0.0,0.0,0.0,0.0,0.0,0.0,0.0,0.0,0.0,0.0,0.0,0.0,0.0,0.0,0.0,0.0,0.0,0.0,0.0,0.0,0.0,0.0,0.0,0.0,0.0,0.0,0.0,0.0,0.0,0.0,0.0,0.0,0.0,0.0,0.0,0.0,0.0,0.0,0.0,0.0,0.0,0.0,0.0,0.0,0.0,0.0,0.0,0.0,0.0,0.0,0.0,0.0,0.0,0.0,0.0,0.0,0.0,0.0,0.0,0.0,0.0,0.0,0.0,0.0,0.0,0.0,-6.538,-6.4619,-6.355,-6.191,-6.0642,-5.9749,0.0,0.0,0.0,0.0,0.0,0.0,0.0,0.0,0.0,0.0,0.0,0.0,0.0,0.0,0.0,0.0,0.0,0.0,0.0,0.0,0.0,0.0,0.0,0.0,0.0,0.0,0.0,0.0,0.0,0.0,0.0,0.0,0.0,0.0,0.0,0.0,0.0,0.0,0.0,0.0,0.0,0.0,0.0,0.0,0.0,0.0,0.0,0.0,0.0,0.0,0.0,0.0,0.0,0.0,0.0,0.0,0.0,0.0,0.0,0.0,0.0,0.0,0.0,0.0,0.0,0.0,0.0,0.0,0.0,0.0,0.0,0.0,0.0,0.0,0.0,0.0,0.0,0.0,0.0,0.0,0.0,0.0,0.0,0.0,0.0,0.0,0.0,0.0,0.0,0.0,0.0,0.0,0.0,0.0,0.0,0.0,0.0,0.0,0.0,0.0,0.0,0.0,0.0,0.0,0.0,0.0,0.0,0.0,-6.5111,-6.507,-6.4325,-6.2772,-6.107,-5.9749,0.0,0.0,0.0,0.0,0.0,0.0,0.0,0.0,0.0,0.0,0.0,0.0,0.0,0.0,0.0,0.0,0.0,0.0,0.0,0.0,0.0,0.0,0.0,0.0,0.0,0.0,0.0,0.0,0.0,0.0,0.0,0.0,0.0,0.0,0.0,0.0,0.0,0.0,0.0,0.0,0.0,0.0,0.0,0.0,0.0,0.0,0.0,0.0,0.0,0.0,0.0,0.0,0.0,0.0,0.0,0.0,0.0,0.0,0.0,0.0,0.0,0.0,0.0,0.0,0.0,0.0,0.0,0.0,0.0,0.0,0.0,0.0,0.0,0.0,0.0,0.0,0.0,0.0,0.0,0.0,0.0,0.0,0.0,0.0,0.0,0.0,0.0,0.0,0.0,0.0,0.0,0.0,0.0,0.0,0.0,0.0,0.0,0.0,0.0,0.0,0.0,0.0,0.0,0.0,0.0,0.0,0.0,0.0,0.0,-6.4987,-6.3968,-6.2912,-6.1803,-6.0706,-5.971,0.0,0.0,0.0,0.0,0.0,0.0,0.0,0.0,0.0,0.0,0.0,0.0,0.0,0.0,0.0,0.0,0.0,0.0,0.0,0.0,0.0,0.0,0.0,0.0,0.0,0.0,0.0,0.0,0.0,0.0,0.0,0.0,0.0,0.0,0.0,0.0,0.0,0.0,0.0,0.0,0.0,0.0,0.0,0.0,0.0,0.0,0.0,0.0,0.0,0.0,0.0,0.0,0.0,0.0,0.0,0.0,0.0,0.0,0.0,0.0,0.0,0.0,0.0,0.0,0.0,0.0,0.0,0.0,0.0,0.0,0.0,0.0,0.0,0.0,0.0,0.0,0.0,0.0,0.0,0.0,0.0,0.0,0.0,0.0,0.0,0.0,0.0,0.0,0.0,0.0,0.0,0.0,0.0,0.0,0.0,0.0,0.0,0.0,0.0,0.0,0.0,0.0,0.0,0.0,0.0,0.0,0.0,0.0,0.0,-6.4164,0.0,-6.1857,-6.1283,-6.0233,-5.9399,0.0,0.0,0.0,0.0,0.0,0.0,0.0,0.0,0.0,0.0,0.0,0.0,0.0,0.0,0.0,0.0,0.0,0.0,0.0,0.0,0.0,0.0,0.0,0.0,0.0,0.0,0.0,0.0,0.0,0.0,0.0,0.0,0.0,0.0,0.0,0.0,0.0,0.0,0.0,0.0,0.0,0.0,0.0,0.0,0.0,0.0,0.0,0.0,0.0,0.0,0.0,0.0,0.0,0.0,0.0,0.0,0.0,0.0,0.0,0.0,0.0,0.0,0.0,0.0,0.0,0.0,0.0,0.0,0.0,0.0,0.0,0.0,0.0,0.0,0.0,0.0,0.0,0.0,0.0,0.0,0.0,0.0,0.0,0.0,0.0,0.0,0.0,0.0,0.0,0.0,0.0,0.0,0.0,0.0,0.0,0.0,0.0,0.0,0.0,0.0,0.0,0.0,0.0,0.0,0.0,0.0,0.0,0.0,-6.4164,-6.2585,-6.1737,-6.1352,-6.1283,-5.9728,-5.8817,0.0,0.0,0.0,0.0,0.0,0.0,0.0,0.0,0.0,0.0,0.0,0.0,0.0,0.0,0.0,0.0,0.0,0.0,0.0,0.0,0.0,0.0,0.0,0.0,0.0,0.0,0.0,0.0,0.0,0.0,0.0,0.0,0.0,0.0,0.0,0.0,0.0,0.0,0.0,0.0,0.0,0.0,0.0,0.0,0.0,0.0,0.0,0.0,0.0,0.0,0.0,0.0,0.0,0.0,0.0,0.0,0.0,0.0,0.0,0.0,0.0,0.0,0.0,0.0,0.0,0.0,0.0,0.0,0.0,0.0,0.0,0.0,0.0,0.0,0.0,0.0,0.0,0.0,0.0,0.0,0.0,0.0,0.0,0.0,0.0,0.0,0.0,0.0,0.0,0.0,0.0,0.0,0.0,0.0,0.0,0.0,0.0,0.0,0.0,0.0,0.0,0.0,0.0,0.0,0.0,0.0,0.0,0.0,0.0,-6.2452,-6.1646,-6.1505,-6.2012,-5.9956,-5.8828,0.0,0.0,0.0,0.0,0.0,0.0,0.0,0.0,0.0,0.0,0.0,0.0,0.0,0.0,0.0,0.0,0.0,0.0,0.0,0.0,0.0,0.0,0.0,0.0,0.0,0.0,0.0,0.0,0.0,0.0,0.0,0.0,0.0,0.0,0.0,0.0,0.0,0.0,0.0,0.0,0.0,0.0,0.0,0.0,0.0,0.0,0.0,0.0,0.0,0.0,0.0,0.0,0.0,0.0,0.0,0.0,0.0,0.0,0.0,0.0,0.0,0.0,0.0,0.0,0.0,0.0,0.0,0.0,0.0,0.0,0.0,0.0,0.0,0.0,0.0,0.0,0.0,0.0,0.0,0.0,0.0,0.0,0.0,0.0,0.0,0.0,0.0,0.0,0.0,0.0,0.0,0.0,0.0,0.0,0.0,0.0,0.0,0.0,0.0,0.0,0.0,0.0,0.0,0.0,0.0,0.0,0.0,0.0,0.0,-6.4213,-6.3216,-6.2865,-6.3443,-6.1314,-5.991,-5.9233,0.0,0.0,0.0,0.0,0.0,0.0,0.0,0.0,0.0,0.0,0.0,0.0,0.0,0.0,0.0,0.0,0.0,0.0,0.0,0.0,0.0,0.0,0.0,0.0,0.0,0.0,0.0,0.0,0.0,0.0,0.0,0.0,0.0,0.0,0.0,0.0,0.0,0.0,0.0,0.0,0.0,0.0,0.0,0.0,0.0,0.0,0.0,0.0,0.0,0.0,0.0,0.0,0.0,0.0,0.0,0.0,0.0,0.0,0.0,0.0,0.0,0.0,0.0,0.0,0.0,0.0,0.0,0.0,0.0,0.0,0.0,0.0,0.0,0.0,0.0,0.0,0.0,0.0,0.0,0.0,0.0,0.0,0.0,0.0,0.0,0.0,0.0,0.0,0.0,0.0,0.0,0.0,0.0,0.0,0.0,0.0,0.0,0.0,0.0,0.0,0.0,0.0,0.0,0.0,0.0,0.0,0.0,0.0,-6.7606,-6.6148,-6.5286,-6.5131,-6.3395,-6.1716,0.0,0.0,0.0,0.0,0.0,0.0,0.0,0.0,0.0,0.0,0.0,0.0,0.0,0.0,0.0,0.0,0.0,0.0,0.0,0.0,0.0,0.0,0.0,0.0,0.0,0.0,0.0,0.0,0.0,0.0,0.0,0.0,0.0,0.0,0.0,0.0,0.0,0.0,0.0,0.0,0.0,0.0,0.0,0.0,0.0,0.0,0.0,0.0,0.0,0.0,0.0,0.0,0.0,0.0,0.0,0.0,0.0,0.0,0.0,0.0,0.0,0.0,0.0,0.0,0.0,0.0,0.0,0.0,0.0,0.0,0.0,0.0,0.0,0.0,0.0,0.0,0.0,0.0,0.0,0.0,0.0,0.0,0.0,0.0,0.0,0.0,0.0,0.0,0.0,0.0,0.0,0.0,0.0,0.0,0.0,0.0,0.0,0.0,0.0,0.0,0.0,0.0,0.0,0.0,0.0,0.0,0.0,0.0,0.0,-6.9187,-6.9551,-6.878,-6.6951,-6.4056,-6.172,0.0,0.0,0.0,0.0,0.0,0.0,0.0,0.0,0.0,0.0,0.0,0.0,0.0,0.0,0.0,0.0,0.0,0.0,0.0,0.0,0.0,0.0,0.0,0.0,0.0,0.0,0.0,0.0,0.0,0.0,0.0,0.0,0.0,0.0,0.0,0.0,0.0,0.0,0.0,0.0,0.0,0.0,0.0,0.0,0.0,0.0,0.0,0.0,0.0,0.0,0.0,0.0,0.0,0.0,0.0,0.0,0.0,0.0,0.0,0.0,0.0,0.0,0.0,0.0,0.0,0.0,0.0,0.0,0.0,0.0,0.0,0.0,0.0,0.0,0.0,0.0,0.0,0.0,0.0,0.0,0.0,0.0,0.0,0.0,0.0,0.0,0.0,0.0,0.0,0.0,0.0,0.0,0.0,0.0,0.0,0.0,0.0,0.0,0.0,0.0,0.0,0.0,0.0,0.0,0.0,0.0,0.0,0.0,-6.7007,-7.044,-7.1385,-7.1341,-7.0251,-6.6922,-6.4183,0.0,0.0,0.0,0.0,0.0,0.0,0.0,0.0,0.0,0.0,0.0,0.0,0.0,0.0,0.0,0.0,0.0,0.0,0.0,0.0,0.0,0.0,0.0,0.0,0.0,0.0,0.0,0.0,0.0,0.0,0.0,0.0,0.0,0.0,0.0,0.0,0.0,0.0,0.0,0.0,0.0,0.0,0.0,0.0,0.0,0.0,0.0,0.0,0.0,0.0,0.0,0.0,0.0,0.0,0.0,0.0,0.0,0.0,0.0,0.0,0.0,0.0,0.0,0.0,0.0,0.0,0.0,0.0,0.0,0.0,0.0,0.0,0.0,0.0,0.0,0.0,0.0,0.0,0.0,0.0,0.0,0.0,0.0,0.0,0.0,0.0,0.0,0.0,0.0,0.0,0.0,0.0,0.0,0.0,0.0,0.0,0.0,0.0,0.0,0.0,0.0,0.0,0.0,0.0,0.0,0.0,0.0,0.0,-6.7606,-7.1008,-7.2047,-7.301,-7.3883,-7.0634,-6.7617,0.0,0.0,0.0,0.0,0.0,0.0,0.0,0.0,0.0,0.0,0.0,0.0,0.0,0.0,0.0,0.0,0.0,0.0,0.0,0.0,0.0,0.0,0.0,0.0,0.0,0.0,0.0,0.0,0.0,0.0,0.0,0.0,0.0,0.0,0.0,0.0,0.0,0.0,0.0,0.0,0.0,0.0,0.0,0.0,0.0,0.0,0.0,0.0,0.0,0.0,0.0,0.0,0.0,0.0,0.0,0.0,0.0,0.0,0.0,0.0,0.0,0.0,0.0,0.0,0.0,0.0,0.0,0.0,0.0,0.0,0.0,0.0,0.0,0.0,0.0,0.0,0.0,0.0,0.0,0.0,0.0,0.0,0.0,0.0,0.0,0.0,0.0,0.0,0.0,0.0,0.0,0.0,0.0,0.0,0.0,0.0,0.0,0.0,0.0,0.0,0.0,0.0,0.0,0.0,0.0,0.0,0.0,0.0,-6.7204,-7.0088,-7.1506,-7.3061,-7.4761,-7.0943,-6.7596,0.0,0.0,0.0,0.0,0.0,0.0,0.0,0.0,0.0,0.0,0.0,0.0,0.0,0.0,0.0,0.0,0.0,0.0,0.0,0.0,0.0,0.0,0.0,0.0,0.0,0.0,0.0,0.0,0.0,0.0,0.0,0.0,0.0,0.0,0.0,0.0,0.0,0.0,0.0,0.0,0.0,0.0,0.0,0.0,0.0,0.0,0.0,0.0,-5.6639,0.0,0.0,0.0,0.0,0.0,0.0,0.0,0.0,0.0,0.0,0.0,0.0,0.0,0.0,0.0,0.0,0.0,0.0,0.0,0.0,0.0,0.0,0.0,0.0,0.0,0.0,0.0,0.0,0.0,0.0,0.0,0.0,0.0,0.0,0.0,0.0,0.0,0.0,0.0,0.0,0.0,0.0,0.0,0.0,0.0,0.0,0.0,0.0,0.0,0.0,0.0,0.0,0.0,0.0,0.0,0.0,0.0,0.0,0.0,-6.6894,-6.939,-7.1312,-7.288,-7.3919,-7.1325,-6.8838,0.0,0.0,0.0,0.0,0.0,0.0,0.0,0.0,0.0,0.0,0.0,0.0,0.0,0.0,0.0,0.0,0.0,0.0,0.0,0.0,0.0,0.0,0.0,0.0,0.0,0.0,0.0,0.0,0.0,0.0,0.0,0.0,0.0,0.0,0.0,0.0,0.0,0.0,0.0,0.0,0.0,0.0,0.0,0.0,0.0,0.0,0.0,0.0,0.0,0.0,0.0,0.0,0.0,0.0,0.0,0.0,0.0,0.0,0.0,0.0,0.0,0.0,0.0,0.0,0.0,0.0,0.0,0.0,0.0,0.0,0.0,0.0,0.0,0.0,0.0,0.0,0.0,0.0,0.0,0.0,0.0,0.0,0.0,0.0,0.0,0.0,0.0,0.0,0.0,0.0,0.0,0.0,0.0,0.0,0.0,0.0,0.0,0.0,0.0,0.0,0.0,0.0,0.0,0.0,0.0,0.0,0.0,-6.4541,-6.6521,-6.8695,-7.093,-7.2245,-7.2569,-7.118,-6.9732,-6.8063,0.0,0.0,0.0,0.0,0.0,0.0,0.0,0.0,0.0,0.0,0.0,0.0,0.0,0.0,0.0,0.0,0.0,0.0,0.0,0.0,0.0,0.0,0.0,0.0,0.0,0.0,0.0,0.0,0.0,0.0,0.0,0.0,0.0,0.0,0.0,0.0,0.0,0.0,-5.1211,-5.2717,0.0,0.0,0.0,0.0,0.0,0.0,0.0,0.0,-5.5962,0.0,0.0,0.0,0.0,0.0,0.0,0.0,0.0,0.0,0.0,0.0,0.0,0.0,0.0,0.0,0.0,0.0,0.0,0.0,0.0,0.0,0.0,0.0,0.0,0.0,0.0,0.0,0.0,0.0,0.0,0.0,0.0,0.0,0.0,0.0,0.0,0.0,0.0,0.0,0.0,0.0,0.0,0.0,0.0,0.0,0.0,0.0,0.0,0.0,0.0,0.0,0.0,0.0,0.0,0.0,0.0,-6.2493,-6.4094,-6.5889,-6.7845,-6.9459,-7.0387,-7.0681,-6.8951,-6.7295,-6.5741,0.0,0.0,0.0,0.0,0.0,0.0,0.0,0.0,0.0,0.0,0.0,0.0,0.0,0.0,0.0,0.0,0.0,0.0,0.0,0.0,0.0,0.0,0.0,0.0,0.0,0.0,0.0,0.0,0.0,0.0,0.0,0.0,0.0,0.0,0.0,0.0,0.0,0.0,0.0,-5.4342,-5.549,0.0,0.0,0.0,0.0,0.0,0.0,0.0,0.0,-5.5671,0.0,0.0,0.0,0.0,0.0,0.0,0.0,0.0,0.0,0.0,0.0,0.0,0.0,0.0,0.0,0.0,0.0,0.0,0.0,0.0,0.0,0.0,0.0,0.0,0.0,0.0,0.0,0.0,0.0,0.0,0.0,0.0,0.0,0.0,0.0,0.0,0.0,0.0,0.0,0.0,0.0,0.0,0.0,0.0,0.0,0.0,0.0,0.0,0.0,0.0,0.0,0.0,0.0,0.0,0.0,-6.0887,-6.2656,-6.453,-6.6521,-6.7972,-6.8651,-6.8543,-6.782,-6.6432,0.0,0.0,0.0,0.0,0.0,0.0,0.0,0.0,0.0,0.0,0.0,0.0,0.0,0.0,0.0,0.0,0.0,0.0,0.0,0.0,0.0,0.0,0.0,0.0,0.0,0.0,0.0,0.0,0.0,0.0,0.0,0.0,0.0,0.0,0.0,0.0,0.0,0.0,0.0,0.0,-5.5,-5.6159,-5.5731,0.0,0.0,0.0,0.0,0.0,0.0,-5.5732,-5.5296,0.0,0.0,0.0,0.0,0.0,0.0,0.0,0.0,0.0,0.0,0.0,0.0,0.0,0.0,0.0,0.0,0.0,0.0,0.0,0.0,0.0,0.0,0.0,0.0,0.0,0.0,0.0,0.0,0.0,0.0,0.0,0.0,0.0,0.0,0.0,0.0,0.0,0.0,0.0,0.0,0.0,0.0,0.0,0.0,0.0,0.0,0.0,0.0,0.0,0.0,0.0,0.0,0.0,0.0,0.0,-5.9364,-6.1274,-6.3332,-6.5431,-6.6823,-6.7237,-6.6626,-6.6711,-6.5555,0.0,0.0,0.0,0.0,0.0,0.0,0.0,0.0,0.0,0.0,0.0,0.0,0.0,0.0,0.0,0.0,0.0,0.0,0.0,0.0,0.0,0.0,0.0,0.0,0.0,0.0,0.0,0.0,0.0,0.0,0.0,0.0,0.0,0.0,0.0,0.0,0.0,0.0,0.0,0.0,0.0,-5.623,-5.5552,-5.5479,0.0,0.0,0.0,0.0,-5.5224,-5.5555,0.0,0.0,0.0,0.0,0.0,0.0,0.0,0.0,0.0,0.0,0.0,0.0,0.0,0.0,0.0,0.0,0.0,0.0,0.0,0.0,0.0,0.0,0.0,0.0,0.0,0.0,0.0,0.0,0.0,0.0,0.0,0.0,0.0,0.0,0.0,0.0,0.0,0.0,0.0,0.0,0.0,0.0,0.0,0.0,0.0,0.0,0.0,0.0,0.0,0.0,0.0,0.0,0.0,0.0,0.0,0.0,-5.9025,-6.0864,-6.2928,-6.5324,-6.6411,-6.649,-6.5694,-6.5003,-6.352,0.0,0.0,0.0,0.0,0.0,0.0,0.0,0.0,0.0,0.0,0.0,0.0,0.0,0.0,0.0,0.0,0.0,0.0,0.0,0.0,0.0,0.0,0.0,0.0,0.0,0.0,0.0,0.0,0.0,0.0,0.0,0.0,0.0,0.0,0.0,0.0,0.0,0.0,0.0,0.0,0.0,-5.5364,-5.5339,-5.5845,-5.6016,0.0,0.0,-5.4928,-5.5057,-5.6297,0.0,0.0,0.0,0.0,0.0,0.0,0.0,0.0,0.0,0.0,0.0,0.0,0.0,0.0,0.0,0.0,0.0,0.0,0.0,0.0,0.0,0.0,0.0,0.0,0.0,0.0,0.0,0.0,0.0,0.0,0.0,0.0,0.0,0.0,0.0,0.0,0.0,0.0,0.0,0.0,0.0,0.0,0.0,0.0,0.0,0.0,0.0,0.0,0.0,0.0,0.0,0.0,0.0,0.0,0.0,-5.6127,-5.764,-5.9754,-6.2055,-6.4449,-6.5003,-6.5103,-6.4708,-6.3493,-6.1938,0.0,0.0,0.0,0.0,0.0,0.0,0.0,0.0,0.0,0.0,0.0,0.0,0.0,0.0,0.0,0.0,0.0,0.0,0.0,0.0,0.0,0.0,0.0,0.0,0.0,0.0,0.0,0.0,0.0,0.0,0.0,0.0,0.0,0.0,0.0,0.0,0.0,0.0,0.0,0.0,0.0,0.0,-5.5147,-5.6042,0.0,0.0,0.0,-5.5436,-5.4981,0.0,0.0,0.0,0.0,0.0,0.0,0.0,0.0,0.0,0.0,0.0,0.0,0.0,0.0,0.0,0.0,0.0,0.0,0.0,0.0,0.0,0.0,0.0,0.0,0.0,0.0,0.0,0.0,0.0,0.0,0.0,0.0,0.0,0.0,0.0,0.0,0.0,0.0,0.0,0.0,0.0,0.0,0.0,0.0,0.0,0.0,0.0,0.0,0.0,0.0,0.0,0.0,0.0,0.0,0.0,0.0,0.0,-5.6518,-5.8739,-6.1185,-6.3761,-6.4016,-6.4079,-6.4004,-6.2363,0.0,0.0,0.0,0.0,0.0,0.0,0.0,0.0,0.0,0.0,0.0,0.0,0.0,0.0,0.0,0.0,0.0,0.0,0.0,0.0,0.0,0.0,0.0,0.0,0.0,0.0,0.0,-4.9641,0.0,0.0,0.0,0.0,0.0,0.0,0.0,0.0,0.0,0.0,0.0,0.0,0.0,0.0,-5.5246,-5.4898,-5.5945,-5.6279,0.0,0.0,-5.5486,-5.4881,-5.5637,-5.5895,0.0,0.0,0.0,0.0,0.0,0.0,0.0,0.0,0.0,0.0,0.0,0.0,0.0,0.0,0.0,0.0,0.0,0.0,0.0,0.0,0.0,0.0,0.0,0.0,0.0,0.0,0.0,0.0,0.0,0.0,0.0,0.0,0.0,0.0,0.0,0.0,0.0,0.0,0.0,0.0,0.0,0.0,0.0,0.0,0.0,0.0,0.0,0.0,0.0,0.0,0.0,0.0,0.0,0.0,-5.3962,-5.6266,-5.8097,-6.0559,-6.3653,-6.3851,-6.3915,-6.3878,-6.1657,-5.9641,0.0,0.0,0.0,0.0,0.0,0.0,0.0,0.0,0.0,0.0,0.0,0.0,0.0,0.0,0.0,0.0,0.0,0.0,0.0,0.0,0.0,0.0,0.0,0.0,0.0,0.0,0.0,0.0,0.0,0.0,0.0,0.0,0.0,0.0,0.0,0.0,0.0,0.0,0.0,0.0,0.0,-5.3817,-5.4576,-5.5379,-5.5609,0.0,0.0,-5.4764,-5.4689,-5.601,-5.6236,-5.3912,0.0,0.0,0.0,0.0,0.0,0.0,0.0,0.0,0.0,0.0,0.0,0.0,0.0,0.0,0.0,0.0,0.0,0.0,0.0,0.0,0.0,0.0,0.0,0.0,0.0,0.0,0.0,0.0,0.0,0.0,0.0,0.0,0.0,0.0,0.0,0.0,0.0,0.0,0.0,0.0,0.0,0.0,0.0,0.0,0.0,0.0,0.0,0.0,0.0,0.0,0.0,0.0,0.0,-5.4314,-5.6283,-5.8405,-6.088,-6.3557,-6.378,-6.3584,-6.3099,-6.0737,-5.8481,0.0,0.0,0.0,0.0,0.0,0.0,0.0,0.0,0.0,0.0,0.0,0.0,0.0,0.0,0.0,0.0,0.0,0.0,0.0,0.0,0.0,0.0,0.0,0.0,0.0,0.0,0.0,0.0,-5.0816,-5.0597,-5.0108,0.0,0.0,0.0,0.0,0.0,0.0,0.0,0.0,0.0,0.0,-5.4856,-5.5139,-5.582,0.0,0.0,-5.516,-5.5023,-5.4585,-5.5467,-5.5727,-5.4409,-5.3569,0.0,0.0,0.0,0.0,0.0,0.0,0.0,0.0,0.0,0.0,0.0,0.0,0.0,0.0,0.0,0.0,0.0,0.0,0.0,0.0,0.0,0.0,0.0,0.0,0.0,0.0,0.0,0.0,0.0,0.0,0.0,0.0,0.0,0.0,0.0,0.0,0.0,0.0,0.0,0.0,0.0,0.0,0.0,0.0,0.0,0.0,0.0,0.0,0.0,0.0,0.0,0.0,-5.4017,-5.5912,-5.8066,-6.0407,-6.2859,-6.2984,-6.2768,-6.2135,-5.9834,-5.7637,0.0,0.0,0.0,0.0,0.0,0.0,0.0,0.0,0.0,0.0,0.0,0.0,0.0,0.0,0.0,0.0,0.0,0.0,0.0,0.0,0.0,0.0,0.0,0.0,0.0,0.0,0.0,0.0,-5.0632,-4.9984,-4.9127,0.0,0.0,0.0,0.0,0.0,0.0,0.0,0.0,0.0,0.0,-5.4533,-5.5003,-5.5529,-5.5604,-5.5025,-5.5023,-5.489,-5.4398,-5.4845,-5.4859,-5.3908,0.0,0.0,0.0,0.0,0.0,0.0,0.0,0.0,0.0,0.0,0.0,0.0,0.0,0.0,0.0,0.0,0.0,0.0,0.0,0.0,0.0,0.0,0.0,0.0,0.0,0.0,0.0,0.0,0.0,0.0,-5.8438,0.0,0.0,0.0,0.0,0.0,0.0,0.0,0.0,0.0,0.0,0.0,0.0,0.0,0.0,0.0,0.0,0.0,0.0,0.0,0.0,0.0,0.0,-5.2642,-5.502,-5.6746,-5.8809,-6.1187,-6.1261,-6.1261,-6.115,-5.8809,-5.7178,-5.6309,0.0,0.0,0.0,0.0,0.0,0.0,0.0,0.0,0.0,0.0,0.0,0.0,0.0,0.0,0.0,0.0,0.0,0.0,0.0,0.0,0.0,0.0,0.0,0.0,0.0,0.0,-5.1705,-5.0349,-4.8974,0.0,0.0,0.0,0.0,0.0,0.0,0.0,0.0,0.0,0.0,-5.1665,-5.2229,-5.3941,-5.413,-5.4168,-5.4147,-5.4128,-5.4146,-5.4109,-5.4255,-5.3711,0.0,0.0,0.0,0.0,0.0,0.0,0.0,0.0,0.0,0.0,0.0,0.0,0.0,0.0,0.0,0.0,0.0,0.0,0.0,0.0,0.0,0.0,0.0,0.0,0.0,0.0,0.0,-6.0088,-5.9866,0.0,0.0,0.0,0.0,0.0,0.0,0.0,0.0,0.0,0.0,0.0,-5.9279,-5.8687,0.0,0.0,0.0,0.0,0.0,0.0,0.0,0.0,0.0,0.0,0.0,0.0,-5.2455,-5.4865,-5.6508,-5.8465,-6.0855,-6.1033,-6.0521,-5.9446,-5.8174,-5.6397,-5.3982,0.0,0.0,0.0,0.0,0.0,0.0,0.0,0.0,0.0,0.0,0.0,0.0,0.0,0.0,0.0,0.0,0.0,0.0,0.0,0.0,0.0,0.0,0.0,0.0,0.0,-4.983,0.0,0.0,0.0,0.0,0.0,0.0,0.0,0.0,0.0,0.0,0.0,-5.0409,-5.1462,-5.249,-5.3516,-5.4577,-5.4688,-5.4669,0.0,0.0,0.0,0.0,0.0,0.0,0.0,0.0,0.0,0.0,0.0,0.0,0.0,0.0,-5.0162,-5.0247,-5.0177,-5.0129,-5.0145,0.0,0.0,0.0,0.0,0.0,0.0,0.0,0.0,0.0,0.0,0.0,0.0,0.0,0.0,-6.0225,0.0,-6.0078,0.0,0.0,0.0,0.0,0.0,0.0,0.0,0.0,-6.0019,-6.0307,-6.0018,-5.9723,-5.9109,0.0,-5.586,-5.4539,0.0,0.0,0.0,0.0,0.0,0.0,0.0,0.0,-5.234,-5.4704,-5.6087,-5.778,-5.9788,-6.0048,-5.9575,-5.8502,-5.7751,-5.6108,-5.3496,-5.2122,-5.1323,0.0,0.0,0.0,0.0,0.0,0.0,0.0,0.0,0.0,0.0,0.0,0.0,0.0,0.0,0.0,0.0,0.0,0.0,0.0,0.0,0.0,0.0,0.0,-4.9284,0.0,0.0,0.0,0.0,0.0,0.0,0.0,0.0,0.0,-4.8674,-4.948,-5.025,-5.1001,-5.1971,-5.2902,-5.3645,0.0,0.0,0.0,0.0,0.0,0.0,0.0,-5.3553,-5.359,-5.3421,-5.329,-5.329,-5.284,-5.2447,-5.2485,0.0,0.0,-5.1806,-5.166,-5.1608,-5.1608,-5.1608,-5.1608,-5.1608,-5.1608,-5.1608,0.0,0.0,0.0,0.0,0.0,0.0,0.0,0.0,-6.0955,-6.0964,0.0,-6.01,0.0,0.0,0.0,0.0,0.0,-5.843,0.0,0.0,-6.12,-6.1546,-6.0896,-6.156,-6.0697,-5.8408,-5.75,-5.6282,-5.4695,-5.227,0.0,0.0,0.0,0.0,0.0,0.0,-5.2257,-5.4438,-5.5444,-5.6682,-5.8119,-5.8342,-5.8371,-5.8319,-5.7448,-5.6267,-5.4753,-5.383,-5.3114,-5.2342,-4.9936,0.0,0.0,0.0,0.0,0.0,0.0,0.0,0.0,0.0,0.0,0.0,0.0,0.0,0.0,0.0,0.0,0.0,0.0,0.0,0.0,-5.0804,0.0,0.0,0.0,0.0,0.0,0.0,0.0,0.0,0.0,0.0,-4.7911,-4.863,-4.9382,-5.0202,0.0,0.0,0.0,0.0,-5.2568,-5.2568,-5.2605,-5.2865,-5.3608,-5.3163,-5.2716,-5.2624,0.0,0.0,-5.3982,-5.4018,-5.4054,-5.4054,-5.3925,-5.3479,-5.2001,-5.174,-5.1758,-5.1758,-5.1777,-5.172,-5.1683,-5.1815,-5.1777,-6.4581,0.0,0.0,0.0,0.0,-6.1016,-6.1825,-6.3125,-6.3162,-6.2818,-6.2217,-6.1479,0.0,0.0,0.0,0.0,0.0,0.0,-5.9255,-5.9513,-6.104,-6.1532,-6.1215,-6.1557,-6.0957,-5.9505,-5.8313,-5.7116,-5.5871,-5.4605,-5.3234,-5.1828,0.0,0.0,0.0,0.0,-5.3093,-5.4363,-5.5609,-5.6749,-5.775,-5.7904,-5.7762,-5.7279,-5.5969,-5.5033,-5.4554,-5.331,-5.2282,-5.1488,-4.964,0.0,0.0,0.0,0.0,0.0,0.0,0.0,0.0,0.0,0.0,0.0,0.0,0.0,0.0,0.0,0.0,0.0,0.0,0.0,-4.9694,-4.901,-4.7955,0.0,0.0,0.0,0.0,0.0,0.0,0.0,0.0,0.0,-4.7748,-4.8458,-4.9259,0.0,0.0,-5.0413,-5.1268,-5.1602,-5.1751,-5.1751,-5.2234,0.0,0.0,-5.2884,-5.3312,-5.2679,-5.3293,-5.3869,-5.3869,-5.3907,-5.3889,-5.3889,-5.3851,-5.3702,-5.3312,-5.3163,-5.3163,-5.3163,-5.3163,-5.3163,-5.3163,-5.3163,-5.3126,-6.8238,-6.4824,-6.3246,-6.2768,-6.3025,-6.2732,-6.3356,-6.4567,-6.4567,-6.4273,-6.3759,-6.3027,-6.1973,-6.0685,-5.9605,0.0,0.0,0.0,-5.9845,-6.0223,-6.1056,-6.1554,-6.177,-6.1871,-6.1419,-6.0416,-5.9054,-5.7847,-5.6866,-5.5759,-5.4551,-5.3243,0.0,0.0,-5.1658,-5.2483,-5.3624,-5.5012,-5.5929,-5.6733,-5.751,-5.7631,-5.7361,-5.6649,-5.5705,-5.5126,-5.4774,-5.3613,-5.2667,-5.1939,-5.0316,-4.8697,0.0,0.0,0.0,0.0,0.0,0.0,0.0,0.0,0.0,0.0,0.0,-4.685,-4.6818,0.0,0.0,0.0,-4.8712,-4.881,-4.891,-4.8412,0.0,0.0,0.0,0.0,0.0,0.0,0.0,-4.5683,-4.6867,-4.7701,-4.7701,-4.8407,-4.9076,-4.9559,-4.9633,-4.9819,-5.0339,0.0,-5.0896,-5.0896,-5.1305,-5.1565,-5.1416,-5.1936,-5.2308,-5.2159,-5.2791,-5.3311,-5.3348,-5.3571,-5.3794,-5.3794,-5.3794,-5.3794,-5.3794,-5.3571,-5.346,-5.3757,-5.3794,-5.372,-5.3423,-5.3571,-5.372,-7.1798,-7.0036,-6.6256,-6.5044,-6.5485,-6.4714,-6.4861,-6.5558,-6.5521,-6.5448,-6.5338,-6.4567,-6.3649,-6.2597,-6.1031,0.0,-6.0395,-6.0199,-6.0551,-6.1407,-6.1317,-6.1678,-6.237,-6.237,-6.1933,-6.1022,-5.9724,-5.8555,-5.7559,-5.6101,-5.5288,-5.5062,-5.3621,-5.2867,-5.287,-5.3002,-5.4064,-5.6055,-5.6357,-5.6758,-5.7388,-5.7449,-5.7121,-5.6392,-5.627,-5.5796,-5.5007,-5.4228,-5.3537,-5.2873,-5.136,-4.9881,-4.8514,0.0,0.0,0.0,0.0,0.0,0.0,0.0,0.0,0.0,0.0,0.0,0.0,0.0,0.0,0.0,-4.9046,0.0,-4.8698,-4.8587,0.0,0.0,0.0,-4.6281,-4.6224,-4.6348,-4.6362,-4.6399,0.0,0.0,-4.7796,-4.8427,-4.8873,-4.8873,-4.8873,-4.889,-4.889,-4.9559,-4.9987,-5.0005,-5.0061,-5.0376,-5.0933,-5.0673,-5.0673,-5.1379,-5.2011,-5.2494,-5.2531,-5.3051,-5.3534,-5.3497,-5.3608,-5.3571,-5.3608,-5.294,-5.2754,-5.3423,-5.3534,-5.3348,-5.2679,-5.3014,-5.3311,-7.3744,-7.2642,-7.0513,-6.9009,-6.7981,-6.7173,-6.7283,-6.7981,-6.7393,-6.6769,-6.6145,-6.5375,-6.387,-6.1851,-6.1459,-6.0982,-6.0395,-6.0747,-6.1087,-6.1407,-6.1798,-6.2057,-6.2238,-6.2381,-6.1537,-6.0072,-5.9841,-5.8944,-5.7473,-5.7073,-5.654,-5.5934,-5.5438,-5.4664,-5.3631,-5.4687,-5.5245,-5.5256,-5.6406,-5.7082,-5.7202,-5.6683,-5.6273,-5.6091,-5.5025,-5.4054,-5.3254,-5.2543,-5.1551,-5.0227,-4.9768,-4.8839,-4.729,-4.6945,0.0,0.0,0.0,0.0,0.0,0.0,0.0,0.0,0.0,-4.5926,-4.5909,0.0,-4.8124,0.0,-4.8679,-4.8864,-4.8624,-4.8587,0.0,0.0,-4.7202,-4.687,-4.6298,-4.6776,-4.7126,-4.7126,-4.7883,-4.8382,-4.8382,-4.8567,-4.8678,-4.8696,-4.8803,-4.889,-4.8927,-4.9039,-4.9187,-4.9262,-4.9707,-4.993,-4.967,-4.9893,-5.0413,-5.1268,-5.1565,-5.1676,-5.1676,-5.1825,-5.1974,-5.1974,-5.1974,-5.1974,-5.2011,-5.1788,-5.1751,-5.1936,-5.1974,-5.1936,-5.1714,-5.1862,-5.2122,-7.4661,-7.4111,-7.2532,-7.1138,-6.9889,-6.8715,-6.8495,-6.8825,-6.8017,-6.743,-6.6953,-6.5815,-6.4541,-6.3133,-6.24,-6.1764,-6.1323,-6.1573,-6.174,-6.1777,-6.2083,-6.2158,-6.2114,-6.2195,-6.1488,-6.0158,-5.963,-5.8699,-5.746,-5.7024,-5.6661,-5.6225,-5.6429,-5.597,-5.4858,-5.5607,-5.597,-5.5982,-5.6779,-5.7188,-5.7188,-5.6391,-5.5848,-5.5486,-5.4362,-5.3189,-5.205,-5.1682,-5.0744,-4.9279,-4.917,-4.8587,-4.7408,-4.7046,-4.6557,0.0,0.0,0.0,0.0,0.0,0.0,0.0,0.0,0.0,0.0,0.0,-4.855,-4.855,-4.855,-4.8532,-4.8476,-4.8476,-4.8292,-4.785,-4.7813,-4.7629,-4.7169,-4.7574,-4.7868,-4.7868,-4.8329,-4.8587,-4.8587,-4.8587,-4.8587,-4.8587,-4.8732,-4.8875,-4.8875,-4.8892,-4.889,-4.8927,-4.9299,-4.9447,-4.8964,-4.9262,-4.9745,-5.019,-5.0599,-5.0822,-5.0859,-5.1156,-5.1379,-5.1379,-5.1379,-5.1379,-5.1379,-5.1045,-5.0822,-5.0785,-5.0525,-5.045,-5.0748,-5.1119,-5.1491,-7.4808,-7.4735,-7.3083,-7.1945,-7.1174,-6.9596,-6.8871,-6.8834,-6.799,-6.7614,-6.743,-6.6072,-6.526,-6.4888,-6.3324,-6.2552,-6.2423,-6.2324,-6.2245,-6.2185,-6.2195,-6.2114,-6.1978,-6.1906,-6.139,-6.0448,-5.9092,-5.7981,-5.7072,-5.6346,-5.6019,-5.6092,-5.6756,-5.6681,-5.6029,-5.6102,-5.65,-5.7188,-5.7188,-5.7152,-5.7043,-5.6283,-5.5486,-5.4762,-5.3856,-5.2697,-5.1212,-5.1031,-5.0351,-4.9007,-4.892,-4.8634,-4.7988,-4.7332,-4.6934,0.0,-4.632,0.0,0.0,0.0,0.0,0.0,0.0,0.0,0.0,-4.7903,-4.8419,-4.8438,-4.8419,-4.84,-4.8287,-4.8287,-4.8287,-4.8306,-4.8306,-4.8306,-4.8306,-4.8419,-4.8476,-4.8476,-4.8513,-4.855,-4.8569,-4.8569,-4.8532,-4.8569,-4.8679,-4.8751,-4.8769,-4.8857,-4.889,-4.889,-4.889,-4.8964,-4.889,-4.8927,-4.8964,-4.9002,-4.9522,-4.993,-4.9968,-5.0525,-5.1045,-5.1008,-5.0971,-5.1008,-5.1082,-5.045,-4.9968,-4.9968,-4.9447,-4.9262,-4.9819,-5.045,-5.0822,-7.4294,-7.4668,-7.2459,-7.1403,-7.1146,-6.9596,-6.8816,-6.8668,-6.7891,-6.7212,-6.6696,-6.6402,-6.5495,-6.4248,-6.3195,-6.2679,-6.2515,-6.1755,-6.1699,-6.2185,-6.2087,-6.2005,-6.1969,-6.1353,-6.024,-5.8854,-5.7902,-5.6781,-5.5438,-5.5233,-5.516,-5.522,-5.5885,-5.6138,-5.6029,0.0,0.0,0.0,-5.7188,-5.6899,-5.6247,-5.5522,-5.4725,-5.3929,-5.2516,0.0,-5.0401,-4.9727,-4.8931,-4.8046,-4.7938,0.0,0.0,0.0,0.0,0.0,0.0,0.0,0.0,0.0,0.0,0.0,-4.6608,-4.672,-4.6883,-4.7633,-4.8092,-4.8092,-4.8092,-4.8148,-4.8207,-4.8226,-4.8246,-4.8287,-4.8306,-4.8306,-4.8306,-4.8325,-4.8325,-4.8325,-4.8344,-4.8363,-4.8363,-4.8363,-4.8363,-4.8382,-4.8494,-4.8532,-4.855,-4.8732,-4.8873,-4.889,-4.889,-4.889,-4.889,-4.889,-4.889,-4.8927,-4.9002,-4.915,-4.9187,-4.9262,-4.941,-4.9447,-4.9373,-4.941,-4.941,-4.9224,-4.9187,-4.915,-4.9002,-4.8964,-4.9113,-4.9262,-4.9522,-7.3707,0.0,-7.1541,-7.0513,0.0,-6.8743,-6.8174,-6.8055,-6.7735,-6.7413,-6.7026,-6.6256,-6.5422,-6.449,-6.2927,-6.2288,-6.236,-6.1609,-6.136,-6.1497,-6.1497,-6.1045,-6.0194,-5.9796,-5.8999,-5.7768,-5.6609,-5.5704,-5.5038,-5.4919,-5.4919,-5.5025,-5.5668,-5.621,-5.6573,-5.7007,-5.7188,-5.7188,-5.7188,-5.7007,-5.6573,-5.5486,-5.4689,-5.4255,0.0,0.0,0.0,0.0,0.0,0.0,0.0,0.0,0.0,0.0,0.0,-4.73,-4.7325,-4.7163,-4.6762,-4.6726,-4.6888,-4.7211,-4.7227,-4.7288,-4.7388,-4.7773,-4.7992,-4.7992,-4.7992,-4.8032,-4.8108,-4.8128,-4.8148,-4.8151,-4.8151,-4.8151,-4.8151,-4.819,-4.8229,-4.8265,-4.8267,-4.8306,-4.8306,-4.8306,-4.8306,-4.8306,-4.8419,-4.8512,-4.8494,-4.8661,-4.8767,-4.8857,-4.8892,-4.889,-4.889,-4.889,-4.889,-4.889,-4.889,-4.889,-4.889,-4.889,-4.889,-4.889,-4.889,-4.889,-4.889,-4.889,-4.889,-4.889,-4.889,-4.889,-4.889,-4.889,-4.9002,-7.3083,-7.2349,-7.077,-6.9633,-6.8834,-6.7918,-6.7524,-6.7524,0.0,0.0,0.0,-6.5888,-6.5076,-6.4558,-6.2388,-6.1689,-6.2219,-6.1489,-6.1157,-6.1054,-6.1151,-6.0435,-5.9072,-5.8746,-5.8202,-5.7369,-5.5848,-5.5027,-5.4978,-5.4955,-5.4919,-5.5027,-5.568,-5.6391,-5.7152,-5.7188,-5.7188,-5.7188,-5.7188,-5.7152,-5.6971,-5.5631,-5.4834,-5.4689,-5.248,-5.0981,-5.0329,-4.9401,-4.8605,-4.7932,-4.7772,-4.7699,-4.7699,-4.7699,-4.7777,-4.7861,-4.7861,-4.7861,-4.7861,-4.7861,-4.7819,-4.7699,-4.7699,-4.7783,-4.7931,-4.7968,-4.7951,-4.7951,-4.7951,-4.7951,-4.7972,-4.8008,-4.7972,-4.7992,-4.7992,-4.8012,-4.8012,-4.8108,-4.8168,-4.8168,-4.819,-4.8321,-4.8524,-4.8524,-4.8507,-4.8526,-4.8713,-4.8567,-4.8512,-4.8532,-4.866,-4.8751,-4.884,-4.8855,-4.8855,-4.8873,-4.889,-4.889,-4.889,-4.889,-4.889,-4.889,-4.889,-4.889,-4.889,-4.8964,-4.9076,-4.9002,-4.8964,-4.9076,-4.9002,-4.889,-4.889,-4.889,-4.8964,-7.2606,-7.2349,-7.077,-6.9633,-6.8862,-6.8027,-6.766,-6.766,-6.7552,-6.6846,-6.5632,-6.5411,-6.4468,-6.3012,-6.1312,-6.1312,-6.2406,-6.1042,-6.0952,0.0,-6.204,-6.1851,-6.1426,-6.0086,-5.8999,-5.8166,-5.6609,-5.5522,-5.4967,-5.4907,-5.4907,-5.5003,-5.5655,-5.6391,-5.7116,-5.7188,-5.7188,-5.7188,-5.7188,-5.6862,-5.6174,-5.5341,-5.4581,-5.3856,-5.2226,-5.1249,-5.1104,-4.9691,-4.8837,-4.8728,-4.8076,-4.7699,-4.7699,-4.7735,-4.7699,-4.7699,-4.772,-4.772,-4.772,-4.772,-4.7699,-4.7699,-4.7699,-4.7699,-4.7741,-4.7741,-4.7741,-4.7741,-4.7741,-4.7783,-4.7902,-4.7959,-4.7963,-4.7972,-4.7992,-4.7992,-4.7992,-4.8012,-4.8012,-4.8012,-4.8032,-4.842,-4.9029,-4.9232,-4.9328,-4.9407,-4.9373,-4.9152,-4.8547,-4.8458,-4.8605,-4.8642,-4.8751,-4.8804,-4.8914,-4.8875,-4.9021,-4.889,-4.9002,-4.9113,-4.9113,-4.9039,-4.9002,-4.8927,-4.8927,-4.915,-4.967,-4.9336,-4.9262,-4.9596,-4.9336,-4.8964,-4.8927,-4.8964,-4.9187,-7.1982,-7.1101,-6.9926,-6.8752,-6.754,-6.6733,-6.6659,-6.699,-6.6506,-6.6459,-6.6476,-6.5228,-6.4457,-6.3943,-6.152,-6.097,-6.1871,-6.0298,-6.0065,-6.097,-6.0903,-6.0643,-6.0082,-5.888,-5.8094,-5.7659,-5.6138,-5.5414,-5.5486,-5.5486,-5.5522,-5.5595,-5.6717,-5.7297,-5.7224,-5.7623,-5.784,-5.784,-5.7406,-5.7007,-5.6645,-5.5884,-5.5124,-5.4363,-5.277,-5.1719,-5.1285,-5.0162,-4.9546,-4.9546,-4.9184,-4.8786,-4.8366,-4.833,-4.833,-4.833,-4.833,-4.833,-4.833,-4.7932,-4.7699,-4.7699,-4.7699,-4.7699,-4.7699,-4.7699,-4.7699,-4.7699,-4.7699,-4.7756,-4.7798,-4.8197,-4.8291,-4.7881,-4.8208,-4.8281,-4.7938,-4.7907,-4.7947,-4.7984,-4.845,-4.8932,-4.9338,-4.9838,-5.0191,-5.0215,-4.9921,-4.928,-4.8547,-4.8863,-4.9214,-4.9289,-4.9362,-4.9472,-4.9525,-4.9969,-5.0005,-4.9633,-4.9968,-5.019,-5.019,-4.993,-4.9596,-4.9522,-4.9224,-4.9076,-4.9447,-4.9559,-4.9559,-4.9336,-4.9633,-4.941,-4.9113,-4.9506,-5.0101,-7.1578,-7.0036,-6.9229,-6.7871,-6.6219,-6.5778,-6.5925,-6.6402,-6.5668,-6.6109,-6.699,-6.5044,-6.4237,-6.4163,-6.1594,-6.0787,-6.1189,-5.9957,-5.9798,-6.0514,-6.0278,-5.9874,-5.9339,-5.8159,-5.7601,-5.7565,-5.6224,-5.5728,-5.6235,-5.6296,-5.638,-5.6645,-5.7985,-5.8347,-5.7768,-5.8166,-5.842,-5.8347,-5.7623,-5.7188,-5.7152,-5.6391,-5.5631,-5.487,-5.353,-5.2408,-5.1574,-5.0778,-5.0365,-5.0365,-5.022,-4.98,-4.922,-4.8981,-4.8873,-4.8873,-4.8873,-4.8981,-4.9148,-4.8605,-4.8242,-4.8242,-4.8242,-4.8242,-4.8242,-4.8242,-4.817,-4.8025,-4.8025,-4.8061,-4.8351,-4.8786,-4.8931,-4.8351,-4.8583,-4.8641,-4.8098,-4.8052,-4.8151,-4.8245,-4.9008,-4.9642,-4.9976,-5.0554,-5.0872,-5.0692,-5.0105,-4.9373,-4.8953,-4.9322,-4.9785,-5.0304,-5.0361,-5.0287,-5.0359,-5.0841,-5.1008,-5.045,-5.0896,-5.1156,-5.1156,-5.0748,-5.0302,-5.0116,-4.9633,-4.9336,-4.9262,-4.9447,-4.9596,-4.9373,-4.9522,-4.9522,-4.9076,-4.9878,-5.0731,-7.1541,-7.0073,-6.9229,-6.754,-6.5558,-6.6035,-6.6329,-6.6366,-6.5632,-6.5778,-6.6439,-6.4824,-6.3282,-6.1924,-6.0896,-6.0823,-6.1423,-6.0652,-6.0946,-6.2054,-6.1565,-6.1525,-6.1615,-5.9619,-5.8878,-5.9241,-5.7897,-5.7132,-5.7177,-5.7241,-5.7568,-5.8202,-5.9072,-5.9434,-5.9289,-5.8746,-5.842,-5.8383,-5.7623,-5.7188,-5.7152,-5.6391,-5.5631,-5.4907,-5.4037,-5.3204,-5.2371,-5.1611,-5.1176,-5.114,-5.0546,-5.0112,-4.9945,-4.9329,-4.8909,-4.8945,-4.8909,-4.922,-4.9894,-4.9908,-4.98,-4.9894,-4.9822,-4.9785,-4.9822,-4.9858,-4.9546,-4.9003,-4.88,-4.9075,-4.9764,-4.9908,-4.9908,-4.9677,-4.9329,-4.8837,-4.88,-4.8822,-4.8786,-4.8822,-4.9661,-5.0474,-5.1113,-5.1532,-5.149,-5.0986,-5.0362,-4.9814,-4.9632,-4.9801,-5.043,-5.1486,-5.1545,-5.1157,-5.1158,-5.125,-5.1491,-5.1342,-5.1342,-5.1565,-5.1639,-5.1454,-5.1082,-5.045,-5.0042,-4.9893,-4.967,-4.9596,-4.9336,-4.9522,-4.941,-4.9002,-4.8984,-4.9619,-5.0232,-7.1284,-6.9412,-6.9045,-6.7247,-6.4787,-6.442,-6.4897,-6.5668,-6.4934,-6.5301,-6.6145,-6.4273,-6.2952,-6.2218,-6.097,-6.0346,-6.0162,-5.9845,-6.0285,-6.1239,-6.1348,-6.1565,-6.166,-6.073,-6.0096,-5.9841,-5.8749,-5.8419,-5.8682,-5.8704,-5.8616,-5.8492,-5.9216,-5.9615,-5.9579,-5.9289,-5.9325,-5.976,-5.8565,-5.7913,-5.7768,-5.6645,-5.5414,-5.4291,-5.3856,-5.3313,-5.2552,-5.2154,-5.2009,-5.1973,-5.1683,-5.1307,-5.0814,-5.0488,-5.0307,-5.0307,-5.0307,-5.0452,-5.0778,-5.0365,-5.0112,-5.0112,-5.0112,-5.0112,-5.0112,-5.0112,-5.0126,-5.0271,-4.9872,-4.9764,-5.009,-5.051,-5.0619,-5.0234,-5.0198,-5.0126,-4.9655,-4.9619,-4.9641,-4.9742,-5.0504,-5.1216,-5.1709,-5.2254,-5.2265,-5.1683,-5.1189,-5.0842,-5.0593,-5.0892,-5.1523,-5.225,-5.2548,-5.2493,-5.2178,-5.2531,-5.2531,-5.2308,-5.2531,-5.2791,-5.2717,-5.2345,-5.1825,-5.1008,-5.0525,-5.0005,-4.9373,-4.9633,-4.967,-4.9633,-4.9281,-4.8873,-4.8857,-4.9472,-5.0232,-7.1167,-6.9392,-6.8365,-6.6329,-6.3796,-6.3576,-6.42,-6.5191,-6.4897,-6.5301,-6.5852,-6.3796,-6.2548,-6.1998,-6.0676,-5.9735,-5.9258,-5.9184,-5.9625,-6.0395,-6.0884,-6.1226,-6.1384,-6.0845,-6.0405,-5.993,-5.8981,-5.875,-5.9233,-5.931,-5.9015,-5.8652,-5.9269,-5.9667,-5.9631,-5.9486,-5.9595,-6.003,-5.8989,-5.8275,-5.7949,-5.6935,-5.5595,-5.4182,-5.382,-5.3313,-5.2552,-5.248,-5.248,-5.248,-5.248,-5.2226,-5.1647,-5.143,-5.1307,-5.1307,-5.1307,-5.1416,-5.1574,-5.1067,-5.0741,-5.0778,-5.0741,-5.0764,-5.0764,-5.0741,-5.0995,-5.1466,-5.1067,-5.0778,-5.0814,-5.1285,-5.1321,-5.085,-5.1162,-5.1076,-5.0554,-5.0504,-5.057,-5.0707,-5.1435,-5.2038,-5.2233,-5.2663,-5.2794,-5.2123,-5.1961,-5.1871,-5.1517,-5.1853,-5.2395,-5.2808,-5.3365,-5.3497,-5.3088,-5.3274,-5.3423,-5.3311,-5.3385,-5.3645,-5.3794,-5.3237,-5.2679,-5.1862,-5.1082,-5.0284,-4.9672,-4.9746,-4.967,-4.915,-4.889,-4.8873,-4.8857,-4.9378,-4.9823,-7.1299,-7.0121,-6.6853,-6.453,-6.2964,-6.4457,-6.5191,-6.5411,-6.6035,-6.6035,-6.5364,-6.3675,-6.1998,-6.07,-5.9856,-5.9281,-5.9184,-5.9184,-5.9588,-6.0309,-6.0432,-6.086,-6.1423,-5.9908,-5.9505,-5.9932,-5.8761,-5.8043,-5.8055,-5.8469,-5.8598,-5.866,-5.9325,-5.9761,-5.9652,-5.9034,-5.8707,-5.8936,-5.8616,-5.8094,-5.7406,-5.7224,-5.6247,-5.487,-5.4074,-5.3313,-5.2589,-5.248,-5.248,-5.248,-5.248,-5.2444,-5.2371,-5.1719,-5.1357,-5.1321,-5.1321,-5.1647,-5.2263,-5.2299,-5.2263,-5.2299,-5.219,-5.2335,-5.2154,-5.2154,-5.219,-5.2408,-5.2263,-5.219,-5.219,-5.2213,-5.2322,-5.2213,-5.1796,-5.155,-5.1464,-5.1457,-5.1544,-5.1639,-5.2272,-5.2782,-5.3036,-5.3045,-5.2773,-5.2286,-5.205,-5.2034,-5.2095,-5.2217,-5.2668,-5.3228,-5.3622,-5.3775,-5.372,-5.372,-5.3757,-5.3645,-5.3608,-5.3794,-5.3794,-5.3683,-5.32,-5.2679,-5.1899,-5.1046,-5.0175,-4.9544,-4.9189,-4.8873,-4.889,-4.8873,-4.9117,-4.893,-4.9357,-7.0469,-6.801,-6.4988,-6.3649,-6.3723,-6.431,-6.5118,-6.6098,-6.6574,-6.6909,-6.6713,-6.4979,-6.3756,-6.309,-6.0563,-5.9076,-5.851,-5.8927,-5.9368,-5.9722,-6.0162,-6.0309,-6.0052,-5.9894,-5.9724,-5.9467,-5.899,-5.865,-5.8628,-5.9187,-5.9222,-5.8821,-5.9003,-5.9149,-5.9113,-5.8894,-5.9172,-5.9906,-5.9092,-5.8569,-5.8492,-5.679,-5.545,-5.4907,-5.411,-5.3313,-5.2516,-5.248,-5.248,-5.248,-5.248,-5.248,-5.248,-5.2226,-5.2082,-5.2045,-5.2045,-5.219,-5.2444,-5.248,-5.248,-5.248,-5.248,-5.248,-5.248,-5.248,-5.248,-5.248,-5.248,-5.248,-5.2503,-5.2549,-5.2559,-5.2545,-5.2453,-5.2302,-5.2316,-5.228,-5.228,-5.2404,-5.2769,-5.306,-5.3182,-5.3182,-5.3036,-5.2837,-5.2747,-5.2768,-5.2794,-5.2876,-5.3088,-5.3467,-5.3676,-5.3754,-5.3812,-5.3794,-5.3794,-5.3794,-5.3794,-5.3794,-5.3794,-5.3794,-5.3423,-5.2902,-5.2271,-5.1472,-5.0472,-4.9509,-4.908,-4.8873,-4.8873,-4.9043,-4.9507,-4.9248,-4.9527,-6.9396,-6.6605,-6.4623,-6.4033,-6.4365,-6.4881,-6.5729,-6.6761,-6.7197,-6.7592,-6.7395,-6.5649,-6.4665,-6.401,-6.1389,-5.9716,-5.8983,-5.9003,-5.892,-5.897,-5.9766,-5.9793,-5.9391,-5.9758,-5.9722,-5.9221,-5.8914,-5.8794,-5.8736,-5.9067,-5.8981,-5.847,-5.847,-5.847,-5.847,-5.847,-5.9114,-5.9914,-5.9463,-5.9412,-5.9673,-5.7785,-5.6236,-5.5632,-5.4665,-5.3614,-5.2552,-5.248,-5.248,-5.248,-5.248,-5.248,-5.248,-5.248,-5.248,-5.248,-5.248,-5.248,-5.248,-5.248,-5.248,-5.248,-5.248,-5.248,-5.248,-5.248,-5.248,-5.248,-5.2526,-5.2526,-5.2526,-5.2604,-5.2649,-5.2627,-5.2739,-5.2828,-5.2806,-5.2769,-5.2813,-5.2879,-5.2959,-5.306,-5.3146,-5.3146,-5.3146,-5.3203,-5.3203,-5.3209,-5.3235,-5.3339,-5.338,-5.3558,-5.3657,-5.3716,-5.3774,-5.3793,-5.3794,-5.3794,-5.3794,-5.3794,-5.3775,-5.3775,-5.3626,-5.3125,-5.2438,-5.164,-5.0712,-4.9694,-4.923,-4.8986,-4.8859,-4.8954,-4.9287,-4.9509,-4.9843,-6.8106,-6.6336,-6.6049,-6.5436,-6.5139,-6.6341,-6.7131,-6.7343,-6.8023,-6.7898,-6.7192,-6.5543,-6.451,-6.3498,-6.1974,-6.106,-6.0757,-5.9471,-5.8674,-5.8652,-5.9257,-5.9439,-5.9121,-5.9171,-5.9184,-5.9038,-5.84,-5.8033,-5.8084,-5.81,-5.7956,-5.7883,-5.792,-5.7956,-5.7847,-5.7956,-5.8286,-5.9152,-5.9602,-6.0245,-6.0974,-5.9928,-5.8603,-5.7267,-5.5716,-5.4179,-5.2648,-5.2516,-5.248,-5.248,-5.248,-5.248,-5.248,-5.248,-5.248,-5.248,-5.248,-5.248,-5.248,-5.248,-5.248,-5.248,-5.248,-5.248,-5.248,-5.248,-5.248,-5.2503,-5.2536,-5.2581,-5.2549,-5.2686,-5.2717,-5.2572,-5.282,-5.2915,-5.293,-5.3039,-5.3203,-5.3161,-5.3082,-5.306,-5.3124,-5.3124,-5.3103,-5.3167,-5.3203,-5.3203,-5.3209,-5.3334,-5.34,-5.342,-5.3541,-5.3696,-5.3735,-5.3754,-5.3793,-5.3794,-5.3794,-5.3812,-5.3793,-5.3793,-5.3754,-5.3309,-5.2658,-5.1898,-5.1287,-5.0305,-4.9695,-4.9397,-4.9177,-4.9048,-4.9362,-4.9732,-5.012,-6.8672,-6.6593,-6.6343,-6.6097,-6.5895,-6.69,-6.7598,-6.8034,-6.7989,-6.7724,-6.7224,-6.5923,-6.5127,-6.4524,-6.3035,-6.2309,-6.2337,-6.1106,-6.0099,-5.9467,-5.8961,-5.8718,-5.8629,-5.847,-5.8364,-5.8364,-5.8143,-5.7997,-5.7997,-5.795,-5.795,-5.795,-5.7914,-5.795,-5.7927,-5.7987,-5.8527,-5.964,-5.9481,-5.9907,-6.0865,-5.9333,-5.813,-5.7462,-5.598,-5.461,-5.3568,-5.2862,-5.2516,-5.248,-5.248,-5.248,-5.248,-5.248,-5.248,-5.248,-5.248,-5.248,-5.248,-5.248,-5.248,-5.248,-5.248,-5.248,-5.248,-5.248,-5.248,-5.248,-5.2526,-5.2526,-5.2526,-5.2686,-5.2761,-5.2694,-5.2872,-5.3039,-5.3039,-5.3082,-5.3023,-5.306,-5.3039,-5.306,-5.3146,-5.3124,-5.3124,-5.3167,-5.3203,-5.3203,-5.3188,-5.3251,-5.3355,-5.342,-5.3541,-5.3639,-5.3735,-5.3774,-5.3775,-5.3794,-5.3794,-5.3812,-5.3793,-5.3735,-5.3716,-5.3472,-5.2821,-5.2285,-5.1657,-5.1083,-5.0472,-4.9898,-4.9676,-4.9658,-4.9769,-5.0045,-5.0413,-6.9077,-6.7379,-6.7196,-6.7069,-6.7058,-6.78,-6.8391,-6.8734,-6.8354,-6.8025,-6.7567,-6.6554,-6.5848,-6.5339,-6.4019,-6.3513,-6.346,-6.2573,-6.1739,-6.0899,-5.9489,-5.8872,-5.8688,-5.8221,-5.7997,-5.7997,-5.7997,-5.7997,-5.7997,-5.7997,-5.7997,-5.7997,-5.7997,-5.7997,-5.7997,-5.8033,-5.8647,-5.9602,-5.9676,-6.014,-6.0822,-5.9883,-5.8908,-5.8409,-5.6742,-5.5368,-5.4447,-5.329,-5.2595,-5.2549,-5.2503,-5.248,-5.248,-5.248,-5.248,-5.248,-5.2526,-5.2513,-5.2549,-5.2549,-5.2549,-5.2549,-5.2503,-5.248,-5.248,-5.248,-5.2503,-5.2549,-5.2559,-5.2618,-5.264,-5.2775,-5.285,-5.2872,-5.3017,-5.3103,-5.3182,-5.3124,-5.3082,-5.3082,-5.3082,-5.3103,-5.3182,-5.3203,-5.3203,-5.3203,-5.3203,-5.3203,-5.3188,-5.323,-5.3334,-5.342,-5.3558,-5.3657,-5.3735,-5.3793,-5.3794,-5.3794,-5.3794,-5.3775,-5.3793,-5.3716,-5.3676,-5.358,-5.3134,-5.2766,-5.2195,-5.1916,-5.1435,-5.088,-5.0083,-4.988,-4.9861,-5.0228,-5.0632,-6.934,-6.8527,-6.8429,-6.8294,-6.8291,-6.9001,-6.9277,-6.9353,-6.9117,-6.8549,-6.7819,-6.6962,-6.6249,-6.5574,-6.4689,-6.435,-6.4274,-6.3613,-6.3086,-6.2401,-6.1048,-6.0008,-5.9376,-5.8487,-5.8042,-5.7997,-5.7997,-5.7997,-5.7997,-5.7997,-5.7997,-5.7997,-5.7997,-5.7997,-5.7997,-5.7997,-5.8437,-5.9258,-5.9955,-6.0725,-6.1496,-6.1459,-6.1031,-6.0103,-5.7907,-5.6177,-5.5099,-5.3667,-5.2739,-5.2649,-5.2536,-5.2526,-5.2503,-5.2503,-5.2503,-5.2526,-5.2581,-5.259,-5.259,-5.2627,-5.259,-5.2604,-5.2549,-5.248,-5.2503,-5.2526,-5.2549,-5.2568,-5.2694,-5.2761,-5.2783,-5.2893,-5.2959,-5.3039,-5.3103,-5.3203,-5.3203,-5.3203,-5.3167,-5.3167,-5.3203,-5.3203,-5.3203,-5.3203,-5.3203,-5.3203,-5.3203,-5.3203,-5.3225,-5.323,-5.3277,-5.338,-5.3538,-5.3657,-5.3754,-5.3793,-5.3794,-5.3794,-5.3794,-5.3793,-5.3754,-5.3696,-5.3598,-5.3521,-5.3467,-5.3099,-5.286,-5.2601,-5.1842,-5.0898,-5.0324,-4.9972,-5.0026,-5.0358,-5.0907,-7.0459,-6.8679,-6.9228,-6.9095,-6.8601,-6.928,-6.9579,-6.9443,-6.8816,-6.8193,-6.7309,-6.6424,-6.5727,-6.4898,-6.4728,-6.4577,-6.4464,-6.4218,-6.3727,-6.3123,-6.2412,-6.1029,-5.9686,-5.8681,-5.8156,-5.802,-5.7997,-5.7997,-5.7997,-5.7997,-5.7997,-5.7997,-5.7997,-5.7997,-5.7997,-5.7997,-5.8437,-5.9184,-5.9955,-6.075,-6.141,-6.1557,-6.119,-6.0298,-5.8574,-5.6901,-5.5522,-5.3859,-5.2908,-5.2761,-5.2649,-5.2627,-5.2672,-5.2627,-5.2604,-5.2694,-5.2717,-5.268,-5.2635,-5.2613,-5.2613,-5.259,-5.2572,-5.2526,-5.2581,-5.2581,-5.2604,-5.2613,-5.2739,-5.2806,-5.2828,-5.2915,-5.3039,-5.3124,-5.3167,-5.3203,-5.3203,-5.3203,-5.3203,-5.3203,-5.3203,-5.3203,-5.3203,-5.3203,-5.3203,-5.3203,-5.3203,-5.3203,-5.3225,-5.3246,-5.3272,-5.34,-5.3521,-5.3657,-5.3735,-5.3793,-5.3794,-5.3794,-5.3812,-5.3793,-5.3716,-5.3637,-5.3481,-5.338,-5.3501,-5.3284,-5.3358,-5.3284,-5.2195,-5.1213,-5.0972,-5.0805,-5.0417,-5.0509,-5.1207,-7.1124,-6.9171,-6.9664,-6.9588,-6.9152,-6.9529,-6.9679,-6.9544,-6.9069,-6.8181,-6.72,-6.6654,-6.571,-6.4709,-6.4708,-6.469,-6.4615,-6.4558,-6.4257,-6.3728,-6.2782,-6.133,-5.9863,-5.8984,-5.8577,-5.802,-5.7997,-5.7997,-5.7997,-5.7997,-5.7997,-5.7997,-5.7997,-5.7997,-5.7997,-5.7997,-5.8217,-5.8767,-5.9465,-6.0162,-6.0566,-6.0933,-6.0896,-6.0162,-5.8804,-5.7152,-5.528,-5.4114,-5.3383,-5.2937,-5.2739,-5.2739,-5.2783,-5.2739,-5.2739,-5.2806,-5.285,-5.285,-5.2806,-5.2783,-5.2783,-5.2761,-5.2708,-5.2649,-5.2694,-5.2694,-5.2717,-5.2806,-5.285,-5.293,-5.2974,-5.3039,-5.3103,-5.3167,-5.3203,-5.3203,-5.3203,-5.3203,-5.3203,-5.3203,-5.3203,-5.3203,-5.3203,-5.3203,-5.3203,-5.3203,-5.3203,-5.3203,-5.3203,-5.3225,-5.323,-5.3359,-5.3481,-5.3617,-5.3716,-5.3774,-5.3775,-5.3794,-5.3794,-5.3793,-5.3827,-5.3691,-5.3558,-5.3461,-5.3558,-5.3598,-5.3598,-5.3526,-5.2993,-5.2271,-5.1974,-5.151,-5.1065,-5.0954,-5.1636,-7.1237,-6.9664,-6.9702,-6.974,-6.9683,-6.972,-6.9738,-6.9699,-6.9602,-6.8731,-6.7523,-6.726,-6.6276,-6.4895,-6.4893,-6.4835,-6.4725,-6.4689,-6.4633,-6.3936,-6.2786,-6.1125,-6.02,-5.9514,-5.8917,-5.8215,-5.8065,-5.8065,-5.8065,-5.8006,-5.7997,-5.8033,-5.807,-5.807,-5.8107,-5.8107,-5.8107,-5.8217,-5.8927,-5.9368,-5.9648,-6.0162,-6.0382,-5.9942,-5.8584,-5.6822,-5.5244,-5.4378,-5.3997,-5.3178,-5.2937,-5.2864,-5.2828,-5.2828,-5.2828,-5.2872,-5.2974,-5.298,-5.298,-5.2959,-5.3017,-5.2974,-5.285,-5.2806,-5.2806,-5.2828,-5.285,-5.2937,-5.298,-5.306,-5.3124,-5.3203,-5.3203,-5.3203,-5.3203,-5.3203,-5.3203,-5.3203,-5.3203,-5.3203,-5.3203,-5.3203,-5.3203,-5.3203,-5.3203,-5.3203,-5.3203,-5.3203,-5.3203,-5.3225,-5.323,-5.3318,-5.342,-5.3558,-5.3657,-5.3754,-5.3756,-5.3794,-5.3794,-5.3849,-5.4051,-5.3936,-5.3711,-5.3617,-5.3657,-5.3657,-5.3694,-5.353,-5.331,-5.2884,-5.2308,-5.1955,-5.1621,-5.1788,-5.2287,-7.0043,-6.7996,-6.8603,-6.8868,-6.8982,-6.9569,-6.9872,-6.9815,-6.9834,-6.9209,-6.8319,-6.7656,-6.6747,-6.5724,-6.5212,-6.4871,-6.4835,-6.4705,-6.467,-6.4275,-6.2163,-6.1394,-6.086,-5.999,-5.8983,-5.8588,-5.8356,-5.8253,-5.8246,-5.8207,-5.7997,-5.813,-5.868,-5.8657,-5.8217,-5.8657,-5.8621,-5.8253,-5.8804,-5.9111,-5.9258,-5.9832,-6.0015,-5.9404,-5.7997,-5.6638,-5.55,-5.473,-5.4598,-5.4569,-5.3807,-5.32,-5.3243,-5.309,-5.3127,-5.3207,-5.3176,-5.314,-5.3039,-5.3112,-5.3017,-5.3017,-5.293,-5.2828,-5.2974,-5.2937,-5.2959,-5.3039,-5.3103,-5.3182,-5.3203,-5.3203,-5.3203,-5.3203,-5.3203,-5.3203,-5.3203,-5.3203,-5.3203,-5.3203,-5.3203,-5.3203,-5.3203,-5.3203,-5.3203,-5.3203,-5.324,-5.3203,-5.3277,-5.3371,-5.3582,-5.3834,-5.3699,-5.3911,-5.3953,-5.4051,-5.409,-5.424,-5.4277,-5.4351,-5.4553,-5.4274,-5.4049,-5.3864,-5.3735,-5.3735,-5.3716,-5.3717,-5.3552,-5.3051,-5.2679,-5.2512,-5.2438,-5.2623,-5.2753,-6.9854,-6.8072,-6.8413,-6.8375,-6.8186,-6.8906,-6.9285,-6.9361,-6.974,-6.9399,-6.8641,-6.811,-6.7276,-6.6101,-6.5646,-6.5305,-6.4833,-6.4381,-6.4403,-6.4046,-6.2233,-6.1407,-6.1693,-6.0699,-5.9739,-5.9367,-5.8746,-5.8699,-5.8974,-5.8998,-5.8903,-5.8841,-5.9555,-5.9692,-5.9098,-5.9221,-5.8964,-5.8621,-5.8547,-5.8657,-5.8767,-5.9024,-5.9171,-5.8694,-5.7776,-5.6969,-5.6198,-5.5794,-5.5574,-5.539,-5.4723,-5.4224,-5.4194,-5.3952,-5.3879,-5.4194,-5.3922,-5.3754,-5.3674,-5.3653,-5.3506,-5.314,-5.3017,-5.3039,-5.3082,-5.3103,-5.3082,-5.3103,-5.3146,-5.3203,-5.3203,-5.3203,-5.3203,-5.3203,-5.3203,-5.3203,-5.3203,-5.3203,-5.3203,-5.3203,-5.3203,-5.3203,-5.3203,-5.3277,-5.3277,-5.3314,-5.3885,-5.3922,-5.4127,-5.4259,-5.458,-5.4723,-5.4404,-5.432,-5.4343,-5.4402,-5.4518,-5.476,-5.5094,-5.528,-5.5558,-5.5038,-5.4424,-5.4238,-5.409,-5.3793,-5.3737,-5.3738,-5.3757,-5.3497,-5.3274,-5.32,-5.3144,-5.3218,-5.331,-6.9854,-6.8224,-6.8337,-6.7958,-6.7428,-6.8186,-6.8641,-6.8754,-6.9512,-6.9512,-6.8868,-6.8679,-6.7693,-6.6556,-6.6139,-6.5609,-6.4737,-6.434,-6.4398,-6.4474,-6.2473,-6.2153,-6.2365,-6.1747,-6.1186,-6.075,-6.0119,-6.0095,-6.0431,-6.0422,-6.0469,-6.0352,-6.0609,-6.0776,-6.0478,-5.9979,-5.9588,-5.9391,-5.8951,-5.8694,-5.8657,-5.8694,-5.8657,-5.8364,-5.829,-5.7776,-5.7116,-5.6712,-5.6528,-5.5978,-5.5831,-5.5831,-5.5721,-5.5133,-5.484,-5.55,-5.4876,-5.462,-5.4509,-5.4378,-5.4047,-5.3408,-5.3203,-5.3167,-5.3167,-5.3167,-5.3203,-5.3203,-5.3203,-5.3203,-5.3203,-5.3203,-5.3203,-5.3203,-5.3203,-5.3203,-5.3203,-5.3203,-5.3203,-5.3203,-5.3203,-5.324,-5.3424,-5.3592,-5.3497,-5.3628,-5.4216,-5.4641,-5.4868,-5.5095,-5.538,-5.5465,-5.5147,-5.5121,-5.5181,-5.5164,-5.5223,-5.5391,-5.58,-5.6134,-5.6357,-5.58,-5.5186,-5.4666,-5.4406,-5.4072,-5.3812,-5.3794,-5.3794,-5.3794,-5.372,-5.3534,-5.3608,-5.3794,-5.3775,-6.8679,-6.6594,-6.7276,-6.7087,-6.6632,-6.7921,-6.8527,-6.8754,-6.9437,-6.9816,-6.9588,-6.8944,-6.8148,-6.7162,-6.6367,-6.5305,-6.4434,-6.4244,-6.4661,-6.4661,-6.3035,-6.2769,-6.3699,-6.2758,-6.2705,-6.3538,-6.288,-6.2368,-6.2326,-6.2255,-6.2109,-6.2612,-6.2242,-6.1814,-6.1661,-6.1334,-6.07,-6.0236,-5.9869,-5.9758,-5.9758,-5.9722,-5.9428,-5.8988,-5.8877,-5.8437,-5.7776,-5.7189,-5.7042,-5.7483,-5.6969,-5.7005,-5.7042,-5.6161,-5.5684,-5.5684,-5.5596,-5.539,-5.5354,-5.484,-5.4473,-5.4069,-5.3665,-5.3298,-5.324,-5.3203,-5.3203,-5.3203,-5.3203,-5.3203,-5.3203,-5.3203,-5.3203,-5.3203,-5.3203,-5.324,-5.324,-5.3277,-5.3387,-5.3534,-5.346,-5.3555,-5.3922,-5.4252,-5.4384,-5.4604,-5.514,-5.5499,-5.5653,-5.5807,-5.5923,-5.5955,-5.5875,-5.594,-5.6077,-5.6077,-5.6097,-5.6134,-5.6432,-5.6803,-5.6878,-5.6506,-5.6023,-5.5614,-5.4834,-5.4109,-5.3943,-5.3905,-5.3794,-5.3794,-5.3794,-5.3794,-5.3794,-5.3794,-5.3794,-6.8679,-6.6859,-6.7238,-6.6632,-6.5836,-6.6783,-6.7579,-6.8072,-6.8868,-6.9475,-6.9664,-6.9399,-6.8527,-6.7579,-6.7011,-6.5836,-6.4699,-6.413,-6.4737,-6.485,-6.3562,-6.3296,-6.4661,-6.3547,-6.351,-6.4098,-6.4312,-6.4257,-6.3898,-6.3236,-6.3263,-6.3152,-6.3035,-6.2948,-6.2563,-6.2029,-6.1568,-6.1055,-6.0676,-6.0456,-6.0456,-6.0456,-6.0015,-5.9441,-5.9184,-5.8767,-5.8107,-5.7703,-5.7593,-5.7813,-5.7629,-5.7666,-5.7629,-5.7373,-5.6785,-5.6712,-5.6418,-5.6198,-5.6198,-5.5794,-5.5537,-5.4987,-5.4289,-5.3885,-5.3702,-5.3518,-5.3203,-5.3203,-5.3203,-5.3203,-5.3203,-5.3203,-5.3203,-5.3203,-5.3203,-5.3445,-5.3702,-5.3812,-5.4032,-5.4179,-5.4179,-5.4399,-5.484,-5.5119,-5.5287,-5.564,-5.6066,-5.6337,-5.6498,-5.6688,-5.6842,-5.689,-5.6862,-5.6648,-5.6783,-5.6878,-5.6915,-5.6952,-5.7138,-5.7509,-5.7546,-5.7249,-5.6952,-5.6617,-5.5689,-5.4648,-5.4277,-5.4277,-5.4054,-5.3831,-5.3794,-5.3794,-5.3794,-5.3794,-5.3794,-6.8906,-6.739,-6.739,-6.6442,-6.5192,-6.576,-6.6518,-6.72,-6.7996,-6.8716,-6.9323,-6.9247,-6.8413,-6.7428,-6.6897,-6.6177,-6.4699,-6.413,-6.4926,-6.5116,-6.4055,-6.381,-6.4547,-6.4396,-6.4092,-6.4643,-6.4929,-6.5611,-6.5028,-6.4407,-6.3917,-6.4041,-6.4316,-6.4043,-6.3534,-6.2808,-6.2251,-6.1776,-6.13,-6.0933,-6.108,-6.0933,-6.0639,-5.9918,-5.9771,-5.9318,-5.8474,-5.829,-5.8107,-5.8033,-5.7923,-5.796,-5.796,-5.796,-5.796,-5.7886,-5.7373,-5.7116,-5.7005,-5.6748,-5.6308,-5.5831,-5.4913,-5.4509,-5.4179,-5.3665,-5.3203,-5.3203,-5.3203,-5.3203,-5.3203,-5.3203,-5.3314,-5.3497,-5.3534,-5.3739,-5.4363,-5.473,-5.506,-5.5133,-5.5023,-5.5244,-5.5721,-5.6007,-5.6162,-5.6684,-5.7111,-5.7257,-5.7454,-5.7814,-5.7968,-5.8032,-5.7946,-5.7468,-5.7472,-5.7658,-5.7695,-5.7769,-5.7918,-5.8215,-5.8215,-5.8103,-5.7806,-5.7435,-5.6655,-5.5726,-5.5206,-5.4574,-5.4277,-5.4017,-5.3905,-5.3794,-5.3794,-5.3794,-5.3794,-6.8906,-6.739,-6.739,-6.6442,-6.5154,-6.5722,-6.6139,-6.6404,-6.72,-6.7579,-6.7921,-6.7731,-6.7276,-6.6518,-6.6291,-6.5305,-6.4585,-6.4964,-6.5267,-6.5116,-6.4623,-6.4757,-6.5609,-6.5116,-6.4964,-6.5154,-6.5154,-6.5439,-6.5479,-6.5444,-6.5804,-6.5879,-6.4662,-6.4283,-6.4492,-6.3565,-6.3084,-6.2915,-6.261,-6.2768,-6.3209,-6.2732,-6.2303,-6.2071,-6.1447,-6.0419,-5.9171,-5.8877,-5.8694,-5.8033,-5.7997,-5.7997,-5.7997,-5.7997,-5.7997,-5.7997,-5.7923,-5.785,-5.7666,-5.7262,-5.6932,-5.6418,-5.5427,-5.4656,-5.4326,-5.3849,-5.3335,-5.3203,-5.3203,-5.3277,-5.3314,-5.324,-5.3592,-5.3995,-5.4289,-5.4693,-5.5244,-5.55,-5.5831,-5.6308,-5.6271,-5.6381,-5.6698,-5.6875,-5.7089,-5.7634,-5.8047,-5.8156,-5.8243,-5.8455,-5.8572,-5.8503,-5.8487,-5.8083,-5.7955,-5.8141,-5.8215,-5.8364,-5.8512,-5.8677,-5.8586,-5.8475,-5.8549,-5.8103,-5.736,-5.658,-5.5837,-5.5169,-5.4611,-5.4203,-5.4017,-5.3905,-5.3794,-5.3794,-5.3831,-6.8906,-6.739,-6.739,-6.6442,-6.504,-6.5305,-6.5684,-6.6139,-6.648,-6.6935,-6.7314,-6.739,-6.6897,-6.6139,-6.5684,-6.5078,-6.4623,-6.5116,-6.5267,-6.5002,-6.4964,-6.5116,-6.5229,-6.5078,-6.5192,-6.5229,-6.5154,-6.504,-6.5363,-6.5459,-6.5594,-6.5634,-6.4992,-6.4421,-6.479,-6.4086,-6.3632,-6.3299,-6.3039,-6.3246,-6.3649,-6.3319,-6.2842,-6.2805,-6.2034,-6.0823,-5.9722,-5.9184,-5.8804,-5.8143,-5.7997,-5.7997,-5.7997,-5.7997,-5.7997,-5.7997,-5.7997,-5.796,-5.7923,-5.7629,-5.7483,-5.7262,-5.6381,-5.5684,-5.5097,-5.4399,-5.3885,-5.3885,-5.3445,-5.3445,-5.3775,-5.3885,-5.4363,-5.4766,-5.506,-5.5574,-5.6014,-5.6198,-5.6528,-5.7042,-5.7469,-5.7418,-5.739,-5.753,-5.7678,-5.7987,-5.8311,-5.8375,-5.8461,-5.8577,-5.8656,-5.8677,-5.864,-5.8566,-5.8475,-5.8549,-5.8475,-5.8549,-5.8549,-5.8677,-5.8677,-5.8661,-5.8677,-5.8677,-5.8215,-5.7398,-5.6449,-5.5689,-5.5057,-5.4574,-5.4128,-5.398,-5.3868,-5.3868,-5.398,-6.8906,-6.739,-6.739,-6.6442,-6.4926,-6.4926,-6.5229,-6.576,-6.5798,-6.6177,-6.6632,-6.6708,-6.6329,-6.5836,-6.5229,-6.4926,-6.4888,-6.4926,-6.4926,-6.4926,-6.4926,-6.4926,-6.5002,-6.4926,-6.4926,-6.4926,-6.4964,-6.4964,-6.4964,-6.4946,-6.4949,-6.4743,-6.4802,-6.4577,-6.4367,-6.4169,-6.392,-6.3497,-6.3171,-6.3419,-6.3885,-6.3271,-6.3062,-6.2842,-6.2291,-6.1227,-6.0052,-5.9588,-5.9171,-5.851,-5.807,-5.7997,-5.7997,-5.7997,-5.7997,-5.7997,-5.7997,-5.7997,-5.7997,-5.7886,-5.796,-5.774,-5.7262,-5.6271,-5.5574,-5.4987,-5.4693,-5.4693,-5.4326,-5.4326,-5.4509,-5.4693,-5.5133,-5.5574,-5.5904,-5.6418,-5.6859,-5.6969,-5.7101,-5.7469,-5.7822,-5.8009,-5.8054,-5.8172,-5.8282,-5.8449,-5.8551,-5.8593,-5.8635,-5.8677,-5.8677,-5.8677,-5.8677,-5.8677,-5.8677,-5.8677,-5.8677,-5.8677,-5.8677,-5.8677,-5.8677,-5.8677,-5.8677,-5.8677,-5.8677,-5.8306,-5.7489,-5.6449,-5.5466,-5.4946,-5.4463,-5.4128,-5.3961,-5.3961,-5.4388,-6.8906,-6.739,-6.739,-6.6442,-6.4926,-6.4926,-6.4964,-6.5116,-6.5078,-6.5116,-6.5305,-6.5154,-6.5267,-6.504,-6.504,-6.4926,-6.4926,-6.4926,-6.4926,-6.4926,-6.4926,-6.4926,-6.4926,-6.4926,-6.4926,-6.4926,-6.4926,-6.4926,-6.4926,-6.4926,-6.4871,-6.4871,-6.4761,-6.4725,-6.4539,-6.4348,-6.4087,-6.3705,-6.3451,-6.3709,-6.3898,-6.353,-6.3234,-6.3601,-6.3135,-6.2291,-6.141,-6.0676,-5.9832,-5.9061,-5.8474,-5.8033,-5.8033,-5.7997,-5.7997,-5.7997,-5.7997,-5.7997,-5.7997,-5.7997,-5.7997,-5.7776,-5.7336,-5.6712,-5.6088,-5.5721,-5.55,-5.5464,-5.517,-5.5244,-5.5427,-5.5596,-5.5904,-5.6418,-5.6748,-5.7042,-5.7409,-5.7616,-5.7785,-5.7946,-5.8125,-5.8238,-5.8327,-5.8356,-5.8422,-5.8551,-5.8593,-5.8656,-5.8656,-5.8677,-5.8677,-5.8677,-5.8677,-5.8677,-5.8677,-5.8677,-5.8677,-5.8677,-5.8677,-5.8677,-5.8677,-5.8677,-5.8677,-5.8677,-5.8677,-5.8603,-5.8491,-5.7546,-5.658,-5.5503,-5.4834,-5.45,-5.4351,-5.4426,-5.5094,-6.8906,-6.739,-6.739,-6.6442,-6.4926,-6.4926,-6.4926,-6.4926,-6.4926,-6.4926,-6.4926,-6.4926,-6.4926,-6.4926,-6.4926,-6.4926,-6.4926,-6.4926,-6.4926,-6.4926,-6.4926,-6.4926,-6.4926,-6.4926,-6.4926,-6.4926,-6.4926,-6.4926,-6.4926,-6.4926,-6.4926,-6.4871,-6.4835,-6.4835,-6.4707,-6.4521,-6.4229,-6.4004,-6.3823,-6.3951,-6.4271,-6.3688,-6.3432,-6.4119,-6.3271,-6.2438,-6.1667,-6.1337,-6.0419,-5.9538,-5.8951,-5.851,-5.8107,-5.8033,-5.7997,-5.7997,-5.7997,-5.7997,-5.7997,-5.7997,-5.7997,-5.796,-5.7703,-5.7336,-5.6859,-5.6638,-5.6381,-5.6235,-5.5941,-5.5904,-5.6308,-5.6381,-5.6638,-5.7226,-5.7556,-5.7703,-5.7836,-5.8006,-5.8042,-5.802,-5.8193,-5.8349,-5.8415,-5.8443,-5.8529,-5.8614,-5.8656,-5.8677,-5.8677,-5.8677,-5.8677,-5.8677,-5.8677,-5.8677,-5.8677,-5.8677,-5.8677,-5.8677,-5.8677,-5.8677,-5.8677,-5.8677,-5.8677,-5.8677,-5.8677,-5.864,-5.8566,-5.8438,-5.7658,-5.6543,-5.5577,-5.4871,-5.4834,-5.4983,-5.58,-6.8679,-6.7428,-6.7125,-6.6215,-6.4964,-6.4926,-6.4926,-6.4926,-6.4926,-6.4926,-6.4926,-6.4926,-6.4926,-6.4926,-6.4926,-6.4926,-6.4926,-6.4926,-6.4926,-6.4926,-6.4926,-6.4926,-6.4926,-6.4926,-6.4926,-6.4926,-6.4926,-6.4926,-6.4926,-6.4926,-6.4926,-6.4926,-6.4926,-6.4909,-6.4835,-6.469,-6.4482,-6.4309,-6.4083,-6.4038,-6.4406,-6.3822,-6.3366,-6.3933,-6.326,-6.2733,-6.2096,-6.1667,-6.108,-6.0199,-5.9501,-5.8951,-5.851,-5.8143,-5.7997,-5.7997,-5.7997,-5.7997,-5.7997,-5.7997,-5.7997,-5.796,-5.796,-5.7923,-5.7813,-5.7483,-5.7189,-5.7116,-5.6675,-5.6528,-5.7152,-5.7189,-5.7262,-5.774,-5.7776,-5.7886,-5.7909,-5.802,-5.802,-5.802,-5.8238,-5.8393,-5.8459,-5.8523,-5.8593,-5.8656,-5.8656,-5.8677,-5.8677,-5.8677,-5.8677,-5.8677,-5.8677,-5.8677,-5.8677,-5.8677,-5.8677,-5.8677,-5.8677,-5.8677,-5.8677,-5.8677,-5.8677,-5.8677,-5.8677,-5.8677,-5.8624,-5.8549,-5.8141,-5.7546,-5.6543,-5.5503,-5.5986,-5.6246,-5.6729,-6.8148,-6.7314,-6.6518,-6.5684,-6.4944,-6.4926,-6.4926,-6.4906,-6.4906,-6.4906,-6.4944,-6.4926,-6.4926,-6.4926,-6.4926,-6.4926,-6.4926,-6.4926,-6.4926,-6.4926,-6.4926,-6.4926,-6.4926,-6.4926,-6.4926,-6.4926,-6.4926,-6.4926,-6.4926,-6.5116,-6.504,-6.4926,-6.4926,-6.4926,-6.4926,-6.4909,-6.4817,-6.4632,-6.4328,-6.4281,-6.4171,-6.3839,-6.3653,-6.3516,-6.3329,-6.2964,-6.2659,-6.2096,-6.1557,-6.108,-6.0089,-5.9515,-5.9208,-5.851,-5.8217,-5.8143,-5.8033,-5.7997,-5.7997,-5.7997,-5.7997,-5.7997,-5.7997,-5.7997,-5.7997,-5.7886,-5.7813,-5.7629,-5.7629,-5.7666,-5.7886,-5.7886,-5.7923,-5.796,-5.796,-5.802,-5.8042,-5.8065,-5.8065,-5.8133,-5.8282,-5.8415,-5.848,-5.8566,-5.8635,-5.8677,-5.8677,-5.8677,-5.8677,-5.8677,-5.8677,-5.8677,-5.8677,-5.8677,-5.8677,-5.8677,-5.8677,-5.8677,-5.8677,-5.8677,-5.8677,-5.8677,-5.8677,-5.8677,-5.8677,-5.8677,-5.8677,-5.8677,-5.8289,-5.7918,-5.7063,-5.6432,-5.6989,-5.736,-5.7583,-6.8147,-6.7405,-6.657,-6.5787,-6.5137,-6.501,-6.4976,-6.4976,-6.4976,-6.4976,-6.4958,-6.4924,-6.4926,-6.4926,-6.4926,-6.4926,-6.4926,-6.4926,-6.4926,-6.4926,-6.4926,-6.4926,-6.4926,-6.4926,-6.4926,-6.4926,-6.4926,-6.4926,-6.4926,-6.5343,-6.5267,-6.5078,-6.5078,-6.4926,-6.4926,-6.4909,-6.4835,-6.4687,-6.4558,-6.4501,-6.4423,-6.4203,-6.3958,-6.3851,-6.3579,-6.3386,-6.3171,-6.2584,-6.2194,-6.1789,-6.081,-6.0493,-5.9979,-5.9245,-5.8841,-5.8657,-5.8474,-5.7997,-5.7997,-5.7997,-5.7997,-5.8033,-5.7997,-5.7997,-5.7997,-5.7997,-5.796,-5.7997,-5.7997,-5.7997,-5.796,-5.796,-5.796,-5.796,-5.802,-5.8065,-5.8088,-5.8133,-5.8156,-5.8268,-5.8437,-5.856,-5.8683,-5.9075,-5.9213,-5.9144,-5.9181,-5.8846,-5.8751,-5.8677,-5.8677,-5.8677,-5.8677,-5.8677,-5.8677,-5.8677,-5.8677,-5.8677,-5.8677,-5.8677,-5.8677,-5.8677,-5.8677,-5.8677,-5.8677,-5.8677,-5.8677,-5.8698,-5.8624,-5.8178,-5.7509,-5.7138,-5.7398,-5.7621,-5.7769,-6.822,-6.7511,-6.6674,-6.5872,-6.5237,-6.5111,-6.5078,-6.5078,-6.5078,-6.504,-6.5023,-6.501,-6.5031,-6.5031,-6.5031,-6.4958,-6.4941,-6.4941,-6.4888,-6.4926,-6.4926,-6.4926,-6.4926,-6.4926,-6.4926,-6.4926,-6.4964,-6.5002,-6.5381,-6.5874,-6.6025,-6.5874,-6.5457,-6.5419,-6.5305,-6.5136,-6.4871,-6.4761,-6.4707,-6.4841,-6.4936,-6.4933,-6.472,-6.4616,-6.4348,-6.4033,-6.3594,-6.3154,-6.2781,-6.2242,-6.1801,-6.1435,-6.0713,-6.0162,-5.9661,-5.9428,-5.9208,-5.8731,-5.8547,-5.8877,-5.8988,-5.8988,-5.84,-5.8033,-5.7997,-5.7997,-5.7997,-5.7997,-5.7997,-5.7997,-5.7997,-5.7997,-5.7997,-5.7997,-5.802,-5.8065,-5.8133,-5.8179,-5.8223,-5.8393,-5.8502,-5.8646,-5.9027,-5.9531,-5.9924,-5.9775,-5.9664,-5.9292,-5.8958,-5.8921,-5.8958,-5.8958,-5.8884,-5.8846,-5.8809,-5.8677,-5.8677,-5.8677,-5.8677,-5.8677,-5.8677,-5.8677,-5.8677,-5.8677,-5.8677,-5.8677,-5.8677,-5.8661,-5.8624,-5.8549,-5.8252,-5.7992,-5.7918,-5.7992,-5.8066,-6.8403,-6.7635,-6.6814,-6.6015,-6.5329,-6.527,-6.5194,-6.5215,-6.5215,-6.5215,-6.5215,-6.5161,-6.5166,-6.5182,-6.5199,-6.5111,-6.5061,-6.5006,-6.501,-6.4958,-6.5014,-6.4979,-6.4906,-6.4906,-6.4944,-6.4926,-6.5078,-6.5457,-6.6025,-6.6329,-6.667,-6.6859,-6.6215,-6.5874,-6.5533,-6.5381,-6.5098,-6.5118,-6.512,-6.5462,-6.5823,-6.5918,-6.5689,-6.5477,-6.5203,-6.4683,-6.4155,-6.3595,-6.3414,-6.2956,-6.2398,-6.1936,-6.1422,-6.086,-6.0603,-6.0346,-6.0236,-5.9795,-5.9465,-5.9832,-6.0015,-5.9795,-5.8988,-5.8364,-5.807,-5.8107,-5.7997,-5.7997,-5.7997,-5.7997,-5.7997,-5.7997,-5.7997,-5.7997,-5.7997,-5.8065,-5.8179,-5.826,-5.8305,-5.8415,-5.8486,-5.8815,-5.9547,-6.0072,-6.0444,-6.0518,-6.037,-6.011,-5.9775,-5.9478,-5.9478,-5.9404,-5.9292,-5.9069,-5.9032,-5.9181,-5.9032,-5.9144,-5.8772,-5.8677,-5.8677,-5.8677,-5.8677,-5.8677,-5.8677,-5.8677,-5.8677,-5.8677,-5.8698,-5.8586,-5.8512,-5.8475,-5.8289,-5.8401,-5.8512,-6.8794,-6.8536,-6.7736,-6.6968,-6.6214,-6.5604,-6.5352,-6.5337,-6.529,-6.5258,-6.528,-6.5232,-6.5194,-6.5199,-6.5199,-6.5194,-6.521,-6.521,-6.521,-6.5177,-6.5144,-6.5078,-6.4989,-6.4938,-6.4941,-6.5133,-6.5457,-6.5892,-6.6291,-6.6632,-6.7087,-6.72,-6.6632,-6.6025,-6.5646,-6.5609,-6.5684,-6.5742,-6.5724,-6.6236,-6.6729,-6.6919,-6.6579,-6.6258,-6.5857,-6.5249,-6.4564,-6.3995,-6.3808,-6.3571,-6.3183,-6.2872,-6.2812,-6.1874,-6.1153,-6.0456,-6.0346,-6.0272,-6.0126,-6.0272,-6.0529,-6.0603,-5.9942,-5.9465,-5.8951,-5.851,-5.8217,-5.829,-5.8327,-5.84,-5.8437,-5.84,-5.84,-5.8437,-5.846,-5.8529,-5.8657,-5.8725,-5.8792,-5.9005,-5.9075,-5.9542,-6.0237,-6.0518,-6.0853,-6.1076,-6.115,-6.0964,-6.0593,-6.0333,-6.0072,-6.0035,-6.0072,-5.9924,-5.9961,-6.011,-5.9812,-5.9552,-5.9181,-5.8809,-5.8677,-5.8677,-5.8677,-5.8677,-5.8677,-5.8677,-5.8677,-5.8677,-5.8677,-5.8677,-5.8603,-5.864,-5.8677,-5.8677,-5.8677,-6.9298,-6.8962,-6.8161,-6.72,-6.6239,-6.5987,-6.5757,-6.5436,-6.5352,-6.5337,-6.5337,-6.5337,-6.5321,-6.5337,-6.5368,-6.5383,-6.5383,-6.5383,-6.5368,-6.5321,-6.5337,-6.5188,-6.5106,-6.5078,-6.5255,-6.5545,-6.6021,-6.6532,-6.7101,-6.788,-6.8393,-6.79,-6.7047,-6.6177,-6.5798,-6.5874,-6.6291,-6.648,-6.6708,-6.7125,-6.7542,-6.7883,-6.7504,-6.7012,-6.656,-6.5842,-6.503,-6.4492,-6.4145,-6.3984,-6.3698,-6.3382,-6.3275,-6.2511,-6.1704,-6.1153,-6.1337,-6.119,-6.1043,-6.1263,-6.1337,-6.1263,-6.1043,-6.0639,-6.0162,-5.9685,-5.9355,-5.9171,-5.9061,-5.8988,-5.8988,-5.8951,-5.8988,-5.9024,-5.9094,-5.9141,-5.9232,-5.93,-5.9494,-5.9764,-6.0088,-6.0534,-6.089,-6.1054,-6.1462,-6.2116,-6.245,-6.2376,-6.1856,-6.1261,-6.0927,-6.0741,-6.0853,-6.0927,-6.0964,-6.0853,-6.0407,-5.9998,-5.9627,-5.9255,-5.8921,-5.8677,-5.8677,-5.8677,-5.8677,-5.8677,-5.8677,-5.8677,-5.8677,-5.8677,-5.8677,-5.8677,-5.8677,-5.8677,-5.8677,-6.9726,-6.8967,-6.8165,-6.6942,-6.5734,-6.6269,-6.6078,-6.5467,-6.5444,-6.539,-6.5405,-6.5465,-6.5494,-6.5479,-6.5509,-6.5523,-6.5523,-6.5509,-6.5532,-6.5444,-6.5474,-6.5345,-6.5204,-6.5253,-6.5715,-6.6142,-6.6754,-6.7569,-6.8724,-6.9107,-6.8901,-6.8673,-6.7766,-6.6802,-6.6063,-6.6518,-6.6973,-6.739,-6.7731,-6.811,-6.8527,-6.8679,-6.8603,-6.8224,-6.7599,-6.6823,-6.5897,-6.5106,-6.4424,-6.4227,-6.3958,-6.3565,-6.3252,-6.2953,-6.2267,-6.2108,-6.2218,-6.2108,-6.1961,-6.2108,-6.2438,-6.2365,-6.2144,-6.1741,-6.1263,-6.0419,-5.9942,-5.9832,-5.9758,-5.9722,-5.9722,-5.9722,-5.9758,-5.9758,-5.9782,-5.99,-6.0038,-6.0151,-6.0344,-6.0549,-6.0778,-6.1224,-6.167,-6.1893,-6.2153,-6.3044,-6.3342,-6.3305,-6.297,-6.2227,-6.1893,-6.1633,-6.1819,-6.193,-6.1781,-6.1596,-6.0927,-6.0481,-6.0072,-5.9441,-5.8884,-5.8714,-5.8677,-5.8677,-5.8677,-5.8677,-5.8677,-5.8677,-5.8677,-5.8677,-5.8677,-5.8677,-5.8677,-5.8677,-5.8677,-6.8951,-6.8126,-6.7324,-6.6743,-6.6383,-6.5962,-6.5724,-6.5552,-6.5552,-6.5523,-6.5494,-6.5537,-6.558,-6.558,-6.5608,-6.5622,-6.5701,-6.5688,-6.5688,-6.5751,-6.5737,-6.5647,-6.5498,-6.5848,-6.6265,-6.6776,-6.7542,-6.8701,-6.9479,-6.9406,-6.8745,-6.7932,-6.746,-6.7007,-6.6309,-6.6935,-6.7921,-6.8186,-6.8754,-6.9058,-6.9361,-6.9323,-6.9171,-6.8262,-6.739,-6.667,-6.58,-6.5062,-6.4763,-6.469,-6.4385,-6.3958,-6.3428,-6.3026,-6.2757,-6.2622,-6.2658,-6.2585,-6.2585,-6.2622,-6.2768,-6.2805,-6.2585,-6.2548,-6.2071,-6.1043,-6.0493,-6.0493,-6.0493,-6.0529,-6.0529,-6.0566,-6.0566,-6.0566,-6.0553,-6.0756,-6.0919,-6.1078,-6.1248,-6.1366,-6.1499,-6.1893,-6.2413,-6.271,-6.3007,-6.3267,-6.349,-6.3527,-6.349,-6.3044,-6.297,-6.2784,-6.297,-6.3044,-6.2747,-6.2376,-6.1744,-6.1001,-6.0518,-5.9738,-5.8863,-5.8714,-5.8677,-5.8677,-5.8677,-5.8677,-5.8677,-5.8677,-5.8677,-5.8677,-5.8677,-5.8677,-5.8677,-5.8677,-5.8677,-6.8356,-6.7875,-6.7439,-6.6835,-6.626,-6.6068,-6.592,-6.5632,-6.5674,-6.5674,-6.5646,-6.5674,-6.5688,-6.5701,-6.5728,-6.5742,-6.5833,-6.5833,-6.614,-6.6256,-6.5974,-6.6019,-6.6165,-6.623,-6.6705,-6.7277,-6.8771,-6.9861,-7.004,-6.9379,-6.8583,-6.7753,-6.7528,-6.7174,-6.6572,-6.7692,-6.8641,-6.8641,-6.9475,-6.9816,-6.9891,-6.9702,-6.9588,-6.8603,-6.7693,-6.6859,-6.6177,-6.5457,-6.4926,-6.4799,-6.4521,-6.4042,-6.3542,-6.3218,-6.2978,-6.2818,-6.2805,-6.2805,-6.2805,-6.2805,-6.2805,-6.2805,-6.2805,-6.2695,-6.2695,-6.1814,-6.1716,-6.1716,-6.1716,-6.1753,-6.1777,-6.1777,-6.1777,-6.1777,-6.1875,-6.2019,-6.2184,-6.2322,-6.2472,-6.2576,-6.2673,-6.2747,-6.3119,-6.3156,-6.3379,-6.3416,-6.3602,-6.3602,-6.3602,-6.3602,-6.3602,-6.3602,-6.3602,-6.3602,-6.3305,-6.3007,-6.2636,-6.1856,-6.089,-5.9961,-5.9107,-5.8846,-5.8677,-5.8677,-5.8677,-5.8677,-5.8677,-5.8677,-5.8677,-5.8677,-5.8677,-5.8677,-5.8677,-5.8677,-5.8677,-6.7668,-6.7607,-6.7531,-6.6812,-6.5738,-6.6289,-6.6255,-6.5751,-6.5742,-6.5807,-6.5807,-6.5807,-6.5807,-6.5833,-6.5859,-6.5885,-6.5897,-6.5885,-6.632,-6.6436,-6.6128,-6.6062,-6.611,-6.626,-6.6916,-6.7944,-6.9367,-6.9856,-7.0037,-6.936,-6.8646,-6.7981,-6.7614,-6.7303,-6.7174,-6.788,-6.8887,-6.9058,-6.9512,-6.9816,-6.9891,-6.9854,-6.9664,-6.9133,-6.8337,-6.7466,-6.6783,-6.5988,-6.504,-6.4726,-6.4501,-6.4025,-6.3595,-6.3289,-6.3051,-6.288,-6.2805,-6.2805,-6.2805,-6.2805,-6.2805,-6.2805,-6.2805,-6.2805,-6.2805,-6.2743,-6.267,-6.267,-6.267,-6.267,-6.2658,-6.2658,-6.2658,-6.2683,-6.2806,-6.2927,-6.307,-6.3248,-6.334,-6.3445,-6.3468,-6.3468,-6.3527,-6.3565,-6.3602,-6.3602,-6.3602,-6.3602,-6.3602,-6.3602,-6.3602,-6.3602,-6.3602,-6.3602,-6.3602,-6.3416,-6.3059,-6.2041,-6.1038,-6.011,-5.9329,-5.8921,-5.8677,-5.8677,-5.8677,-5.8677,-5.8677,-5.8677,-5.8677,-5.8677,-5.8677,-5.8677,-5.8677,-5.8677,-5.8677,-6.6522,-6.5872,-6.5947,-6.5791,-6.5618,-6.5879,-6.5909,-6.5859,-6.5872,-6.5885,-6.5872,-6.5885,-6.5885,-6.5885,-6.5885,-6.5897,-6.5897,-6.5897,-6.5897,-6.5974,-6.6013,-6.6,-6.6178,-6.6535,-6.7285,-6.8201,-6.9023,-6.9437,-6.9696,-6.9311,-6.8673,-6.7861,-6.8569,-6.8261,-6.7704,-6.8561,-6.9606,-6.9645,-6.9645,-6.991,-6.9854,-6.974,-6.9399,-6.8754,-6.7921,-6.7087,-6.6291,-6.5457,-6.504,-6.4745,-6.4405,-6.4046,-6.3705,-6.3345,-6.3075,-6.2855,-6.2805,-6.2805,-6.2805,-6.2805,-6.2805,-6.2805,-6.2805,-6.2805,-6.2805,-6.2805,-6.2768,-6.2768,-6.2768,-6.2768,-6.2768,-6.2768,-6.2768,-6.2793,-6.2892,-6.3014,-6.3158,-6.3275,-6.3405,-6.3497,-6.3542,-6.3542,-6.3565,-6.3602,-6.3602,-6.3602,-6.3602,-6.3602,-6.3602,-6.3602,-6.3602,-6.3602,-6.3602,-6.3602,-6.3602,-6.3565,-6.3171,-6.2153,-6.115,-6.0221,-5.9441,-5.8884,-5.8677,-5.8677,-5.8677,-5.8677,-5.8677,-5.8677,-5.8677,-5.8677,-5.8677,-5.8677,-5.8677,-5.8677,-5.8677]},{"header":{"parameterUnit":"m.s-1","parameterCategory":1,"la1":31.0,"la2":29.5877,"lo1":-88.7671,"lo2":-86.6584,"dy":0.0162,"dx":0.0185,"nx":115,"ny":88,"refTime":"2023-03-22T12:00:00:Z","depth":0,"parameterNumber":3,"parameterNumberName":"V-component_of_WINDS"},"data":[0.0,0.0,0.0,0.0,0.0,0.0,0.0,0.0,0.0,0.0,0.0,0.0,0.0,0.0,0.0,0.0,0.0,0.0,0.0,0.0,0.0,0.0,0.0,0.0,0.0,0.0,0.0,0.0,0.0,0.0,0.0,0.0,0.0,0.0,0.0,0.0,0.0,0.0,0.0,0.0,0.0,0.0,0.0,0.0,0.0,0.0,0.0,0.0,0.0,0.0,0.0,0.0,0.0,0.0,0.0,0.0,0.0,0.0,0.0,0.0,0.0,0.0,0.0,0.0,0.0,0.0,0.0,0.0,0.0,0.0,0.0,0.0,0.0,0.0,0.0,0.0,0.0,0.0,0.0,0.0,0.0,0.0,0.0,0.0,0.0,0.0,0.0,0.0,0.0,0.0,0.0,0.0,0.0,0.0,0.0,0.0,0.0,0.0,0.0,0.0,0.0,0.0,0.0,0.0,0.0,0.0,0.0,0.0,0.0,0.0,0.0,0.0,0.0,0.0,0.0,0.0,0.0,0.0,0.0,0.0,0.0,0.0,0.0,0.0,0.0,0.0,0.0,0.0,0.0,0.0,0.0,0.0,0.0,0.0,0.0,0.0,0.0,0.0,0.0,0.0,0.0,0.0,0.0,0.0,0.0,0.0,0.0,0.0,0.0,0.0,0.0,0.0,0.0,0.0,0.0,0.0,0.0,0.0,0.0,0.0,0.0,0.0,0.0,0.0,0.0,0.0,0.0,0.0,0.0,0.0,0.0,0.0,0.0,0.0,0.0,0.0,0.0,0.0,0.0,0.0,0.0,0.0,0.0,0.0,0.0,0.0,0.0,0.0,0.0,0.0,0.0,0.0,0.0,0.0,0.0,0.0,0.0,0.0,0.0,0.0,0.0,0.0,0.0,0.0,0.0,0.0,0.0,0.0,0.0,0.0,0.0,0.0,0.0,0.0,0.0,0.0,0.0,0.0,0.0,0.0,0.0,0.0,0.0,0.0,0.0,0.0,0.0,0.0,0.0,0.0,0.0,0.0,0.0,0.0,0.0,0.0,0.0,0.0,0.0,0.0,0.0,0.0,0.0,0.0,0.0,0.0,0.0,0.0,0.0,0.0,0.0,0.0,0.0,0.0,0.0,0.0,0.0,0.0,0.0,0.0,0.0,0.0,0.0,0.0,0.0,0.0,0.0,0.0,0.0,0.0,0.0,0.0,0.0,0.0,0.0,0.0,0.0,0.0,0.0,0.0,0.0,0.0,0.0,0.0,0.0,0.0,0.0,0.0,0.0,0.0,0.0,0.0,0.0,0.0,0.0,0.0,0.0,0.0,0.0,0.0,0.0,0.0,0.0,0.0,0.0,0.0,0.0,0.0,0.0,0.0,0.0,0.0,0.0,0.0,0.0,0.0,0.0,0.0,0.0,0.0,0.0,0.0,0.0,0.0,0.0,0.0,0.0,0.0,0.0,0.0,0.0,0.0,0.0,0.0,0.0,0.0,0.0,0.0,0.0,0.0,0.0,0.0,0.0,0.0,0.0,0.0,0.0,0.0,0.0,0.0,0.0,0.0,0.0,0.0,0.0,0.0,0.0,0.0,0.0,0.0,0.0,0.0,0.0,0.0,0.0,0.0,0.0,0.0,0.0,0.0,0.0,0.0,0.0,0.0,0.0,0.0,0.0,0.0,0.0,0.0,0.0,0.0,0.0,0.0,0.0,0.0,0.0,0.0,0.0,0.0,0.0,0.0,0.0,0.0,0.0,0.0,0.0,0.0,0.0,0.0,0.0,0.0,0.0,0.0,0.0,0.0,0.0,0.0,0.0,0.0,0.0,0.0,0.0,0.0,0.0,0.0,0.0,0.0,0.0,0.0,0.0,0.0,0.0,0.0,0.0,0.0,0.0,0.0,0.0,0.0,0.0,0.0,0.0,0.0,0.0,0.0,0.0,0.0,0.0,0.0,0.0,0.0,0.0,0.0,0.0,0.0,0.0,0.0,0.0,0.0,0.0,0.0,0.0,0.0,0.0,0.0,0.0,0.0,0.0,0.0,0.0,0.0,0.0,0.0,0.0,0.0,0.0,0.0,0.0,0.0,0.0,0.0,0.0,0.0,0.0,0.0,0.0,0.0,0.0,0.0,0.0,0.0,0.0,0.0,0.0,0.0,0.0,0.0,0.0,0.0,0.0,0.0,0.0,0.0,0.0,0.0,0.0,0.0,0.0,0.0,0.0,0.0,0.0,0.0,0.0,0.0,0.0,0.0,0.0,0.0,0.0,0.0,0.0,0.0,0.0,0.0,0.0,0.0,0.0,0.0,0.0,0.0,0.0,0.0,0.0,0.0,0.0,0.0,0.0,0.0,0.0,0.0,0.0,0.0,0.0,0.0,0.0,0.0,0.0,0.0,0.0,0.0,0.0,0.0,0.0,0.0,0.0,0.0,0.0,0.0,0.0,0.0,0.0,0.0,0.0,0.0,0.0,0.0,0.0,0.0,0.0,0.0,0.0,0.0,0.0,0.0,0.0,0.0,0.0,0.0,0.0,0.0,0.0,0.0,0.0,0.0,0.0,0.0,0.0,0.0,0.0,0.0,0.0,0.0,0.0,0.0,0.0,0.0,0.0,0.0,0.0,0.0,0.0,0.0,0.0,0.0,0.0,0.0,0.0,0.0,0.0,0.0,0.0,0.0,0.0,0.0,0.0,0.0,0.0,0.0,0.0,0.0,0.0,0.0,0.0,0.0,0.0,0.0,0.0,0.0,0.0,0.0,0.0,0.0,0.0,0.0,0.0,0.0,0.0,0.0,0.0,0.0,0.0,0.0,0.0,0.0,0.0,0.0,0.0,0.0,0.0,0.0,0.0,0.0,0.0,0.0,0.0,0.0,0.0,0.0,0.0,0.0,0.0,0.0,0.0,0.0,0.0,0.0,0.0,0.0,0.0,0.0,0.0,0.0,0.0,0.0,0.0,0.0,0.0,0.0,0.0,0.0,0.0,0.0,0.0,0.0,0.0,0.0,0.0,0.0,0.0,0.0,0.0,0.0,0.0,0.0,0.0,0.0,0.0,0.0,0.0,0.0,0.0,0.0,0.0,0.0,0.0,0.0,0.0,0.0,0.0,0.0,0.0,0.0,0.0,0.0,0.0,0.0,0.0,0.0,0.0,0.0,0.0,0.0,0.0,0.0,0.0,0.0,0.0,0.0,0.0,0.0,0.0,0.0,0.0,0.0,0.0,0.0,0.0,0.0,0.0,0.0,0.0,0.0,0.0,0.0,0.0,0.0,0.0,0.0,0.0,0.0,0.0,0.0,0.0,0.0,0.0,0.0,0.0,0.0,0.0,0.0,0.0,0.0,0.0,0.0,0.0,0.0,0.0,0.0,0.0,0.0,0.0,0.0,0.0,0.0,0.0,0.0,0.0,0.0,0.0,0.0,0.0,0.0,0.0,0.0,0.0,0.0,0.0,0.0,0.0,0.0,0.0,0.0,0.0,0.0,0.0,0.0,0.0,0.0,0.0,0.0,0.0,0.0,0.0,0.0,0.0,0.0,0.0,0.0,0.0,0.0,0.0,0.0,0.0,0.0,0.0,0.0,0.0,0.0,0.0,0.0,0.0,0.0,0.0,0.0,0.0,0.0,0.0,0.0,0.0,0.0,0.0,0.0,0.0,0.0,0.0,0.0,0.0,0.0,0.0,0.0,0.0,0.0,0.0,0.0,0.0,0.0,0.0,0.0,0.0,0.0,0.0,0.0,0.0,0.0,0.0,0.0,0.0,0.0,0.0,0.0,0.0,0.0,0.0,0.0,0.0,0.0,0.0,0.0,0.0,0.0,0.0,0.0,0.0,0.0,0.0,0.0,0.0,0.0,0.0,0.0,0.0,0.0,0.0,0.0,0.0,0.0,0.0,0.0,0.0,0.0,0.0,0.0,0.0,0.0,0.0,0.0,0.0,0.0,0.0,0.0,0.0,0.0,0.0,0.0,0.0,0.0,0.0,0.0,0.0,0.0,0.0,0.0,0.0,0.0,0.0,0.0,0.0,0.0,0.0,0.0,0.0,0.0,0.0,0.0,0.0,0.0,0.0,0.0,0.0,0.0,0.0,0.0,0.0,0.0,0.0,0.0,0.0,0.0,0.0,0.0,0.0,0.0,0.0,0.0,0.0,0.0,0.0,0.0,0.0,0.0,0.0,0.0,0.0,0.0,0.0,0.0,0.0,0.0,0.0,0.0,0.0,0.0,0.0,0.0,0.0,0.0,0.0,0.0,0.0,0.0,0.0,0.0,0.0,0.0,0.6232,0.0,0.0,0.0,0.0,0.0,0.0,0.0,0.0,0.0,0.0,0.0,0.0,0.0,0.0,0.0,0.0,0.0,0.0,0.0,0.0,0.0,0.0,0.0,0.0,0.0,0.0,0.0,0.0,0.0,0.0,0.0,0.0,0.0,0.0,0.0,0.0,0.0,0.0,0.0,0.0,0.0,0.0,0.0,0.0,0.0,0.0,0.0,0.0,0.0,0.0,0.0,0.0,0.0,0.0,0.0,0.0,0.0,0.0,0.0,0.0,0.0,0.0,0.0,0.0,0.0,0.0,0.0,0.0,0.0,0.0,0.0,0.0,0.0,0.0,0.0,0.0,0.0,0.0,0.0,0.0,0.0,0.0,0.0,0.0,0.0,0.0,0.0,0.0,0.0,0.0,0.0,0.0,0.0,0.0,0.0,0.0,0.0,0.0,0.0,0.0,0.0,0.0,0.0,0.0,0.0,0.0,0.0,0.0,0.0,0.0,0.7225,0.6989,0.6794,0.6631,0.644,0.0,0.0,0.0,0.0,0.0,0.0,0.0,0.0,0.0,0.0,0.0,0.0,0.0,0.0,0.0,0.0,0.0,0.0,0.0,0.0,0.0,0.0,0.0,0.0,0.0,0.0,0.0,0.0,0.0,0.0,0.0,0.0,0.0,0.0,0.0,0.0,0.0,0.0,0.0,0.0,0.0,0.0,0.0,0.0,0.0,0.0,0.0,0.0,0.0,0.0,0.0,0.0,0.0,0.0,0.0,0.0,0.0,0.0,0.0,0.0,0.0,0.0,0.0,0.0,0.0,0.0,0.0,0.0,0.0,0.0,0.0,0.0,0.0,0.0,0.0,0.0,0.0,0.0,0.0,0.0,0.0,0.0,0.0,0.0,0.0,0.0,0.0,0.0,0.0,0.0,0.0,0.0,0.0,0.0,0.0,0.0,0.0,0.0,0.0,0.0,0.0,0.0,0.0,0.0,0.0,0.0,0.0,0.0,0.0,0.0,0.0,0.0,0.677,0.6595,0.6393,0.0,0.0,0.0,0.0,0.0,0.0,0.0,0.0,0.0,0.0,0.0,0.0,0.0,0.0,0.0,0.0,0.0,0.0,0.0,0.0,0.0,0.0,0.0,0.0,0.0,0.0,0.0,0.0,0.0,0.0,0.0,0.0,0.0,0.0,0.0,0.0,0.0,0.0,0.0,0.0,0.0,0.0,0.0,0.0,0.0,0.0,0.0,0.0,0.0,0.0,0.0,0.0,0.0,0.0,0.0,0.0,0.0,0.0,0.0,0.0,0.0,0.0,0.0,0.0,0.0,0.0,0.0,0.0,0.0,0.0,0.0,0.0,0.0,0.0,0.0,0.0,0.0,0.0,0.0,0.0,0.0,0.0,0.0,0.0,0.0,0.0,0.0,0.0,0.0,0.0,0.0,0.0,0.0,0.0,0.0,0.0,0.0,0.0,0.0,0.0,0.0,0.0,0.0,0.0,0.0,0.0,0.0,0.0,0.0,0.0,0.7373,0.6927,0.677,0.0,0.5899,0.0,0.0,0.0,0.0,0.0,0.0,0.0,0.0,0.0,0.0,0.0,0.0,0.0,0.0,0.0,0.0,0.0,0.0,0.0,0.0,0.0,0.0,0.0,0.0,0.0,0.0,0.0,0.0,0.0,0.0,0.0,0.0,0.0,0.0,0.0,0.0,0.0,0.0,0.0,0.0,0.0,0.0,0.0,0.0,0.0,0.0,0.0,0.0,0.0,0.0,0.0,0.0,0.0,0.0,0.0,0.0,0.0,0.0,0.0,0.0,0.0,0.0,0.0,0.0,0.0,0.0,0.0,0.0,0.0,0.0,0.0,0.0,0.0,0.0,0.0,0.0,0.0,0.0,0.0,0.0,0.0,0.0,0.0,0.0,0.0,0.0,0.0,0.0,0.0,0.0,0.0,0.0,0.0,0.0,0.0,0.0,0.0,0.0,0.0,0.0,0.0,0.0,0.0,0.0,0.0,0.0,0.0,0.0,0.0,0.0,0.7651,0.713,0.6777,0.6421,0.0,0.0,0.0,0.0,0.0,0.0,0.0,0.0,0.0,0.0,0.0,0.0,0.0,0.0,0.0,0.0,0.0,0.0,0.0,0.0,0.0,0.0,0.0,0.0,0.0,0.0,0.0,0.0,0.0,0.0,0.0,0.0,0.0,0.0,0.0,0.0,0.0,0.0,0.0,0.0,0.0,0.0,0.0,0.0,0.0,0.0,0.0,0.0,0.0,0.0,0.0,0.0,0.0,0.0,0.0,0.0,0.0,0.0,0.0,0.0,0.0,0.0,0.0,0.0,0.0,0.0,0.0,0.0,0.0,0.0,0.0,0.0,0.0,0.0,0.0,0.0,0.0,0.0,0.0,0.0,0.0,0.0,0.0,0.0,0.0,0.0,0.0,0.0,0.0,0.0,0.0,0.0,0.0,0.0,0.0,0.0,0.0,0.0,0.0,0.0,0.0,0.0,0.0,0.0,0.0,0.0,0.0,0.0,0.0,0.0,0.8245,0.772,0.71,0.6644,0.6374,0.628,0.0,0.0,0.0,0.0,0.0,0.0,0.0,0.0,0.0,0.0,0.0,0.0,0.0,0.0,0.0,0.0,0.0,0.0,0.0,0.0,0.0,0.0,0.0,0.0,0.0,0.0,0.0,0.0,0.0,0.0,0.0,0.0,0.0,0.0,0.0,0.0,0.0,0.0,0.0,0.0,0.0,0.0,0.0,0.0,0.0,0.0,0.0,0.0,0.0,0.0,0.0,0.0,0.0,0.0,0.0,0.0,0.0,0.0,0.0,0.0,0.0,0.0,0.0,0.0,0.0,0.0,0.0,0.0,0.0,0.0,0.0,0.0,0.0,0.0,0.0,0.0,0.0,0.0,0.0,0.0,0.0,0.0,0.0,0.0,0.0,0.0,0.0,0.0,0.0,0.0,0.0,0.0,0.0,0.0,0.0,0.0,0.0,0.0,0.0,0.0,0.0,0.0,0.0,0.0,0.0,0.0,0.0,0.0,0.85,0.8206,0.7542,0.6667,0.6419,0.628,0.0,0.0,0.0,0.0,0.0,0.0,0.0,0.0,0.0,0.0,0.0,0.0,0.0,0.0,0.0,0.0,0.0,0.0,0.0,0.0,0.0,0.0,0.0,0.0,0.0,0.0,0.0,0.0,0.0,0.0,0.0,0.0,0.0,0.0,0.0,0.0,0.0,0.0,0.0,0.0,0.0,0.0,0.0,0.0,0.0,0.0,0.0,0.0,0.0,0.0,0.0,0.0,0.0,0.0,0.0,0.0,0.0,0.0,0.0,0.0,0.0,0.0,0.0,0.0,0.0,0.0,0.0,0.0,0.0,0.0,0.0,0.0,0.0,0.0,0.0,0.0,0.0,0.0,0.0,0.0,0.0,0.0,0.0,0.0,0.0,0.0,0.0,0.0,0.0,0.0,0.0,0.0,0.0,0.0,0.0,0.0,0.0,0.0,0.0,0.0,0.0,0.0,0.0,0.0,0.0,0.0,0.0,0.0,0.0,0.8844,0.8209,0.7516,0.6905,0.6514,0.6276,0.0,0.0,0.0,0.0,0.0,0.0,0.0,0.0,0.0,0.0,0.0,0.0,0.0,0.0,0.0,0.0,0.0,0.0,0.0,0.0,0.0,0.0,0.0,0.0,0.0,0.0,0.0,0.0,0.0,0.0,0.0,0.0,0.0,0.0,0.0,0.0,0.0,0.0,0.0,0.0,0.0,0.0,0.0,0.0,0.0,0.0,0.0,0.0,0.0,0.0,0.0,0.0,0.0,0.0,0.0,0.0,0.0,0.0,0.0,0.0,0.0,0.0,0.0,0.0,0.0,0.0,0.0,0.0,0.0,0.0,0.0,0.0,0.0,0.0,0.0,0.0,0.0,0.0,0.0,0.0,0.0,0.0,0.0,0.0,0.0,0.0,0.0,0.0,0.0,0.0,0.0,0.0,0.0,0.0,0.0,0.0,0.0,0.0,0.0,0.0,0.0,0.0,0.0,0.0,0.0,0.0,0.0,0.0,0.0,0.8804,0.0,0.7458,0.6982,0.653,0.6243,0.0,0.0,0.0,0.0,0.0,0.0,0.0,0.0,0.0,0.0,0.0,0.0,0.0,0.0,0.0,0.0,0.0,0.0,0.0,0.0,0.0,0.0,0.0,0.0,0.0,0.0,0.0,0.0,0.0,0.0,0.0,0.0,0.0,0.0,0.0,0.0,0.0,0.0,0.0,0.0,0.0,0.0,0.0,0.0,0.0,0.0,0.0,0.0,0.0,0.0,0.0,0.0,0.0,0.0,0.0,0.0,0.0,0.0,0.0,0.0,0.0,0.0,0.0,0.0,0.0,0.0,0.0,0.0,0.0,0.0,0.0,0.0,0.0,0.0,0.0,0.0,0.0,0.0,0.0,0.0,0.0,0.0,0.0,0.0,0.0,0.0,0.0,0.0,0.0,0.0,0.0,0.0,0.0,0.0,0.0,0.0,0.0,0.0,0.0,0.0,0.0,0.0,0.0,0.0,0.0,0.0,0.0,0.0,0.8804,0.8239,0.7786,0.7397,0.6982,0.6475,0.6182,0.0,0.0,0.0,0.0,0.0,0.0,0.0,0.0,0.0,0.0,0.0,0.0,0.0,0.0,0.0,0.0,0.0,0.0,0.0,0.0,0.0,0.0,0.0,0.0,0.0,0.0,0.0,0.0,0.0,0.0,0.0,0.0,0.0,0.0,0.0,0.0,0.0,0.0,0.0,0.0,0.0,0.0,0.0,0.0,0.0,0.0,0.0,0.0,0.0,0.0,0.0,0.0,0.0,0.0,0.0,0.0,0.0,0.0,0.0,0.0,0.0,0.0,0.0,0.0,0.0,0.0,0.0,0.0,0.0,0.0,0.0,0.0,0.0,0.0,0.0,0.0,0.0,0.0,0.0,0.0,0.0,0.0,0.0,0.0,0.0,0.0,0.0,0.0,0.0,0.0,0.0,0.0,0.0,0.0,0.0,0.0,0.0,0.0,0.0,0.0,0.0,0.0,0.0,0.0,0.0,0.0,0.0,0.0,0.0,0.8638,0.8184,0.7756,0.7477,0.6897,0.6443,0.0,0.0,0.0,0.0,0.0,0.0,0.0,0.0,0.0,0.0,0.0,0.0,0.0,0.0,0.0,0.0,0.0,0.0,0.0,0.0,0.0,0.0,0.0,0.0,0.0,0.0,0.0,0.0,0.0,0.0,0.0,0.0,0.0,0.0,0.0,0.0,0.0,0.0,0.0,0.0,0.0,0.0,0.0,0.0,0.0,0.0,0.0,0.0,0.0,0.0,0.0,0.0,0.0,0.0,0.0,0.0,0.0,0.0,0.0,0.0,0.0,0.0,0.0,0.0,0.0,0.0,0.0,0.0,0.0,0.0,0.0,0.0,0.0,0.0,0.0,0.0,0.0,0.0,0.0,0.0,0.0,0.0,0.0,0.0,0.0,0.0,0.0,0.0,0.0,0.0,0.0,0.0,0.0,0.0,0.0,0.0,0.0,0.0,0.0,0.0,0.0,0.0,0.0,0.0,0.0,0.0,0.0,0.0,0.0,0.9024,0.8533,0.8207,0.8001,0.7393,0.6958,0.6683,0.0,0.0,0.0,0.0,0.0,0.0,0.0,0.0,0.0,0.0,0.0,0.0,0.0,0.0,0.0,0.0,0.0,0.0,0.0,0.0,0.0,0.0,0.0,0.0,0.0,0.0,0.0,0.0,0.0,0.0,0.0,0.0,0.0,0.0,0.0,0.0,0.0,0.0,0.0,0.0,0.0,0.0,0.0,0.0,0.0,0.0,0.0,0.0,0.0,0.0,0.0,0.0,0.0,0.0,0.0,0.0,0.0,0.0,0.0,0.0,0.0,0.0,0.0,0.0,0.0,0.0,0.0,0.0,0.0,0.0,0.0,0.0,0.0,0.0,0.0,0.0,0.0,0.0,0.0,0.0,0.0,0.0,0.0,0.0,0.0,0.0,0.0,0.0,0.0,0.0,0.0,0.0,0.0,0.0,0.0,0.0,0.0,0.0,0.0,0.0,0.0,0.0,0.0,0.0,0.0,0.0,0.0,0.0,0.9577,0.9002,0.8668,0.8647,0.8065,0.7646,0.0,0.0,0.0,0.0,0.0,0.0,0.0,0.0,0.0,0.0,0.0,0.0,0.0,0.0,0.0,0.0,0.0,0.0,0.0,0.0,0.0,0.0,0.0,0.0,0.0,0.0,0.0,0.0,0.0,0.0,0.0,0.0,0.0,0.0,0.0,0.0,0.0,0.0,0.0,0.0,0.0,0.0,0.0,0.0,0.0,0.0,0.0,0.0,0.0,0.0,0.0,0.0,0.0,0.0,0.0,0.0,0.0,0.0,0.0,0.0,0.0,0.0,0.0,0.0,0.0,0.0,0.0,0.0,0.0,0.0,0.0,0.0,0.0,0.0,0.0,0.0,0.0,0.0,0.0,0.0,0.0,0.0,0.0,0.0,0.0,0.0,0.0,0.0,0.0,0.0,0.0,0.0,0.0,0.0,0.0,0.0,0.0,0.0,0.0,0.0,0.0,0.0,0.0,0.0,0.0,0.0,0.0,0.0,0.0,1.0109,0.9775,0.9361,0.8889,0.8433,0.792,0.0,0.0,0.0,0.0,0.0,0.0,0.0,0.0,0.0,0.0,0.0,0.0,0.0,0.0,0.0,0.0,0.0,0.0,0.0,0.0,0.0,0.0,0.0,0.0,0.0,0.0,0.0,0.0,0.0,0.0,0.0,0.0,0.0,0.0,0.0,0.0,0.0,0.0,0.0,0.0,0.0,0.0,0.0,0.0,0.0,0.0,0.0,0.0,0.0,0.0,0.0,0.0,0.0,0.0,0.0,0.0,0.0,0.0,0.0,0.0,0.0,0.0,0.0,0.0,0.0,0.0,0.0,0.0,0.0,0.0,0.0,0.0,0.0,0.0,0.0,0.0,0.0,0.0,0.0,0.0,0.0,0.0,0.0,0.0,0.0,0.0,0.0,0.0,0.0,0.0,0.0,0.0,0.0,0.0,0.0,0.0,0.0,0.0,0.0,0.0,0.0,0.0,0.0,0.0,0.0,0.0,0.0,0.0,1.0164,1.0449,1.0191,0.9947,0.9561,0.9108,0.8664,0.0,0.0,0.0,0.0,0.0,0.0,0.0,0.0,0.0,0.0,0.0,0.0,0.0,0.0,0.0,0.0,0.0,0.0,0.0,0.0,0.0,0.0,0.0,0.0,0.0,0.0,0.0,0.0,0.0,0.0,0.0,0.0,0.0,0.0,0.0,0.0,0.0,0.0,0.0,0.0,0.0,0.0,0.0,0.0,0.0,0.0,0.0,0.0,0.0,0.0,0.0,0.0,0.0,0.0,0.0,0.0,0.0,0.0,0.0,0.0,0.0,0.0,0.0,0.0,0.0,0.0,0.0,0.0,0.0,0.0,0.0,0.0,0.0,0.0,0.0,0.0,0.0,0.0,0.0,0.0,0.0,0.0,0.0,0.0,0.0,0.0,0.0,0.0,0.0,0.0,0.0,0.0,0.0,0.0,0.0,0.0,0.0,0.0,0.0,0.0,0.0,0.0,0.0,0.0,0.0,0.0,0.0,0.0,1.0632,1.0612,1.0527,1.0423,1.0384,0.9927,0.9503,0.0,0.0,0.0,0.0,0.0,0.0,0.0,0.0,0.0,0.0,0.0,0.0,0.0,0.0,0.0,0.0,0.0,0.0,0.0,0.0,0.0,0.0,0.0,0.0,0.0,0.0,0.0,0.0,0.0,0.0,0.0,0.0,0.0,0.0,0.0,0.0,0.0,0.0,0.0,0.0,0.0,0.0,0.0,0.0,0.0,0.0,0.0,0.0,0.0,0.0,0.0,0.0,0.0,0.0,0.0,0.0,0.0,0.0,0.0,0.0,0.0,0.0,0.0,0.0,0.0,0.0,0.0,0.0,0.0,0.0,0.0,0.0,0.0,0.0,0.0,0.0,0.0,0.0,0.0,0.0,0.0,0.0,0.0,0.0,0.0,0.0,0.0,0.0,0.0,0.0,0.0,0.0,0.0,0.0,0.0,0.0,0.0,0.0,0.0,0.0,0.0,0.0,0.0,0.0,0.0,0.0,0.0,0.0,1.1397,1.0944,1.1726,1.1653,1.059,0.997,0.965,0.0,0.0,0.0,0.0,0.0,0.0,0.0,0.0,0.0,0.0,0.0,0.0,0.0,0.0,0.0,0.0,0.0,0.0,0.0,0.0,0.0,0.0,0.0,0.0,0.0,0.0,0.0,0.0,0.0,0.0,0.0,0.0,0.0,0.0,0.0,0.0,0.0,0.0,0.0,0.0,0.0,0.0,0.0,0.0,0.0,0.0,0.0,0.0,0.7897,0.0,0.0,0.0,0.0,0.0,0.0,0.0,0.0,0.0,0.0,0.0,0.0,0.0,0.0,0.0,0.0,0.0,0.0,0.0,0.0,0.0,0.0,0.0,0.0,0.0,0.0,0.0,0.0,0.0,0.0,0.0,0.0,0.0,0.0,0.0,0.0,0.0,0.0,0.0,0.0,0.0,0.0,0.0,0.0,0.0,0.0,0.0,0.0,0.0,0.0,0.0,0.0,0.0,0.0,0.0,0.0,0.0,0.0,0.0,1.2474,1.2939,1.2174,1.2033,1.2453,1.1377,1.0595,0.0,0.0,0.0,0.0,0.0,0.0,0.0,0.0,0.0,0.0,0.0,0.0,0.0,0.0,0.0,0.0,0.0,0.0,0.0,0.0,0.0,0.0,0.0,0.0,0.0,0.0,0.0,0.0,0.0,0.0,0.0,0.0,0.0,0.0,0.0,0.0,0.0,0.0,0.0,0.0,0.0,0.0,0.0,0.0,0.0,0.0,0.0,0.0,0.0,0.0,0.0,0.0,0.0,0.0,0.0,0.0,0.0,0.0,0.0,0.0,0.0,0.0,0.0,0.0,0.0,0.0,0.0,0.0,0.0,0.0,0.0,0.0,0.0,0.0,0.0,0.0,0.0,0.0,0.0,0.0,0.0,0.0,0.0,0.0,0.0,0.0,0.0,0.0,0.0,0.0,0.0,0.0,0.0,0.0,0.0,0.0,0.0,0.0,0.0,0.0,0.0,0.0,0.0,0.0,0.0,0.0,0.0,1.3498,1.3761,1.4994,1.2986,1.2739,1.46,1.3353,1.2139,1.1237,0.0,0.0,0.0,0.0,0.0,0.0,0.0,0.0,0.0,0.0,0.0,0.0,0.0,0.0,0.0,0.0,0.0,0.0,0.0,0.0,0.0,0.0,0.0,0.0,0.0,0.0,0.0,0.0,0.0,0.0,0.0,0.0,0.0,0.0,0.0,0.0,0.0,0.0,0.7768,0.7996,0.0,0.0,0.0,0.0,0.0,0.0,0.0,0.0,0.8989,0.0,0.0,0.0,0.0,0.0,0.0,0.0,0.0,0.0,0.0,0.0,0.0,0.0,0.0,0.0,0.0,0.0,0.0,0.0,0.0,0.0,0.0,0.0,0.0,0.0,0.0,0.0,0.0,0.0,0.0,0.0,0.0,0.0,0.0,0.0,0.0,0.0,0.0,0.0,0.0,0.0,0.0,0.0,0.0,0.0,0.0,0.0,0.0,0.0,0.0,0.0,0.0,0.0,0.0,0.0,0.0,1.4787,1.5314,1.5363,1.5041,1.5876,1.5846,1.4863,1.5286,1.4996,1.3674,0.0,0.0,0.0,0.0,0.0,0.0,0.0,0.0,0.0,0.0,0.0,0.0,0.0,0.0,0.0,0.0,0.0,0.0,0.0,0.0,0.0,0.0,0.0,0.0,0.0,0.0,0.0,0.0,0.0,0.0,0.0,0.0,0.0,0.0,0.0,0.0,0.0,0.0,0.0,0.8729,0.8975,0.0,0.0,0.0,0.0,0.0,0.0,0.0,0.0,1.0004,0.0,0.0,0.0,0.0,0.0,0.0,0.0,0.0,0.0,0.0,0.0,0.0,0.0,0.0,0.0,0.0,0.0,0.0,0.0,0.0,0.0,0.0,0.0,0.0,0.0,0.0,0.0,0.0,0.0,0.0,0.0,0.0,0.0,0.0,0.0,0.0,0.0,0.0,0.0,0.0,0.0,0.0,0.0,0.0,0.0,0.0,0.0,0.0,0.0,0.0,0.0,0.0,0.0,0.0,0.0,1.5747,1.5767,1.6164,1.6894,1.6397,1.6244,1.6693,1.636,1.5949,0.0,0.0,0.0,0.0,0.0,0.0,0.0,0.0,0.0,0.0,0.0,0.0,0.0,0.0,0.0,0.0,0.0,0.0,0.0,0.0,0.0,0.0,0.0,0.0,0.0,0.0,0.0,0.0,0.0,0.0,0.0,0.0,0.0,0.0,0.0,0.0,0.0,0.0,0.0,0.0,0.976,1.0155,0.989,0.0,0.0,0.0,0.0,0.0,0.0,1.1149,1.0936,0.0,0.0,0.0,0.0,0.0,0.0,0.0,0.0,0.0,0.0,0.0,0.0,0.0,0.0,0.0,0.0,0.0,0.0,0.0,0.0,0.0,0.0,0.0,0.0,0.0,0.0,0.0,0.0,0.0,0.0,0.0,0.0,0.0,0.0,0.0,0.0,0.0,0.0,0.0,0.0,0.0,0.0,0.0,0.0,0.0,0.0,0.0,0.0,0.0,0.0,0.0,0.0,0.0,0.0,0.0,1.6742,1.6275,1.6896,1.8685,1.6816,1.6608,1.8477,1.7253,1.6573,0.0,0.0,0.0,0.0,0.0,0.0,0.0,0.0,0.0,0.0,0.0,0.0,0.0,0.0,0.0,0.0,0.0,0.0,0.0,0.0,0.0,0.0,0.0,0.0,0.0,0.0,0.0,0.0,0.0,0.0,0.0,0.0,0.0,0.0,0.0,0.0,0.0,0.0,0.0,0.0,0.0,1.1249,1.105,1.1603,0.0,0.0,0.0,0.0,1.1675,1.1999,0.0,0.0,0.0,0.0,0.0,0.0,0.0,0.0,0.0,0.0,0.0,0.0,0.0,0.0,0.0,0.0,0.0,0.0,0.0,0.0,0.0,0.0,0.0,0.0,0.0,0.0,0.0,0.0,0.0,0.0,0.0,0.0,0.0,0.0,0.0,0.0,0.0,0.0,0.0,0.0,0.0,0.0,0.0,0.0,0.0,0.0,0.0,0.0,0.0,0.0,0.0,0.0,0.0,0.0,0.0,0.0,1.7765,1.7884,1.8342,1.9195,1.8808,1.8674,1.876,1.8333,1.769,0.0,0.0,0.0,0.0,0.0,0.0,0.0,0.0,0.0,0.0,0.0,0.0,0.0,0.0,0.0,0.0,0.0,0.0,0.0,0.0,0.0,0.0,0.0,0.0,0.0,0.0,0.0,0.0,0.0,0.0,0.0,0.0,0.0,0.0,0.0,0.0,0.0,0.0,0.0,0.0,0.0,1.1957,1.17,1.2317,1.2804,0.0,0.0,1.2997,1.2964,1.3321,0.0,0.0,0.0,0.0,0.0,0.0,0.0,0.0,0.0,0.0,0.0,0.0,0.0,0.0,0.0,0.0,0.0,0.0,0.0,0.0,0.0,0.0,0.0,0.0,0.0,0.0,0.0,0.0,0.0,0.0,0.0,0.0,0.0,0.0,0.0,0.0,0.0,0.0,0.0,0.0,0.0,0.0,0.0,0.0,0.0,0.0,0.0,0.0,0.0,0.0,0.0,0.0,0.0,0.0,0.0,1.6959,1.7622,1.8055,1.8676,1.9397,1.9178,1.8976,1.8937,1.8356,1.7687,0.0,0.0,0.0,0.0,0.0,0.0,0.0,0.0,0.0,0.0,0.0,0.0,0.0,0.0,0.0,0.0,0.0,0.0,0.0,0.0,0.0,0.0,0.0,0.0,0.0,0.0,0.0,0.0,0.0,0.0,0.0,0.0,0.0,0.0,0.0,0.0,0.0,0.0,0.0,0.0,0.0,0.0,1.2922,1.3713,0.0,0.0,0.0,1.3886,1.3772,0.0,0.0,0.0,0.0,0.0,0.0,0.0,0.0,0.0,0.0,0.0,0.0,0.0,0.0,0.0,0.0,0.0,0.0,0.0,0.0,0.0,0.0,0.0,0.0,0.0,0.0,0.0,0.0,0.0,0.0,0.0,0.0,0.0,0.0,0.0,0.0,0.0,0.0,0.0,0.0,0.0,0.0,0.0,0.0,0.0,0.0,0.0,0.0,0.0,0.0,0.0,0.0,0.0,0.0,0.0,0.0,0.0,1.7549,1.8169,1.8852,1.9646,1.9343,1.9133,1.9111,1.8325,0.0,0.0,0.0,0.0,0.0,0.0,0.0,0.0,0.0,0.0,0.0,0.0,0.0,0.0,0.0,0.0,0.0,0.0,0.0,0.0,0.0,0.0,0.0,0.0,0.0,0.0,0.0,1.2896,0.0,0.0,0.0,0.0,0.0,0.0,0.0,0.0,0.0,0.0,0.0,0.0,0.0,0.0,1.4159,1.3942,1.4729,1.5146,0.0,0.0,1.4479,1.4321,1.4518,1.4455,0.0,0.0,0.0,0.0,0.0,0.0,0.0,0.0,0.0,0.0,0.0,0.0,0.0,0.0,0.0,0.0,0.0,0.0,0.0,0.0,0.0,0.0,0.0,0.0,0.0,0.0,0.0,0.0,0.0,0.0,0.0,0.0,0.0,0.0,0.0,0.0,0.0,0.0,0.0,0.0,0.0,0.0,0.0,0.0,0.0,0.0,0.0,0.0,0.0,0.0,0.0,0.0,0.0,0.0,1.7468,1.8214,1.8388,1.9022,1.9993,1.975,1.9541,1.9529,1.8777,1.8021,0.0,0.0,0.0,0.0,0.0,0.0,0.0,0.0,0.0,0.0,0.0,0.0,0.0,0.0,0.0,0.0,0.0,0.0,0.0,0.0,0.0,0.0,0.0,0.0,0.0,0.0,0.0,0.0,0.0,0.0,0.0,0.0,0.0,0.0,0.0,0.0,0.0,0.0,0.0,0.0,0.0,1.4672,1.456,1.5033,1.5226,0.0,0.0,1.461,1.459,1.4942,1.5003,1.432,0.0,0.0,0.0,0.0,0.0,0.0,0.0,0.0,0.0,0.0,0.0,0.0,0.0,0.0,0.0,0.0,0.0,0.0,0.0,0.0,0.0,0.0,0.0,0.0,0.0,0.0,0.0,0.0,0.0,0.0,0.0,0.0,0.0,0.0,0.0,0.0,0.0,0.0,0.0,0.0,0.0,0.0,0.0,0.0,0.0,0.0,0.0,0.0,0.0,0.0,0.0,0.0,0.0,1.7648,1.8287,1.8836,1.9561,2.0421,2.011,1.9819,1.9668,1.8714,1.781,0.0,0.0,0.0,0.0,0.0,0.0,0.0,0.0,0.0,0.0,0.0,0.0,0.0,0.0,0.0,0.0,0.0,0.0,0.0,0.0,0.0,0.0,0.0,0.0,0.0,0.0,0.0,0.0,1.4093,1.4151,1.4014,0.0,0.0,0.0,0.0,0.0,0.0,0.0,0.0,0.0,0.0,1.56,1.5746,1.6204,0.0,0.0,1.5817,1.5583,1.5266,1.5448,1.5389,1.4579,1.4542,0.0,0.0,0.0,0.0,0.0,0.0,0.0,0.0,0.0,0.0,0.0,0.0,0.0,0.0,0.0,0.0,0.0,0.0,0.0,0.0,0.0,0.0,0.0,0.0,0.0,0.0,0.0,0.0,0.0,0.0,0.0,0.0,0.0,0.0,0.0,0.0,0.0,0.0,0.0,0.0,0.0,0.0,0.0,0.0,0.0,0.0,0.0,0.0,0.0,0.0,0.0,0.0,1.7551,1.8167,1.8867,1.9627,2.0424,2.0161,1.9941,1.974,1.8722,1.7897,0.0,0.0,0.0,0.0,0.0,0.0,0.0,0.0,0.0,0.0,0.0,0.0,0.0,0.0,0.0,0.0,0.0,0.0,0.0,0.0,0.0,0.0,0.0,0.0,0.0,0.0,0.0,0.0,1.4459,1.4451,1.4319,0.0,0.0,0.0,0.0,0.0,0.0,0.0,0.0,0.0,0.0,1.6153,1.6489,1.6911,1.7066,1.6823,1.656,1.6324,1.592,1.5921,1.5731,1.5077,0.0,0.0,0.0,0.0,0.0,0.0,0.0,0.0,0.0,0.0,0.0,0.0,0.0,0.0,0.0,0.0,0.0,0.0,0.0,0.0,0.0,0.0,0.0,0.0,0.0,0.0,0.0,0.0,0.0,0.0,1.6138,0.0,0.0,0.0,0.0,0.0,0.0,0.0,0.0,0.0,0.0,0.0,0.0,0.0,0.0,0.0,0.0,0.0,0.0,0.0,0.0,0.0,0.0,1.7105,1.7877,1.8506,1.9108,1.9881,1.9905,1.9905,1.9869,1.9108,1.844,1.7822,0.0,0.0,0.0,0.0,0.0,0.0,0.0,0.0,0.0,0.0,0.0,0.0,0.0,0.0,0.0,0.0,0.0,0.0,0.0,0.0,0.0,0.0,0.0,0.0,0.0,0.0,1.4826,1.4735,1.4565,0.0,0.0,0.0,0.0,0.0,0.0,0.0,0.0,0.0,0.0,1.5919,1.6343,1.6492,1.6808,1.6949,1.6619,1.6549,1.649,1.6478,1.6264,1.6038,0.0,0.0,0.0,0.0,0.0,0.0,0.0,0.0,0.0,0.0,0.0,0.0,0.0,0.0,0.0,0.0,0.0,0.0,0.0,0.0,0.0,0.0,0.0,0.0,0.0,0.0,0.0,1.8299,1.8089,0.0,0.0,0.0,0.0,0.0,0.0,0.0,0.0,0.0,0.0,0.0,2.005,1.985,0.0,0.0,0.0,0.0,0.0,0.0,0.0,0.0,0.0,0.0,0.0,0.0,1.7424,1.8224,1.8976,1.9775,2.051,2.0347,2.003,1.9674,1.9042,1.8189,1.715,0.0,0.0,0.0,0.0,0.0,0.0,0.0,0.0,0.0,0.0,0.0,0.0,0.0,0.0,0.0,0.0,0.0,0.0,0.0,0.0,0.0,0.0,0.0,0.0,0.0,1.4701,0.0,0.0,0.0,0.0,0.0,0.0,0.0,0.0,0.0,0.0,0.0,1.5352,1.5918,1.6424,1.6938,1.7339,1.7506,1.7565,0.0,0.0,0.0,0.0,0.0,0.0,0.0,0.0,0.0,0.0,0.0,0.0,0.0,0.0,1.468,1.4527,1.4625,1.479,1.4735,0.0,0.0,0.0,0.0,0.0,0.0,0.0,0.0,0.0,0.0,0.0,0.0,0.0,0.0,1.9932,0.0,1.9376,0.0,0.0,0.0,0.0,0.0,0.0,0.0,0.0,2.0301,2.0545,2.0666,2.0564,2.0425,0.0,1.9302,1.858,0.0,0.0,0.0,0.0,0.0,0.0,0.0,0.0,1.7767,1.8703,1.9244,1.9966,2.0733,2.0457,2.0151,1.9788,1.9323,1.857,1.7511,1.7061,1.6614,0.0,0.0,0.0,0.0,0.0,0.0,0.0,0.0,0.0,0.0,0.0,0.0,0.0,0.0,0.0,0.0,0.0,0.0,0.0,0.0,0.0,0.0,0.0,1.4891,0.0,0.0,0.0,0.0,0.0,0.0,0.0,0.0,0.0,1.4881,1.5186,1.5603,1.6081,1.6511,1.6934,1.743,0.0,0.0,0.0,0.0,0.0,0.0,0.0,1.6821,1.6704,1.6588,1.6483,1.6483,1.6218,1.6035,1.6046,0.0,0.0,1.5592,1.5671,1.584,1.584,1.584,1.584,1.584,1.584,1.584,0.0,0.0,0.0,0.0,0.0,0.0,0.0,0.0,2.1063,2.0917,0.0,2.0548,0.0,0.0,0.0,0.0,0.0,2.0119,0.0,0.0,2.1073,2.1267,2.1117,2.1347,2.0974,2.0183,1.9939,1.9517,1.8967,1.8446,0.0,0.0,0.0,0.0,0.0,0.0,1.8249,1.9345,1.943,1.9794,2.0652,2.0374,2.017,2.0081,1.9851,1.9443,1.892,1.8601,1.8159,1.764,1.7072,0.0,0.0,0.0,0.0,0.0,0.0,0.0,0.0,0.0,0.0,0.0,0.0,0.0,0.0,0.0,0.0,0.0,0.0,0.0,0.0,1.5532,0.0,0.0,0.0,0.0,0.0,0.0,0.0,0.0,0.0,0.0,1.4705,1.5158,1.5629,1.5889,0.0,0.0,0.0,0.0,1.708,1.708,1.7092,1.7177,1.7418,1.7018,1.6748,1.7035,0.0,0.0,1.702,1.6773,1.6526,1.6526,1.6809,1.6798,1.6023,1.5942,1.5886,1.5886,1.5954,1.5874,1.5863,1.5965,1.5954,2.3346,0.0,0.0,0.0,0.0,2.1832,2.2122,2.2664,2.2677,2.2477,2.2185,2.1696,0.0,0.0,0.0,0.0,0.0,0.0,2.0838,2.0929,2.1765,2.2244,2.2432,2.2177,2.2111,2.21,2.1152,2.0788,2.0889,2.0484,1.9573,1.829,0.0,0.0,0.0,0.0,1.939,1.9786,2.0584,2.1218,2.1664,2.1362,2.0952,2.0565,1.982,1.9421,1.9252,1.8551,1.7938,1.7603,1.7092,0.0,0.0,0.0,0.0,0.0,0.0,0.0,0.0,0.0,0.0,0.0,0.0,0.0,0.0,0.0,0.0,0.0,0.0,0.0,1.5549,1.5512,1.535,0.0,0.0,0.0,0.0,0.0,0.0,0.0,0.0,0.0,1.5227,1.557,1.5887,0.0,0.0,1.638,1.6658,1.6767,1.6815,1.6815,1.6972,0.0,0.0,1.7119,1.7193,1.7117,1.7252,1.7373,1.7373,1.7256,1.7185,1.7185,1.7303,1.7255,1.7065,1.7018,1.7018,1.7018,1.7018,1.7018,1.7018,1.7018,1.7006,2.4836,2.3594,2.302,2.2846,2.2939,2.2832,2.306,2.35,2.35,2.3394,2.3207,2.2706,2.2174,2.1714,2.1254,0.0,0.0,0.0,2.1856,2.1845,2.2525,2.3091,2.3403,2.3133,2.3116,2.3116,2.2079,2.1628,2.19,2.1404,2.0736,1.9775,0.0,0.0,1.8994,1.9688,2.0316,2.0842,2.1399,2.192,2.2292,2.1978,2.1589,2.1039,2.0551,2.0201,2.0139,1.9447,1.8845,1.8329,1.788,1.7185,0.0,0.0,0.0,0.0,0.0,0.0,0.0,0.0,0.0,0.0,0.0,1.4828,1.493,0.0,0.0,0.0,1.5417,1.5624,1.5951,1.5964,0.0,0.0,0.0,0.0,0.0,0.0,0.0,1.5009,1.5285,1.5499,1.5499,1.5728,1.5946,1.6103,1.6127,1.6187,1.6356,0.0,1.6537,1.6537,1.667,1.6754,1.6706,1.6875,1.6996,1.6948,1.7153,1.7322,1.7334,1.7406,1.7479,1.7479,1.7479,1.7479,1.7479,1.7406,1.737,1.7467,1.7479,1.7455,1.7358,1.7406,1.7455,2.6132,2.5491,2.4115,2.3674,2.3834,2.3554,2.3607,2.3861,2.3848,2.3821,2.3781,2.35,2.3166,2.2861,2.2591,0.0,2.2057,2.2807,2.3092,2.3036,2.3384,2.3753,2.402,2.402,2.3851,2.35,2.2628,2.2185,2.2167,2.1605,2.1431,2.1689,2.119,2.0758,2.0428,2.0412,2.1024,2.2151,2.1916,2.2072,2.2606,2.2341,2.1998,2.1718,2.16,2.1418,2.1184,2.0816,2.0216,1.931,1.9011,1.8279,1.6882,0.0,0.0,0.0,0.0,0.0,0.0,0.0,0.0,0.0,0.0,0.0,0.0,0.0,0.0,0.0,1.6411,0.0,1.6709,1.667,0.0,0.0,0.0,1.6049,1.5973,1.5733,1.5569,1.5581,0.0,0.0,1.5587,1.5793,1.5939,1.5939,1.5939,1.5885,1.5885,1.6103,1.6302,1.6247,1.6326,1.6368,1.6549,1.6465,1.6465,1.6694,1.6899,1.7056,1.7068,1.7237,1.7394,1.7382,1.7418,1.7406,1.7418,1.7201,1.7141,1.7358,1.7394,1.7334,1.7117,1.7225,1.7322,2.6841,2.644,2.5665,2.5117,2.4743,2.4449,2.4489,2.4743,2.4529,2.4302,2.4075,2.3794,2.3247,2.2512,2.2445,2.2271,2.2057,2.3015,2.322,2.3036,2.3877,2.4288,2.436,2.4102,2.4008,2.389,2.3196,2.27,2.2495,2.2338,2.22,2.2033,2.2118,2.174,2.1058,2.168,2.197,2.1836,2.2432,2.2846,2.2966,2.2686,2.2451,2.2378,2.1675,2.1156,2.0843,2.0301,1.9724,1.9029,1.8917,1.8503,1.774,1.7435,0.0,0.0,0.0,0.0,0.0,0.0,0.0,0.0,0.0,1.5758,1.5808,0.0,1.6453,0.0,1.6643,1.6706,1.6683,1.667,0.0,0.0,1.6253,1.6138,1.5998,1.6049,1.6112,1.6112,1.6313,1.6424,1.6424,1.6486,1.6524,1.6471,1.6152,1.5885,1.5897,1.5934,1.5982,1.6006,1.6151,1.6223,1.6139,1.6211,1.638,1.6658,1.6754,1.6791,1.6791,1.6839,1.6887,1.6887,1.6887,1.6887,1.6899,1.6827,1.6815,1.6875,1.6887,1.6875,1.6803,1.6851,1.6936,2.7175,2.6974,2.64,2.5892,2.5438,2.501,2.493,2.505,2.4756,2.4543,2.4369,2.3955,2.3571,2.3213,2.2943,2.2862,2.2928,2.3482,2.37,2.3714,2.4221,2.4563,2.4781,2.4578,2.4453,2.4305,2.3414,2.29,2.2634,2.2462,2.2319,2.2148,2.2584,2.2471,2.1886,2.2326,2.2471,2.2335,2.2868,2.3106,2.3106,2.2784,2.2564,2.2418,2.1757,2.122,2.07,2.0358,1.9861,1.9102,1.9059,1.8833,1.8198,1.7942,1.7581,0.0,0.0,0.0,0.0,0.0,0.0,0.0,0.0,0.0,0.0,0.0,1.6895,1.6895,1.6895,1.6948,1.7107,1.7107,1.7042,1.6886,1.6873,1.6808,1.6703,1.673,1.6716,1.6716,1.67,1.667,1.667,1.667,1.667,1.667,1.6365,1.6057,1.6057,1.6004,1.5885,1.5897,1.6018,1.6066,1.591,1.6006,1.6163,1.6308,1.6441,1.6513,1.6525,1.6622,1.6694,1.6694,1.6694,1.6694,1.6694,1.6585,1.6513,1.6501,1.6416,1.6392,1.6489,1.661,1.673,2.7228,2.7201,2.66,2.6186,2.5905,2.5331,2.5152,2.5139,2.4831,2.4609,2.4543,2.4048,2.3995,2.4099,2.3597,2.3543,2.3884,2.3924,2.4128,2.4495,2.4578,2.4781,2.5119,2.509,2.4803,2.4423,2.3501,2.2912,2.2553,2.2266,2.2137,2.2166,2.2715,2.2901,2.2637,2.2667,2.2828,2.3106,2.3106,2.3091,2.3047,2.274,2.2418,2.2125,2.1759,2.1291,2.0691,2.0618,2.0215,1.9366,1.927,1.9035,1.8541,1.8288,1.8016,0.0,1.7434,0.0,0.0,0.0,0.0,0.0,0.0,0.0,0.0,1.7317,1.7384,1.7331,1.7384,1.7437,1.7635,1.7635,1.7635,1.7582,1.7582,1.7582,1.7582,1.7384,1.7226,1.7226,1.7001,1.6776,1.6842,1.6842,1.6829,1.6842,1.6643,1.643,1.6377,1.6111,1.5885,1.5885,1.5885,1.591,1.5885,1.5897,1.591,1.5922,1.6091,1.6223,1.6235,1.6416,1.6585,1.6573,1.6561,1.6573,1.6598,1.6392,1.6235,1.6235,1.6066,1.6006,1.6187,1.6392,1.6513,2.7041,2.7269,2.6373,2.6077,2.5983,2.5331,2.5302,2.5589,2.5215,2.4796,2.4275,2.4168,2.3919,2.3464,2.3157,2.3201,2.3529,2.3551,2.3916,2.4495,2.4849,2.5052,2.5037,2.4788,2.4415,2.3779,2.332,2.2653,2.1907,2.2105,2.2076,2.1821,2.2367,2.2681,2.2637,0.0,0.0,0.0,2.3106,2.2988,2.2725,2.2432,2.2111,2.1789,2.1218,0.0,2.03,2.0091,1.9769,1.9351,1.9307,0.0,0.0,0.0,0.0,0.0,0.0,0.0,0.0,0.0,0.0,0.0,1.7775,1.7701,1.7821,1.8047,1.816,1.816,1.816,1.8122,1.7964,1.7911,1.7859,1.7635,1.7582,1.7582,1.7582,1.7529,1.7529,1.7529,1.7477,1.7424,1.7424,1.7424,1.7424,1.7371,1.7173,1.7067,1.7014,1.6365,1.5939,1.5885,1.5885,1.5885,1.5885,1.5885,1.5885,1.5897,1.5922,1.597,1.5982,1.6006,1.6054,1.6066,1.6042,1.6054,1.6054,1.5994,1.5982,1.597,1.5922,1.591,1.5958,1.6006,1.6091,2.6827,0.0,2.6039,2.5665,0.0,2.5275,2.5235,2.5445,2.5073,2.4703,2.4396,2.4115,2.3892,2.3712,2.2981,2.3134,2.3938,2.3495,2.3708,2.4535,2.4535,2.4509,2.432,2.4159,2.3837,2.334,2.2871,2.2294,2.1749,2.2049,2.2049,2.1675,2.228,2.271,2.2857,2.3032,2.3106,2.3106,2.3106,2.3032,2.2857,2.2418,2.2096,2.192,0.0,0.0,0.0,0.0,0.0,0.0,0.0,0.0,0.0,0.0,0.0,1.8692,1.8522,1.84,1.8244,1.8229,1.8352,1.8597,1.8663,1.8508,1.825,1.8338,1.8422,1.8422,1.8422,1.8318,1.8227,1.8174,1.8122,1.8003,1.8003,1.8003,1.8003,1.7898,1.7793,1.7806,1.7687,1.7582,1.7582,1.7582,1.7582,1.7582,1.7384,1.7239,1.7173,1.6696,1.6258,1.6111,1.6004,1.5885,1.5885,1.5885,1.5885,1.5885,1.5885,1.5885,1.5885,1.5885,1.5885,1.5885,1.5885,1.5885,1.5885,1.5885,1.5885,1.5885,1.5885,1.5885,1.5885,1.5885,1.5922,2.66,2.6333,2.5758,2.5344,2.5139,2.514,2.5079,2.5079,0.0,0.0,0.0,2.3981,2.3927,2.3977,2.2862,2.3064,2.4196,2.3373,2.3476,2.459,2.4242,2.4035,2.3866,2.3735,2.3515,2.3179,2.2564,2.2093,2.1795,2.2064,2.2049,2.1884,2.2355,2.2784,2.3091,2.3106,2.3106,2.3106,2.3106,2.3091,2.3018,2.2476,2.2154,2.2096,2.1203,2.0533,2.027,1.9959,1.9638,1.9426,1.9301,1.9272,1.9272,1.9272,1.9182,1.8974,1.8974,1.8974,1.8974,1.8974,1.9078,1.9272,1.9272,1.9063,1.8579,1.8593,1.8527,1.8527,1.8527,1.8527,1.8475,1.8489,1.8475,1.8422,1.8422,1.837,1.837,1.8227,1.8069,1.8069,1.7898,1.7767,1.7781,1.7781,1.7715,1.7662,1.749,1.7318,1.7239,1.6948,1.6577,1.643,1.6164,1.5992,1.5992,1.5939,1.5885,1.5885,1.5885,1.5885,1.5885,1.5885,1.5885,1.5885,1.5885,1.591,1.5946,1.5922,1.591,1.5946,1.5922,1.5885,1.5885,1.5885,1.591,2.6426,2.6333,2.5758,2.5344,2.5064,2.4844,2.471,2.471,2.5005,2.4661,2.3888,2.3808,2.3544,2.309,2.2392,2.2619,2.3488,2.2898,2.3245,0.0,2.4438,2.4598,2.4818,2.4276,2.3837,2.3501,2.2871,2.2432,2.2138,2.2184,2.2184,2.2153,2.2416,2.2784,2.3076,2.3106,2.3106,2.3106,2.3106,2.2974,2.2696,2.2359,2.2052,2.1759,2.1101,2.0706,2.0647,2.0077,1.9793,1.9749,1.9485,1.9272,1.9272,1.9286,1.9272,1.9272,1.922,1.922,1.922,1.922,1.9272,1.9272,1.9272,1.9272,1.9168,1.9168,1.9168,1.9168,1.9168,1.9063,1.8869,1.8831,1.8712,1.8475,1.8422,1.8422,1.8422,1.837,1.837,1.837,1.8318,1.8284,1.8331,1.8346,1.8198,1.7983,1.7848,1.7769,1.749,1.7041,1.6736,1.663,1.643,1.6271,1.6189,1.6057,1.5987,1.5885,1.5922,1.5958,1.5958,1.5934,1.5922,1.5897,1.5897,1.597,1.6139,1.603,1.6006,1.6115,1.603,1.591,1.5897,1.591,1.5982,2.6199,2.5879,2.5451,2.5024,2.4583,2.4289,2.4262,2.4382,2.4453,2.4354,2.4195,2.3741,2.346,2.3273,2.2392,2.2418,2.3133,2.2545,2.2831,2.3634,2.3914,2.4041,2.397,2.3714,2.3471,2.3296,2.2681,2.2389,2.2418,2.2418,2.2432,2.2462,2.2915,2.3149,2.312,2.3281,2.3369,2.3369,2.3193,2.3032,2.2886,2.2579,2.2271,2.1964,2.132,2.0896,2.072,2.0267,2.0018,2.0018,1.9872,1.9711,1.9603,1.9588,1.9588,1.9588,1.9588,1.9588,1.9588,1.9426,1.9272,1.9272,1.9272,1.9272,1.9272,1.9272,1.9272,1.9272,1.9272,1.9234,1.913,1.929,1.9266,1.8921,1.905,1.9079,1.8883,1.875,1.8646,1.866,1.8537,1.8478,1.8508,1.851,1.8454,1.8277,1.817,1.7876,1.749,1.7303,1.7126,1.6911,1.6696,1.6493,1.6331,1.6357,1.6247,1.6127,1.6235,1.6308,1.6308,1.6223,1.6115,1.6091,1.5994,1.5946,1.6066,1.6103,1.6103,1.603,1.6127,1.6054,1.5958,1.6265,1.6581,2.6052,2.5491,2.5197,2.4703,2.4102,2.3941,2.3995,2.4168,2.3901,2.4062,2.4382,2.3674,2.338,2.3354,2.2418,2.235,2.2726,2.2342,2.2432,2.3078,2.3365,2.3434,2.33,2.3203,2.3126,2.3112,2.2573,2.2445,2.2649,2.2602,2.2708,2.2886,2.3427,2.3574,2.334,2.3501,2.3603,2.3574,2.3281,2.3106,2.3091,2.2784,2.2476,2.2169,2.1628,2.1174,2.0837,2.0516,2.0285,2.0285,2.0227,2.012,1.9886,1.9852,1.9808,1.9808,1.9808,1.9852,1.9857,1.9638,1.9491,1.9491,1.9491,1.9491,1.9491,1.9491,1.9462,1.9403,1.9403,1.9418,1.9535,1.9711,1.9769,1.9535,1.9691,1.9652,1.9433,1.9232,1.9089,1.9065,1.8935,1.8808,1.881,1.8713,1.8642,1.845,1.8237,1.7848,1.7516,1.7526,1.7508,1.7321,1.7034,1.6765,1.6545,1.6581,1.6573,1.6392,1.6537,1.6622,1.6622,1.6489,1.6344,1.6284,1.6127,1.603,1.6006,1.6066,1.6115,1.6042,1.6091,1.6091,1.5946,1.6508,1.7036,2.6039,2.5504,2.5197,2.4583,2.3861,2.4035,2.4142,2.4155,2.3888,2.3941,2.4182,2.3594,2.3033,2.2539,2.2164,2.2138,2.2432,2.215,2.2484,2.3201,2.3171,2.3387,2.3806,2.3335,2.3193,2.3336,2.2806,2.2721,2.3029,2.2764,2.2894,2.3515,2.3866,2.4013,2.3954,2.3735,2.3603,2.3588,2.3281,2.3106,2.3091,2.2784,2.2476,2.2184,2.1832,2.1496,2.1159,2.0852,2.0676,2.0662,2.0358,2.0183,2.0179,1.993,1.9823,1.9837,1.9823,1.9886,2.0095,2.0164,2.012,2.0095,2.0066,2.0051,2.0066,2.0081,2.0018,1.9798,1.9779,1.9828,2.0106,2.0164,2.0164,2.0008,1.993,1.9793,1.9779,1.9725,1.9711,1.9725,1.9625,1.9692,1.9556,1.9331,1.8996,1.8557,1.833,1.8008,1.782,1.7697,1.7673,1.7728,1.7435,1.7117,1.6993,1.6838,1.673,1.6682,1.6682,1.6754,1.6779,1.6718,1.6598,1.6392,1.626,1.6211,1.6139,1.6115,1.603,1.6091,1.6054,1.5922,1.5975,1.6422,1.6929,2.5945,2.5264,2.513,2.4476,2.3581,2.3447,2.3621,2.3901,2.3634,2.3768,2.4075,2.3394,2.2913,2.2645,2.2191,2.1964,2.1897,2.1856,2.2016,2.2592,2.2861,2.3171,2.3361,2.3388,2.3295,2.3196,2.2772,2.2865,2.3263,2.342,2.3534,2.3632,2.3925,2.4086,2.4071,2.3954,2.3969,2.4145,2.3662,2.3398,2.334,2.2886,2.2389,2.1935,2.1759,2.154,2.1233,2.1072,2.1013,2.0998,2.0881,2.0664,2.053,2.0398,2.0325,2.0325,2.0325,2.0384,2.0516,2.0285,2.0183,2.0183,2.0183,2.0183,2.0183,2.0183,2.0252,2.0311,2.015,2.0106,2.0237,2.0343,2.0387,2.0296,2.0281,2.0252,2.0062,2.0047,1.9993,1.9845,1.983,1.9724,1.9526,1.9407,1.9152,1.8811,1.8568,1.838,1.7916,1.7772,1.7741,1.7546,1.7391,1.731,1.7143,1.7195,1.7068,1.6996,1.7068,1.7153,1.7129,1.7008,1.6839,1.6573,1.6416,1.6247,1.6042,1.6127,1.6139,1.6127,1.6072,1.5939,1.6111,1.6493,1.6929,2.5464,2.4744,2.4714,2.4142,2.322,2.314,2.3367,2.3728,2.3621,2.3768,2.3968,2.322,2.2766,2.2565,2.2084,2.1815,2.1641,2.1614,2.1775,2.2057,2.2537,2.2739,2.2874,2.2976,2.3036,2.2855,2.2493,2.2552,2.3035,2.3587,2.3694,2.3548,2.3796,2.3956,2.3941,2.3883,2.3927,2.4101,2.3758,2.3545,2.3413,2.3003,2.2462,2.1891,2.1745,2.154,2.1233,2.1203,2.1203,2.1203,2.1203,2.1101,2.0867,2.0779,2.0664,2.0664,2.0664,2.0708,2.0837,2.0633,2.0501,2.0516,2.0501,2.0446,2.0446,2.0501,2.0603,2.0794,2.0633,2.0516,2.053,2.072,2.0735,2.0545,2.0606,2.0507,2.0233,2.0149,1.9984,1.9847,1.9808,1.9651,1.9464,1.9428,1.9411,1.8971,1.8848,1.8751,1.8117,1.7981,1.7849,1.7477,1.7533,1.7382,1.7249,1.731,1.7358,1.7322,1.7346,1.743,1.7479,1.7298,1.7117,1.6851,1.6598,1.6399,1.6259,1.6284,1.6139,1.597,1.5885,1.5939,1.6111,1.6402,1.655,2.4377,2.3718,2.3838,2.3487,2.2995,2.346,2.3728,2.3808,2.4035,2.4035,2.371,2.3097,2.2565,2.2018,2.1712,2.1577,2.1614,2.1614,2.1762,2.1951,2.207,2.2151,2.2432,2.225,2.2322,2.2408,2.197,2.1773,2.185,2.2737,2.3156,2.3107,2.3443,2.3616,2.3573,2.3329,2.3199,2.3364,2.3534,2.3471,2.3193,2.312,2.2725,2.2169,2.1847,2.154,2.1247,2.1203,2.1203,2.1203,2.1203,2.1189,2.1159,2.0896,2.075,2.0735,2.0735,2.0867,2.1115,2.113,2.1115,2.113,2.1086,2.1145,2.1072,2.1072,2.1086,2.1174,2.1115,2.1086,2.1086,2.1029,2.1073,2.1029,2.0599,2.0371,2.0272,2.0075,1.985,1.9822,1.9804,1.9669,1.9435,1.9635,1.9469,1.9095,1.8945,1.8875,1.8704,1.8363,1.8135,1.8068,1.7877,1.7537,1.7455,1.7455,1.7467,1.743,1.7418,1.7479,1.7479,1.7443,1.7286,1.7117,1.6863,1.6709,1.6606,1.6397,1.6101,1.5939,1.5885,1.5939,1.6196,1.6016,1.6216,2.3664,2.3252,2.3253,2.3166,2.3193,2.3407,2.3701,2.3976,2.3575,2.3447,2.3297,2.2216,2.1565,2.134,2.1002,2.0993,2.1296,2.1521,2.1681,2.1737,2.1897,2.1951,2.1857,2.1948,2.1959,2.1865,2.169,2.171,2.1993,2.272,2.2956,2.2801,2.2871,2.2928,2.2913,2.2829,2.3085,2.3673,2.3501,2.3441,2.3632,2.2945,2.2403,2.2184,2.1862,2.154,2.1218,2.1203,2.1203,2.1203,2.1203,2.1203,2.1203,2.1101,2.1042,2.1028,2.1028,2.1086,2.1189,2.1203,2.1203,2.1203,2.1203,2.1203,2.1203,2.1203,2.1203,2.1203,2.1203,2.1203,2.1146,2.1031,2.0902,2.0831,2.053,2.0273,2.0345,2.033,2.033,2.0116,1.9927,1.9707,1.9488,1.9488,1.9435,1.9296,1.9199,1.9141,1.8955,1.8724,1.8474,1.8215,1.796,1.7726,1.755,1.7479,1.7479,1.7479,1.7479,1.7479,1.7479,1.7479,1.7358,1.7189,1.6984,1.6786,1.6704,1.6505,1.6184,1.5939,1.5939,1.6172,1.6385,1.6299,1.6451,2.2297,2.2286,2.2409,2.244,2.2556,2.2737,2.3034,2.3396,2.2974,2.278,2.2632,2.1568,2.0933,2.0798,2.0392,2.0343,2.067,2.0966,2.1082,2.1173,2.1385,2.1541,2.1617,2.175,2.1737,2.1628,2.1443,2.1545,2.1815,2.2378,2.2493,2.2298,2.2298,2.2298,2.2298,2.2298,2.2692,2.3224,2.3199,2.3328,2.3732,2.2981,2.2436,2.2265,2.1947,2.1525,2.1233,2.1203,2.1203,2.1203,2.1203,2.1203,2.1203,2.1203,2.1203,2.1203,2.1203,2.1203,2.1203,2.1203,2.1203,2.1203,2.1203,2.1203,2.1203,2.1203,2.1203,2.1203,2.1089,2.1089,2.1089,2.0788,2.0673,2.073,2.0443,2.0213,2.027,2.0256,2.0141,1.9968,1.9866,1.9707,1.9475,1.9475,1.9475,1.943,1.943,1.9301,1.9113,1.8823,1.8706,1.8311,1.8018,1.7843,1.7667,1.7608,1.7479,1.7479,1.7479,1.7479,1.7537,1.7537,1.7489,1.7261,1.7101,1.6903,1.6722,1.6567,1.6353,1.6094,1.623,1.6439,1.6551,1.6626,1.6859,2.0255,2.0836,2.1222,2.134,2.1244,2.1716,2.1812,2.2044,2.2102,2.198,2.1751,2.1138,2.065,2.0479,1.9987,1.9766,1.9814,1.9971,2.0131,2.0195,2.0476,2.0903,2.1445,2.1537,2.1614,2.1561,2.1256,2.1122,2.1212,2.1506,2.1669,2.1642,2.1655,2.1669,2.1628,2.1669,2.1792,2.2263,2.273,2.3126,2.3406,2.3079,2.2716,2.2486,2.1947,2.1478,2.1204,2.1218,2.1203,2.1203,2.1203,2.1203,2.1203,2.1203,2.1203,2.1203,2.1203,2.1203,2.1203,2.1203,2.1203,2.1203,2.1203,2.1203,2.1203,2.1203,2.1203,2.1146,2.096,2.0845,2.1031,2.0687,2.05,2.0974,2.0342,1.9982,2.0053,1.9764,1.943,1.9546,1.9649,1.9707,1.9533,1.9533,1.9591,1.9417,1.943,1.943,1.9301,1.8952,1.8648,1.859,1.824,1.7901,1.7784,1.7726,1.7608,1.7479,1.7479,1.755,1.7608,1.7608,1.7726,1.7579,1.7555,1.7365,1.6974,1.6832,1.6688,1.6468,1.6634,1.665,1.6816,1.6942,1.7258,1.9854,1.9726,2.0283,2.0682,2.0935,2.1254,2.1638,2.1941,2.1437,2.111,2.0874,1.9919,1.9446,1.9419,1.9347,1.905,1.8687,1.8974,1.931,1.9609,2.0015,2.0362,2.0618,2.1065,2.1243,2.1243,2.1162,2.1109,2.1109,2.1235,2.1235,2.1235,2.1222,2.1235,2.1299,2.1249,2.1592,2.2298,2.2387,2.2697,2.3364,2.2776,2.2314,2.2201,2.1699,2.1237,2.0899,2.109,2.1218,2.1203,2.1203,2.1203,2.1203,2.1203,2.1203,2.1203,2.1203,2.1203,2.1203,2.1203,2.1203,2.1203,2.1203,2.1203,2.1203,2.1203,2.1203,2.1203,2.1089,2.1089,2.1089,2.0687,2.0385,2.0558,2.0097,1.9764,1.9764,1.9649,1.9693,1.9707,1.9764,1.9707,1.9475,1.9533,1.9533,1.9417,1.943,1.943,1.9359,1.9185,1.8894,1.859,1.824,1.7948,1.7784,1.7667,1.7537,1.7479,1.7479,1.755,1.7608,1.7784,1.7843,1.7956,1.793,1.7685,1.7347,1.7092,1.6949,1.6696,1.6621,1.6796,1.7076,1.7354,1.7605,1.8994,1.8686,1.9189,1.9628,1.9943,2.0325,2.0665,2.1014,2.0654,2.0392,2.0014,1.9163,1.8649,1.8581,1.8508,1.8287,1.8047,1.8164,1.8508,1.8983,1.9545,1.9913,2.0208,2.0832,2.1109,2.1109,2.1109,2.1109,2.1109,2.1109,2.1109,2.1109,2.1109,2.1109,2.1109,2.1122,2.1491,2.2062,2.2089,2.2411,2.2816,2.2538,2.2245,2.2129,2.1568,2.1115,2.09,2.0857,2.0917,2.1031,2.1146,2.1203,2.1203,2.1203,2.1203,2.1203,2.1089,2.1017,2.1031,2.1031,2.1031,2.1031,2.1146,2.1203,2.1203,2.1203,2.1146,2.1031,2.0902,2.0859,2.0802,2.0457,2.0155,2.0097,1.9822,1.9591,1.9488,1.9533,1.9649,1.9649,1.9649,1.9591,1.9488,1.943,1.943,1.943,1.943,1.943,1.9359,1.9243,1.8952,1.859,1.8311,1.8018,1.7784,1.7608,1.7479,1.7479,1.7479,1.7537,1.7608,1.7843,1.796,1.8123,1.8101,1.7848,1.7464,1.7434,1.7272,1.6962,1.6636,1.6993,1.729,1.7541,1.7806,1.7852,1.7722,1.8096,1.8299,1.8458,1.8974,1.9294,1.9315,1.9575,1.9575,1.9287,1.8728,1.8373,1.8031,1.7712,1.7619,1.7749,1.7791,1.7792,1.8336,1.9029,1.9715,2.0372,2.0783,2.0982,2.1109,2.1109,2.1109,2.1109,2.1109,2.1109,2.1109,2.1109,2.1109,2.1109,2.1109,2.1269,2.1641,2.1896,2.2177,2.2459,2.2445,2.2364,2.2397,2.1579,2.1074,2.0944,2.0534,2.0443,2.0673,2.096,2.1089,2.1146,2.1146,2.1146,2.1089,2.0845,2.0716,2.0716,2.073,2.0716,2.0788,2.1031,2.1203,2.1146,2.1089,2.1031,2.0773,2.0558,2.0385,2.0328,2.004,1.9866,1.9764,1.9591,1.943,1.943,1.943,1.9417,1.9417,1.943,1.943,1.943,1.943,1.943,1.943,1.943,1.943,1.9372,1.9243,1.8997,1.8706,1.8369,1.8018,1.7726,1.7608,1.7479,1.7479,1.7479,1.7608,1.7726,1.7901,1.8194,1.8298,1.8215,1.796,1.7815,1.7728,1.7409,1.6907,1.6899,1.7207,1.7409,1.7524,1.7965,1.7731,1.7283,1.7501,1.7708,1.7901,1.824,1.8481,1.8688,1.8761,1.8671,1.835,1.8031,1.7765,1.7541,1.742,1.7379,1.7499,1.7658,1.7673,1.7803,1.871,1.9609,2.0188,2.0349,2.0666,2.1046,2.1109,2.1109,2.1109,2.1109,2.1109,2.1109,2.1109,2.1109,2.1109,2.1109,2.1269,2.1614,2.1896,2.2111,2.2352,2.2405,2.2271,2.2096,2.1464,2.0921,2.0483,2.0137,2.0111,2.0385,2.0673,2.073,2.0615,2.073,2.0788,2.0558,2.05,2.0486,2.0601,2.0658,2.0658,2.0716,2.0974,2.1089,2.0845,2.0845,2.0788,2.0658,2.0443,2.027,2.0213,1.9982,1.9764,1.9533,1.9417,1.943,1.943,1.943,1.943,1.943,1.943,1.943,1.943,1.943,1.943,1.943,1.943,1.943,1.9372,1.9314,1.9127,1.8648,1.8298,1.8018,1.7784,1.7608,1.7479,1.7479,1.755,1.7608,1.7843,1.8077,1.8415,1.8706,1.8357,1.8023,1.8048,1.8023,1.7464,1.6826,1.6932,1.7184,1.7114,1.7207,1.782,1.7651,1.7246,1.7369,1.7512,1.7643,1.7901,1.8101,1.8309,1.8426,1.8269,1.8006,1.7626,1.7377,1.7036,1.6885,1.6956,1.7087,1.7298,1.7368,1.7524,1.8003,1.9043,2.003,2.031,2.0528,2.1046,2.1109,2.1109,2.1109,2.1109,2.1109,2.1109,2.1109,2.1109,2.1109,2.1109,2.1189,2.139,2.1643,2.1897,2.2044,2.2178,2.2164,2.1897,2.1403,2.0802,2.012,1.9897,1.9959,2.0254,2.0443,2.0443,2.0328,2.0443,2.0443,2.027,2.0155,2.0155,2.027,2.0328,2.0328,2.0385,2.063,2.0673,2.0558,2.0558,2.05,2.027,2.0155,2.0053,1.9938,1.9764,1.9591,1.9417,1.943,1.943,1.943,1.943,1.943,1.943,1.943,1.943,1.943,1.943,1.943,1.943,1.943,1.943,1.943,1.9372,1.9243,1.8765,1.8415,1.8135,1.7843,1.7667,1.7537,1.7479,1.7479,1.7608,1.788,1.816,1.8311,1.8473,1.8311,1.8194,1.8194,1.804,1.7539,1.711,1.7138,1.7048,1.7024,1.7111,1.7654,1.7679,1.7369,1.7379,1.7388,1.7455,1.7788,1.7873,1.8025,1.8243,1.8176,1.7856,1.7473,1.7063,1.6632,1.6481,1.6391,1.6664,1.6805,1.7017,1.7206,1.7412,1.8106,1.9633,1.9841,2.0143,2.0615,2.0919,2.0919,2.0919,2.0969,2.1109,2.1122,2.1136,2.1136,2.1149,2.1149,2.1149,2.1189,2.1521,2.1681,2.171,2.1897,2.1977,2.1817,2.1323,2.0681,2.0107,1.9859,1.9988,2.028,2.0254,2.0226,2.0213,2.0213,2.0213,2.0097,1.9938,1.9809,1.9809,1.9866,1.9822,1.9938,2.0155,2.027,2.027,2.0213,2.0155,1.9924,1.9809,1.9707,1.9533,1.943,1.943,1.943,1.943,1.943,1.943,1.943,1.943,1.943,1.943,1.943,1.943,1.943,1.943,1.943,1.943,1.943,1.943,1.9372,1.9243,1.8881,1.859,1.8311,1.8018,1.7726,1.7596,1.7479,1.7479,1.7562,1.7823,1.8047,1.8102,1.8135,1.8018,1.8018,1.8031,1.7781,1.745,1.7247,1.7122,1.7069,1.7085,1.7202,1.7558,1.7464,1.6953,1.7105,1.7171,1.7199,1.7426,1.7502,1.7569,1.7655,1.7577,1.7272,1.7025,1.6797,1.6539,1.6335,1.6249,1.6391,1.6583,1.6875,1.7147,1.6729,1.717,1.8172,1.8484,1.8952,1.9532,2.0094,2.0272,2.0412,2.0755,2.1109,2.1086,2.1285,2.1349,2.1189,2.1349,2.1336,2.1203,2.1403,2.1588,2.1641,2.1777,2.1844,2.1695,2.1109,2.0615,2.0201,1.992,1.9939,2.0132,2.0051,1.9891,1.9775,1.985,1.9863,1.9761,1.9618,1.9604,1.9764,1.9792,1.9822,1.9822,2.0053,2.0213,1.9938,1.9924,1.9866,1.9764,1.9591,1.9488,1.943,1.943,1.943,1.943,1.943,1.943,1.943,1.943,1.943,1.943,1.943,1.943,1.943,1.943,1.943,1.943,1.9444,1.943,1.9457,1.9426,1.9304,1.9063,1.8621,1.8366,1.8118,1.7823,1.7705,1.7624,1.7636,1.766,1.7923,1.7897,1.7954,1.7892,1.7784,1.7784,1.7843,1.7713,1.7465,1.7237,1.7117,1.7126,1.7228,1.7289,1.7395,1.7416,1.6972,1.7057,1.7048,1.7001,1.718,1.7275,1.7294,1.7388,1.7303,1.7114,1.6982,1.6774,1.6481,1.6367,1.6282,1.624,1.6276,1.6506,1.6638,1.6312,1.6382,1.682,1.719,1.7695,1.8647,1.9301,1.9569,1.9732,2.0027,2.0426,2.0837,2.1163,2.1358,2.151,2.1628,2.1534,2.1336,2.1309,2.1349,2.139,2.1483,2.1537,2.1363,2.1029,2.0735,2.0454,2.0307,2.0227,2.016,2.0053,1.9937,1.9792,1.9771,1.9744,1.9792,1.9626,1.9631,1.9735,1.9794,1.9739,1.9604,1.9822,1.9764,1.9649,1.9591,1.9649,1.9591,1.9475,1.943,1.943,1.943,1.943,1.943,1.943,1.943,1.943,1.943,1.943,1.943,1.943,1.943,1.943,1.9457,1.9457,1.947,1.9613,1.9626,1.9634,1.9615,1.9529,1.9244,1.8733,1.8373,1.8183,1.8005,1.778,1.7793,1.7901,1.7962,1.8119,1.7949,1.7815,1.7754,1.7705,1.7608,1.7655,1.7525,1.7467,1.7382,1.731,1.7286,1.7332,1.7356,1.745,1.7416,1.701,1.7038,1.6944,1.6812,1.7001,1.7114,1.7142,1.7331,1.7331,1.7171,1.7123,1.6878,1.6594,1.649,1.6358,1.6141,1.6116,1.6206,1.6225,1.6011,1.6001,1.6274,1.6473,1.6897,1.7995,1.8596,1.8804,1.8909,1.9196,1.994,2.0413,2.0869,2.1224,2.1714,2.183,2.1762,2.1617,2.1456,2.1363,2.1349,2.1363,2.1349,2.1243,2.1216,2.1029,2.0788,2.0641,2.0575,2.0374,2.0321,2.0321,2.0281,2.0067,1.996,2.0201,1.9973,1.988,1.984,1.9859,1.9738,1.9439,1.943,1.9417,1.9417,1.9417,1.943,1.943,1.943,1.943,1.943,1.943,1.943,1.943,1.943,1.943,1.943,1.943,1.943,1.943,1.943,1.9444,1.9511,1.9506,1.9537,1.9519,1.9733,1.982,1.9767,1.9713,1.9611,1.9369,1.8854,1.8443,1.8263,1.819,1.801,1.7998,1.8131,1.8239,1.8312,1.8131,1.7998,1.7828,1.7743,1.7634,1.755,1.7479,1.7479,1.7479,1.7455,1.7394,1.7418,1.7479,1.7537,1.7123,1.6604,1.6774,1.6727,1.6613,1.6934,1.7086,1.7142,1.7312,1.7407,1.735,1.719,1.6991,1.6745,1.6547,1.6282,1.6065,1.6018,1.6122,1.6122,1.5862,1.5796,1.6104,1.6157,1.6363,1.6728,1.7512,1.8031,1.8314,1.8959,1.9434,2.0042,2.0675,2.1209,2.1533,2.187,2.2018,2.1924,2.179,2.175,2.175,2.1737,2.163,2.147,2.143,2.1269,2.1029,2.0815,2.0762,2.0922,2.0735,2.0748,2.0762,2.0441,2.0267,2.0267,2.0167,2.016,2.0147,1.996,1.9826,1.9679,1.9533,1.9399,1.9444,1.943,1.943,1.943,1.943,1.943,1.943,1.943,1.943,1.943,1.943,1.9444,1.9444,1.9457,1.9497,1.9551,1.9524,1.9492,1.9626,1.9746,1.9727,1.9807,1.9933,1.9858,1.9776,1.9694,1.9598,1.9267,1.8899,1.8582,1.8288,1.8288,1.8227,1.8239,1.8336,1.8456,1.8481,1.836,1.8203,1.807,1.7817,1.7646,1.7527,1.7515,1.7479,1.7479,1.7479,1.7479,1.7479,1.7479,1.7479,1.7123,1.667,1.6764,1.6613,1.6415,1.6651,1.6849,1.6972,1.7171,1.7322,1.7369,1.7303,1.7086,1.6849,1.6708,1.6415,1.6131,1.5989,1.6141,1.6169,1.5848,1.5782,1.6122,1.6065,1.6056,1.6279,1.6857,1.7217,1.7346,1.7834,1.8589,1.9232,1.9875,2.0529,2.1313,2.1662,2.2029,2.2071,2.2084,2.2004,2.2004,2.2004,2.1844,2.1708,2.1614,2.139,2.1149,2.1002,2.0962,2.1042,2.0975,2.0989,2.0975,2.0882,2.0668,2.0641,2.0535,2.0454,2.0454,2.0307,2.0214,2.0013,1.976,1.9613,1.9546,1.9479,1.943,1.943,1.943,1.943,1.943,1.943,1.943,1.943,1.943,1.9452,1.9546,1.9586,1.9666,1.972,1.972,1.98,1.996,1.9993,1.9986,2.0045,2.013,1.995,1.973,1.9658,1.9572,1.9311,1.9026,1.868,1.8518,1.8481,1.8493,1.8505,1.8565,1.8686,1.8698,1.8601,1.8505,1.8396,1.8094,1.7756,1.7636,1.7636,1.7563,1.7491,1.7479,1.7479,1.7479,1.7479,1.7479,1.718,1.6802,1.6802,1.6566,1.6254,1.6396,1.6585,1.6755,1.6953,1.7133,1.7284,1.7265,1.7057,1.6812,1.6679,1.65,1.6131,1.5989,1.6188,1.6235,1.5971,1.5984,1.6093,1.6056,1.598,1.6192,1.6339,1.6511,1.6742,1.7107,1.7576,1.8288,1.8746,1.9656,2.0873,2.132,2.1739,2.2028,2.2311,2.2178,2.2231,2.2178,2.2071,2.1882,2.1829,2.159,2.1283,2.1216,2.1149,2.1122,2.1082,2.1096,2.1096,2.1096,2.1096,2.1069,2.0882,2.0788,2.0748,2.0655,2.0494,2.0321,1.9987,1.984,1.972,1.9533,1.943,1.943,1.943,1.943,1.943,1.943,1.947,1.9537,1.9551,1.9559,1.9786,1.992,2.004,2.0067,2.0027,2.0107,2.0281,2.0178,2.0095,2.0142,2.0224,1.9925,1.9713,1.9625,1.9537,1.9347,1.9108,1.8811,1.8674,1.8734,1.8746,1.877,1.8819,1.8915,1.8915,1.8879,1.8782,1.8662,1.8408,1.8106,1.7937,1.7732,1.7636,1.7551,1.7515,1.7479,1.7479,1.7479,1.7479,1.718,1.6802,1.6802,1.6566,1.6245,1.6386,1.649,1.6556,1.6755,1.6849,1.6934,1.6887,1.6774,1.6585,1.6528,1.6282,1.6103,1.6197,1.6273,1.6235,1.6112,1.6221,1.6358,1.6235,1.6197,1.6245,1.6245,1.6392,1.6554,1.6849,1.7171,1.7652,1.8389,1.9271,1.9794,2.0653,2.1721,2.1971,2.2479,2.2846,2.3006,2.2832,2.2753,2.2592,2.2365,2.1991,2.1537,2.143,2.1363,2.1122,2.1109,2.1109,2.1109,2.1109,2.1109,2.1109,2.1082,2.1056,2.0989,2.0842,2.0722,2.0535,2.0174,1.9893,1.9773,1.9599,1.9412,1.943,1.943,1.9457,1.947,1.9444,1.9506,1.9653,1.976,1.9907,2.0107,2.0201,2.0321,2.0494,2.0481,2.0521,2.0566,2.042,2.0286,2.0268,2.0271,1.9954,1.97,1.9559,1.9456,1.9291,1.9215,1.8942,1.8831,1.8891,1.8915,1.8963,1.9012,1.9136,1.9036,1.9,1.9024,1.8879,1.8638,1.8384,1.8143,1.7925,1.7744,1.7612,1.7551,1.7515,1.7479,1.7479,1.7491,1.718,1.6802,1.6802,1.6566,1.6216,1.6282,1.6377,1.649,1.6575,1.6689,1.6783,1.6802,1.6679,1.649,1.6377,1.6226,1.6112,1.6235,1.6273,1.6207,1.6197,1.6235,1.6264,1.6226,1.6254,1.6264,1.6245,1.6216,1.6373,1.6473,1.6735,1.705,1.7491,1.8093,1.8655,1.9517,2.0445,2.1333,2.2323,2.302,2.3166,2.3046,2.2873,2.2859,2.2579,2.2138,2.1737,2.1614,2.1403,2.1162,2.1109,2.1109,2.1109,2.1109,2.1109,2.1109,2.1109,2.1096,2.1082,2.0975,2.0922,2.0842,2.0521,2.0267,2.0054,1.98,1.9613,1.9613,1.9452,1.9452,1.9573,1.9613,1.9786,1.9933,2.004,2.0227,2.0388,2.0454,2.0575,2.0762,2.0846,2.0757,2.0605,2.0443,2.0142,1.9966,1.9865,1.9674,1.9419,1.9316,1.92,1.9136,1.9124,1.91,1.9,1.9024,1.9,1.9024,1.9024,1.9136,1.9136,1.906,1.9136,1.9136,1.8915,1.865,1.8409,1.8094,1.7889,1.7732,1.7587,1.7539,1.7503,1.7503,1.7539,1.718,1.6802,1.6802,1.6566,1.6188,1.6188,1.6264,1.6396,1.6405,1.65,1.6613,1.6632,1.6538,1.6415,1.6264,1.6188,1.6178,1.6188,1.6188,1.6188,1.6188,1.6188,1.6207,1.6188,1.6188,1.6188,1.6197,1.6197,1.6197,1.6268,1.6419,1.6593,1.6834,1.7228,1.7851,1.8552,1.939,2.0861,2.1829,2.2536,2.2858,2.2951,2.2953,2.2873,2.2672,2.2285,2.1857,2.1762,2.1537,2.1296,2.1136,2.1109,2.1109,2.1109,2.1109,2.1109,2.1109,2.1109,2.1109,2.1069,2.1096,2.1015,2.0842,2.0481,2.0227,2.0013,1.9907,1.9907,1.9773,1.9773,1.984,1.9907,2.0067,2.0227,2.0347,2.0535,2.0695,2.0735,2.0713,2.0846,2.0903,2.0613,2.0487,2.0386,2.0068,1.9699,1.952,1.9392,1.9264,1.9136,1.9136,1.9136,1.9136,1.9136,1.9136,1.9136,1.9136,1.9136,1.9136,1.9136,1.9136,1.9136,1.9136,1.9136,1.9136,1.9015,1.8749,1.8409,1.8022,1.7853,1.7696,1.7587,1.7598,1.7598,1.7672,1.718,1.6802,1.6802,1.6566,1.6188,1.6188,1.6197,1.6235,1.6226,1.6235,1.6282,1.6245,1.6273,1.6216,1.6216,1.6188,1.6188,1.6188,1.6188,1.6188,1.6188,1.6188,1.6188,1.6188,1.6188,1.6188,1.6188,1.6188,1.6188,1.6188,1.6249,1.6249,1.6523,1.6664,1.7218,1.7921,1.8832,2.0086,2.1,2.1704,2.2236,2.2575,2.2937,2.307,2.2979,2.2672,2.2352,2.2084,2.1777,2.1496,2.1283,2.1122,2.1122,2.1109,2.1109,2.1109,2.1109,2.1109,2.1109,2.1109,2.1109,2.1029,2.0869,2.0641,2.0414,2.0281,2.0201,2.0187,2.008,2.0107,2.0174,2.0167,2.0347,2.0535,2.0655,2.0762,2.0895,2.0899,2.0889,2.1019,2.0869,2.0552,2.0297,2.0094,1.9903,1.952,1.9392,1.92,1.92,1.9136,1.9136,1.9136,1.9136,1.9136,1.9136,1.9136,1.9136,1.9136,1.9136,1.9136,1.9136,1.9136,1.9136,1.9136,1.9136,1.9112,1.9076,1.8698,1.8384,1.8034,1.7817,1.7708,1.766,1.7684,1.7901,1.718,1.6802,1.6802,1.6566,1.6188,1.6188,1.6188,1.6188,1.6188,1.6188,1.6188,1.6188,1.6188,1.6188,1.6188,1.6188,1.6188,1.6188,1.6188,1.6188,1.6188,1.6188,1.6188,1.6188,1.6188,1.6188,1.6188,1.6188,1.6188,1.6188,1.6188,1.6249,1.6391,1.6391,1.6734,1.7439,1.8342,1.9111,1.997,2.0856,2.1505,2.2007,2.2384,2.2549,2.2951,2.2726,2.2445,2.2325,2.1991,2.167,2.1456,2.1296,2.1149,2.1122,2.1109,2.1109,2.1109,2.1109,2.1109,2.1109,2.1109,2.1096,2.1002,2.0869,2.0695,2.0615,2.0521,2.0468,2.0361,2.0347,2.0494,2.0521,2.0615,2.0828,2.0949,2.1002,2.0979,2.0969,2.0982,2.1046,2.0679,2.0234,2.0043,1.9839,1.9584,1.9328,1.92,1.9136,1.9136,1.9136,1.9136,1.9136,1.9136,1.9136,1.9136,1.9136,1.9136,1.9136,1.9136,1.9136,1.9136,1.9136,1.9136,1.9136,1.9136,1.9124,1.91,1.8988,1.8734,1.8372,1.8058,1.7829,1.7817,1.7865,1.8131,1.7123,1.6812,1.6736,1.6509,1.6197,1.6188,1.6188,1.6188,1.6188,1.6188,1.6188,1.6188,1.6188,1.6188,1.6188,1.6188,1.6188,1.6188,1.6188,1.6188,1.6188,1.6188,1.6188,1.6188,1.6188,1.6188,1.6188,1.6188,1.6188,1.6188,1.6188,1.6188,1.6188,1.6259,1.6391,1.6956,1.758,1.8061,1.8982,1.9808,2.0462,2.1123,2.1741,2.2014,2.2402,2.2601,2.2524,2.2445,2.2231,2.1911,2.1657,2.1456,2.1296,2.1162,2.1109,2.1109,2.1109,2.1109,2.1109,2.1109,2.1109,2.1096,2.1096,2.1082,2.1042,2.0922,2.0815,2.0788,2.0628,2.0575,2.0802,2.0815,2.0842,2.1015,2.1029,2.1069,2.1006,2.1046,2.1046,2.1046,2.0552,2.0106,1.9915,1.9724,1.9392,1.92,1.92,1.9136,1.9136,1.9136,1.9136,1.9136,1.9136,1.9136,1.9136,1.9136,1.9136,1.9136,1.9136,1.9136,1.9136,1.9136,1.9136,1.9136,1.9136,1.9136,1.9048,1.9024,1.8891,1.8698,1.8372,1.8034,1.8191,1.8275,1.8432,1.6991,1.6783,1.6585,1.6377,1.6117,1.6188,1.6188,1.6108,1.6108,1.6108,1.6117,1.6188,1.6188,1.6188,1.6188,1.6188,1.6188,1.6188,1.6188,1.6188,1.6188,1.6188,1.6188,1.6188,1.6188,1.6188,1.6188,1.6188,1.6188,1.6235,1.6216,1.6188,1.6188,1.6188,1.6188,1.6259,1.6461,1.6866,1.7991,1.8584,1.9237,2.0052,2.0759,2.1175,2.1729,2.2065,2.2343,2.2524,2.2405,2.2231,2.1871,2.1735,2.155,2.1296,2.1189,2.1162,2.1122,2.1109,2.1109,2.1109,2.1109,2.1109,2.1109,2.1109,2.1109,2.1069,2.1042,2.0975,2.0975,2.0989,2.1069,2.1069,2.1082,2.1096,2.1096,2.1046,2.0982,2.0919,2.0919,2.0729,2.0425,2.0043,1.9851,1.9596,1.9264,1.9136,1.9136,1.9136,1.9136,1.9136,1.9136,1.9136,1.9136,1.9136,1.9136,1.9136,1.9136,1.9136,1.9136,1.9136,1.9136,1.9136,1.9136,1.9136,1.9136,1.9136,1.9136,1.9136,1.8939,1.8819,1.8541,1.8336,1.8517,1.8638,1.871,1.6833,1.6416,1.6213,1.5794,1.5488,1.5683,1.5824,1.5824,1.5824,1.5824,1.5895,1.6037,1.6188,1.6188,1.6188,1.6188,1.6188,1.6188,1.6188,1.6188,1.6188,1.6188,1.6188,1.6188,1.6188,1.6188,1.6188,1.6188,1.6188,1.6292,1.6273,1.6226,1.6226,1.6188,1.6188,1.6259,1.6391,1.6654,1.7147,1.751,1.7942,1.8714,1.9401,1.975,2.0735,2.144,2.1829,2.2086,2.2483,2.2337,2.2058,2.2017,2.183,2.1563,2.1416,2.1349,2.1283,2.1109,2.1109,2.1109,2.1109,2.1122,2.1109,2.1109,2.1109,2.1109,2.1096,2.1109,2.1109,2.1109,2.1096,2.1096,2.1096,2.1096,2.1046,2.0919,2.0856,2.0729,2.0666,2.0348,1.9979,1.9736,1.9493,1.9552,1.9382,1.9217,1.9229,1.912,1.916,1.9136,1.9136,1.9136,1.9136,1.9136,1.9136,1.9136,1.9136,1.9136,1.9136,1.9136,1.9136,1.9136,1.9136,1.9136,1.9136,1.9136,1.9136,1.9072,1.9048,1.8903,1.8686,1.8565,1.865,1.8722,1.877,1.6536,1.5974,1.5777,1.5435,1.5061,1.5257,1.5399,1.5399,1.5399,1.539,1.5461,1.5683,1.5763,1.5763,1.5763,1.5895,1.5966,1.5966,1.6178,1.6188,1.6188,1.6188,1.6188,1.6188,1.6188,1.6188,1.6197,1.6207,1.6301,1.6424,1.6462,1.6424,1.632,1.6311,1.6282,1.6316,1.6249,1.6523,1.6734,1.6996,1.7399,1.7855,1.8329,1.8834,1.9596,2.0343,2.0816,2.1515,2.2232,2.2117,2.2189,2.2284,2.2098,2.1897,2.1789,2.163,2.155,2.1376,2.1309,2.143,2.147,2.147,2.1256,2.1122,2.1109,2.1109,2.1109,2.1109,2.1109,2.1109,2.1109,2.1109,2.1109,2.1109,2.1046,2.0919,2.0729,2.0602,2.0475,2.0106,1.9788,1.948,1.9322,1.9415,1.947,1.9422,1.9386,1.9265,1.9157,1.9145,1.9157,1.9157,1.9132,1.912,1.9108,1.9136,1.9136,1.9136,1.9136,1.9136,1.9136,1.9136,1.9136,1.9136,1.9136,1.9136,1.9136,1.906,1.9048,1.9024,1.8927,1.8843,1.8819,1.8843,1.8867,1.6107,1.5615,1.5349,1.5165,1.5007,1.4919,1.4901,1.4981,1.4981,1.4981,1.4981,1.5044,1.5195,1.5123,1.5052,1.5257,1.547,1.5532,1.5683,1.5895,1.5834,1.5975,1.6108,1.6108,1.6117,1.6188,1.6226,1.632,1.6462,1.6538,1.6623,1.667,1.6509,1.6424,1.6339,1.6301,1.6306,1.6387,1.6538,1.6777,1.71,1.7355,1.7755,1.8235,1.8774,1.916,1.9691,2.0433,2.0988,2.1371,2.179,2.2161,2.2204,2.2151,2.2058,2.1964,2.1924,2.1764,2.1643,2.1777,2.1844,2.1764,2.147,2.1243,2.1136,2.1149,2.1109,2.1109,2.1109,2.1109,2.1109,2.1109,2.1109,2.1109,2.1109,2.0919,2.0602,2.0488,2.0361,2.0043,1.9711,1.9466,1.9492,1.9519,1.9639,1.9664,1.9615,1.9531,1.9422,1.9326,1.9326,1.9301,1.9265,1.9193,1.9181,1.9229,1.9181,1.9217,1.9096,1.9136,1.9136,1.9136,1.9136,1.9136,1.9136,1.9136,1.9136,1.9136,1.9072,1.9036,1.9012,1.9,1.8939,1.8976,1.9012,1.5803,1.5351,1.5172,1.4846,1.4452,1.4319,1.4189,1.4261,1.4474,1.4617,1.4697,1.491,1.4901,1.5052,1.5052,1.4901,1.483,1.483,1.483,1.4972,1.5115,1.5399,1.5603,1.5815,1.5966,1.6164,1.632,1.6352,1.6528,1.6613,1.6727,1.6755,1.6613,1.6462,1.6367,1.6358,1.6377,1.6468,1.6539,1.6745,1.6869,1.7073,1.7296,1.7444,1.8032,1.8325,1.859,1.9413,1.9889,2.012,2.1064,2.1495,2.1551,2.1987,2.2258,2.2004,2.1964,2.1937,2.1884,2.1937,2.2031,2.2058,2.1817,2.1643,2.1456,2.1296,2.1189,2.1216,2.1229,2.1256,2.1269,2.1256,2.1256,2.1269,2.1206,2.1014,2.0772,2.058,2.0387,1.9886,1.9552,1.9634,1.9645,1.9664,1.9772,1.9845,1.9869,1.9808,1.9688,1.9603,1.9519,1.9507,1.9519,1.947,1.9483,1.9531,1.9434,1.935,1.9229,1.9108,1.9136,1.9136,1.9136,1.9136,1.9136,1.9136,1.9136,1.9136,1.9136,1.9136,1.9112,1.9124,1.9136,1.9136,1.9136,1.5522,1.5052,1.4877,1.4514,1.4155,1.4026,1.3977,1.3984,1.4189,1.4261,1.4261,1.4261,1.4332,1.4261,1.4118,1.4047,1.4047,1.4047,1.4118,1.4332,1.4261,1.475,1.5106,1.5399,1.5666,1.5963,1.6155,1.6203,1.6342,1.661,1.6815,1.6693,1.6561,1.65,1.6405,1.6424,1.6528,1.6575,1.6632,1.6736,1.684,1.6925,1.6831,1.6863,1.7524,1.7488,1.7501,1.8417,1.8773,1.9181,2.0237,2.1207,2.1402,2.206,2.2458,2.2258,2.2325,2.2271,2.2218,2.2298,2.2325,2.2298,2.2218,2.2071,2.1897,2.1724,2.1603,2.1537,2.1496,2.147,2.147,2.1456,2.147,2.1483,2.129,2.1161,2.0903,2.0709,2.0268,1.9707,1.9596,1.9742,1.9784,1.9911,2.0044,2.0183,2.0291,2.0267,2.0098,1.9905,1.9796,1.9736,1.9772,1.9796,1.9808,1.9772,1.9627,1.9495,1.9374,1.9253,1.9145,1.9136,1.9136,1.9136,1.9136,1.9136,1.9136,1.9136,1.9136,1.9136,1.9136,1.9136,1.9136,1.9136,1.9136,1.5219,1.4659,1.4489,1.4229,1.3897,1.401,1.397,1.3841,1.3761,1.3825,1.3753,1.3468,1.3325,1.3396,1.3253,1.3182,1.3182,1.3253,1.3333,1.3761,1.3619,1.4039,1.4679,1.499,1.5247,1.5651,1.5949,1.6066,1.6103,1.6352,1.6542,1.6487,1.6582,1.6578,1.6471,1.6585,1.6698,1.6802,1.6887,1.6982,1.7086,1.7123,1.7105,1.701,1.6933,1.6816,1.6812,1.7217,1.7791,1.8493,1.9401,2.0653,2.1471,2.2216,2.251,2.2605,2.2645,2.2605,2.2552,2.2605,2.2726,2.2699,2.2619,2.2472,2.2298,2.1991,2.1817,2.1777,2.175,2.1737,2.1737,2.1737,2.175,2.175,2.1685,2.1359,2.0966,2.0638,2.0191,1.982,1.9748,1.9893,2.0038,2.011,2.0195,2.0484,2.0581,2.0569,2.046,2.0219,2.011,2.0026,2.0086,2.0122,2.0074,2.0014,1.9796,1.9652,1.9519,1.9314,1.9132,1.9148,1.9136,1.9136,1.9136,1.9136,1.9136,1.9136,1.9136,1.9136,1.9136,1.9136,1.9136,1.9136,1.9136,1.4735,1.4481,1.431,1.4035,1.3657,1.357,1.3372,1.3039,1.3039,1.3182,1.3325,1.3111,1.2896,1.2896,1.2753,1.2681,1.2474,1.2545,1.2545,1.2632,1.2704,1.3356,1.4071,1.4297,1.4766,1.534,1.5671,1.5861,1.5961,1.6103,1.6187,1.6231,1.6352,1.6397,1.6456,1.6689,1.6934,1.7001,1.7142,1.7218,1.7294,1.7284,1.7246,1.702,1.6802,1.6623,1.6558,1.6448,1.6673,1.6956,1.7931,1.9401,2.1069,2.2242,2.2764,2.2792,2.2806,2.2779,2.2779,2.2792,2.2846,2.2859,2.2779,2.2766,2.2592,2.2218,2.2017,2.2017,2.2017,2.2031,2.2031,2.2044,2.2044,2.2044,2.1965,2.1515,2.105,2.0585,2.0197,2.0087,2.0057,2.011,2.0279,2.0376,2.0472,2.0557,2.0629,2.0641,2.0629,2.0484,2.046,2.04,2.046,2.0484,2.0388,2.0267,2.0062,1.982,1.9664,1.941,1.9197,1.9148,1.9136,1.9136,1.9136,1.9136,1.9136,1.9136,1.9136,1.9136,1.9136,1.9136,1.9136,1.9136,1.9136,1.4529,1.435,1.4335,1.3978,1.3481,1.3442,1.3187,1.2832,1.2617,1.2617,1.276,1.2617,1.2545,1.2474,1.233,1.2259,1.1979,1.1979,1.2035,1.2056,1.2079,1.2683,1.3161,1.3625,1.4027,1.453,1.501,1.5328,1.5608,1.5699,1.5676,1.5798,1.5901,1.6205,1.6367,1.6721,1.7114,1.7114,1.7322,1.7407,1.7426,1.7379,1.735,1.7105,1.6878,1.667,1.65,1.632,1.6188,1.6532,1.7439,1.9122,2.0723,2.1691,2.2379,2.2709,2.2859,2.2859,2.2859,2.2859,2.2859,2.2859,2.2859,2.2819,2.2819,2.2498,2.2539,2.2539,2.2539,2.2552,2.2485,2.2485,2.2485,2.2485,2.2215,2.181,2.1336,2.0928,2.06,2.0408,2.0364,2.0388,2.0509,2.0521,2.0593,2.0605,2.0665,2.0665,2.0665,2.0665,2.0665,2.0665,2.0665,2.0665,2.0569,2.0472,2.0352,2.0098,1.9784,1.9483,1.9205,1.912,1.9136,1.9136,1.9136,1.9136,1.9136,1.9136,1.9136,1.9136,1.9136,1.9136,1.9136,1.9136,1.9136,1.4383,1.4293,1.4277,1.3897,1.33,1.3336,1.3104,1.2632,1.2259,1.2122,1.2122,1.2122,1.2122,1.1979,1.1835,1.1691,1.1619,1.1691,1.1694,1.1714,1.166,1.2244,1.2626,1.288,1.3386,1.3823,1.4271,1.461,1.4887,1.506,1.5218,1.5149,1.5532,1.6003,1.6205,1.661,1.7096,1.7218,1.7331,1.7407,1.7426,1.7416,1.7369,1.7237,1.7038,1.6821,1.6651,1.6453,1.6216,1.6815,1.751,1.9041,2.0433,2.1484,2.2173,2.2654,2.2859,2.2859,2.2859,2.2859,2.2859,2.2859,2.2859,2.2859,2.2859,2.2914,2.2887,2.2887,2.2887,2.2887,2.2806,2.2806,2.2806,2.2737,2.2395,2.2052,2.164,2.1239,2.0963,2.0768,2.0698,2.0698,2.0641,2.0653,2.0665,2.0665,2.0665,2.0665,2.0665,2.0665,2.0665,2.0665,2.0665,2.0665,2.0665,2.0605,2.0565,2.0158,1.9833,1.9531,1.9277,1.9145,1.9136,1.9136,1.9136,1.9136,1.9136,1.9136,1.9136,1.9136,1.9136,1.9136,1.9136,1.9136,1.9136,1.414,1.4002,1.3642,1.3236,1.2904,1.2582,1.2215,1.1835,1.1763,1.1691,1.1763,1.1691,1.1691,1.1691,1.1691,1.1619,1.1619,1.1619,1.1619,1.1633,1.164,1.1935,1.2265,1.2482,1.2927,1.3334,1.3808,1.4127,1.4418,1.4732,1.491,1.4967,1.5201,1.5681,1.6176,1.6618,1.6952,1.7122,1.7284,1.735,1.7416,1.7388,1.7303,1.7142,1.6934,1.6727,1.6528,1.632,1.6216,1.6744,1.7861,1.8971,2.0086,2.1195,2.2104,2.2722,2.2859,2.2859,2.2859,2.2859,2.2859,2.2859,2.2859,2.2859,2.2859,2.2859,2.2846,2.2846,2.2846,2.2846,2.2846,2.2846,2.2846,2.2777,2.2503,2.216,2.1747,2.1402,2.1138,2.0861,2.0723,2.0723,2.0653,2.0665,2.0665,2.0665,2.0665,2.0665,2.0665,2.0665,2.0665,2.0665,2.0665,2.0665,2.0665,2.0653,2.0602,2.0195,1.9869,1.9567,1.9314,1.9132,1.9136,1.9136,1.9136,1.9136,1.9136,1.9136,1.9136,1.9136,1.9136,1.9136,1.9136,1.9136,1.9136]}]]